Wetterdaten: Mittwoch, 25.05.2016
Datum Zeit Temp. A. Feuchte A. Luftdruck Regen Wind Richtung Richtung Sonnenschein ET UV Solar Taupunkt Windchill Windben Empfang
25.05.2016 00:00 10,4 C 92 % 1013,0 hPa 0,0 l/m 18,2 km/h (3 Bft) S-SW 194 0 min 0,000 mm 0,0 UV-I 0 W/m 9,2 C 4,4 C 24,1 km/h (4 Bft) 100,00 %
25.05.2016 00:02 10,4 C 92 % 1013,0 hPa 0,2 l/m 17,2 km/h (3 Bft) SW 214 0 min 0,000 mm 0,0 UV-I 0 W/m 9,2 C 4,8 C 22,5 km/h (4 Bft) 100,00 %
25.05.2016 00:03 10,4 C 93 % 1013,0 hPa 0,0 l/m 17,5 km/h (3 Bft) SW 236 0 min 0,000 mm 0,0 UV-I 0 W/m 9,3 C 4,7 C 27,4 km/h (4 Bft) 92,31 %
25.05.2016 00:04 10,3 C 93 % 1013,0 hPa 0,0 l/m 22,2 km/h (4 Bft) SW 216 0 min 0,000 mm 0,0 UV-I 0 W/m 9,2 C 3,0 C 29,0 km/h (5 Bft) 96,30 %
25.05.2016 00:05 10,3 C 93 % 1013,0 hPa 0,0 l/m 18,7 km/h (3 Bft) W 259 0 min 0,000 mm 0,0 UV-I 0 W/m 9,2 C 4,1 C 29,0 km/h (5 Bft) 93,33 %
25.05.2016 00:06 10,3 C 93 % 1013,0 hPa 0,0 l/m 19,0 km/h (3 Bft) SW 228 0 min 0,000 mm 0,0 UV-I 0 W/m 9,2 C 4,0 C 25,7 km/h (4 Bft) 96,15 %
25.05.2016 00:07 10,3 C 93 % 1013,1 hPa 0,0 l/m 19,6 km/h (3 Bft) S-SW 212 0 min 0,000 mm 0,0 UV-I 0 W/m 9,2 C 3,8 C 27,4 km/h (4 Bft) 96,15 %
25.05.2016 00:08 10,3 C 93 % 1013,0 hPa 0,0 l/m 18,8 km/h (3 Bft) W-SW 250 0 min 0,000 mm 0,0 UV-I 0 W/m 9,2 C 4,1 C 27,4 km/h (4 Bft) 95,83 %
25.05.2016 00:09 10,3 C 93 % 1013,1 hPa 0,0 l/m 14,5 km/h (3 Bft) W-SW 258 0 min 0,000 mm 0,0 UV-I 0 W/m 9,2 C 5,7 C 20,9 km/h (4 Bft) 100,00 %
25.05.2016 00:10 10,3 C 93 % 1013,1 hPa 0,0 l/m 17,1 km/h (3 Bft) W 265 0 min 0,000 mm 0,0 UV-I 0 W/m 9,2 C 4,7 C 27,4 km/h (4 Bft) 91,30 %
25.05.2016 00:11 10,3 C 93 % 1013,1 hPa 0,0 l/m 16,6 km/h (3 Bft) S-SW 213 0 min 0,000 mm 0,0 UV-I 0 W/m 9,2 C 4,9 C 24,1 km/h (4 Bft) 100,00 %
25.05.2016 00:12 10,3 C 93 % 1013,1 hPa 0,0 l/m 18,9 km/h (3 Bft) SW 227 0 min 0,000 mm 0,0 UV-I 0 W/m 9,2 C 4,0 C 25,7 km/h (4 Bft) 92,86 %
25.05.2016 00:13 10,3 C 93 % 1013,1 hPa 0,0 l/m 17,1 km/h (3 Bft) SW 229 0 min 0,000 mm 0,0 UV-I 0 W/m 9,2 C 4,7 C 25,7 km/h (4 Bft) 100,00 %
25.05.2016 00:14 10,3 C 93 % 1013,1 hPa 0,0 l/m 14,5 km/h (3 Bft) SW 228 0 min 0,000 mm 0,0 UV-I 0 W/m 9,2 C 5,7 C 19,3 km/h (3 Bft) 95,65 %
25.05.2016 00:15 10,3 C 93 % 1013,2 hPa 0,0 l/m 17,6 km/h (3 Bft) W-SW 238 0 min 0,000 mm 0,0 UV-I 0 W/m 9,2 C 4,5 C 27,4 km/h (4 Bft) 100,00 %
25.05.2016 00:16 10,3 C 93 % 1013,2 hPa 0,0 l/m 16,2 km/h (3 Bft) SW 233 0 min 0,000 mm 0,0 UV-I 0 W/m 9,2 C 5,0 C 20,9 km/h (4 Bft) 93,10 %
25.05.2016 00:17 10,2 C 93 % 1013,2 hPa 0,0 l/m 13,7 km/h (3 Bft) SW 234 0 min 0,000 mm 0,0 UV-I 0 W/m 9,1 C 5,9 C 19,3 km/h (3 Bft) 100,00 %
25.05.2016 00:18 10,2 C 93 % 1013,2 hPa 0,0 l/m 22,4 km/h (4 Bft) SW 232 0 min 0,000 mm 0,0 UV-I 0 W/m 9,1 C 2,8 C 27,4 km/h (4 Bft) 92,31 %
25.05.2016 00:19 10,2 C 93 % 1013,2 hPa 0,0 l/m 15,2 km/h (3 Bft) SW 230 0 min 0,000 mm 0,0 UV-I 0 W/m 9,1 C 5,3 C 22,5 km/h (4 Bft) 96,30 %
25.05.2016 00:20 10,2 C 93 % 1013,2 hPa 0,0 l/m 14,1 km/h (3 Bft) W 271 0 min 0,000 mm 0,0 UV-I 0 W/m 9,1 C 5,8 C 17,7 km/h (3 Bft) 100,00 %
25.05.2016 00:21 10,2 C 94 % 1013,2 hPa 0,0 l/m 16,2 km/h (3 Bft) W-SW 248 0 min 0,000 mm 0,0 UV-I 0 W/m 9,3 C 4,9 C 20,9 km/h (4 Bft) 96,55 %
25.05.2016 00:22 10,2 C 94 % 1013,2 hPa 0,0 l/m 13,7 km/h (3 Bft) SW 226 0 min 0,000 mm 0,0 UV-I 0 W/m 9,3 C 5,9 C 16,1 km/h (3 Bft) 100,00 %
25.05.2016 00:23 10,2 C 94 % 1013,2 hPa 0,0 l/m 14,6 km/h (3 Bft) SW 228 0 min 0,000 mm 0,0 UV-I 0 W/m 9,3 C 5,5 C 20,9 km/h (4 Bft) 94,74 %
25.05.2016 00:24 10,2 C 94 % 1013,2 hPa 0,0 l/m 21,1 km/h (4 Bft) SW 228 0 min 0,000 mm 0,0 UV-I 0 W/m 9,3 C 3,2 C 29,0 km/h (5 Bft) 100,00 %
25.05.2016 00:25 10,2 C 94 % 1013,2 hPa 0,0 l/m 16,6 km/h (3 Bft) W 262 0 min 0,000 mm 0,0 UV-I 0 W/m 9,3 C 4,7 C 20,9 km/h (4 Bft) 95,83 %
25.05.2016 00:26 10,2 C 94 % 1013,2 hPa 0,0 l/m 16,6 km/h (3 Bft) W-SW 238 0 min 0,000 mm 0,0 UV-I 0 W/m 9,3 C 4,7 C 22,5 km/h (4 Bft) 92,31 %
25.05.2016 00:27 10,2 C 94 % 1013,2 hPa 0,0 l/m 16,9 km/h (3 Bft) SW 232 0 min 0,000 mm 0,0 UV-I 0 W/m 9,3 C 4,6 C 25,7 km/h (4 Bft) 100,00 %
25.05.2016 00:28 10,2 C 94 % 1013,2 hPa 0,0 l/m 12,0 km/h (2 Bft) W-SW 258 0 min 0,000 mm 0,0 UV-I 0 W/m 9,3 C 6,7 C 19,3 km/h (3 Bft) 91,67 %
25.05.2016 00:29 10,2 C 94 % 1013,1 hPa 0,0 l/m 19,9 km/h (4 Bft) SW 234 0 min 0,000 mm 0,0 UV-I 0 W/m 9,3 C 3,6 C 25,7 km/h (4 Bft) 92,86 %
25.05.2016 00:30 10,2 C 94 % 1013,1 hPa 0,0 l/m 15,1 km/h (3 Bft) SW 225 0 min 0,000 mm 0,0 UV-I 0 W/m 9,3 C 5,3 C 19,3 km/h (3 Bft) 100,00 %
25.05.2016 00:31 10,2 C 94 % 1013,1 hPa 0,0 l/m 14,2 km/h (3 Bft) SW 221 0 min 0,000 mm 0,0 UV-I 0 W/m 9,3 C 5,7 C 20,9 km/h (4 Bft) 100,00 %
25.05.2016 00:32 10,2 C 94 % 1013,1 hPa 0,0 l/m 17,9 km/h (3 Bft) W-SW 254 0 min 0,000 mm 0,0 UV-I 0 W/m 9,3 C 4,3 C 24,1 km/h (4 Bft) 96,69 %
25.05.2016 00:33 10,2 C 94 % 1013,1 hPa 0,0 l/m 21,0 km/h (4 Bft) SW 222 0 min 0,000 mm 0,0 UV-I 0 W/m 9,3 C 3,2 C 30,6 km/h (5 Bft) 95,45 %
25.05.2016 00:34 10,2 C 94 % 1013,0 hPa 0,0 l/m 20,0 km/h (4 Bft) W 268 0 min 0,000 mm 0,0 UV-I 0 W/m 9,3 C 3,5 C 25,7 km/h (4 Bft) 100,00 %
25.05.2016 00:35 10,2 C 94 % 1013,1 hPa 0,0 l/m 18,5 km/h (3 Bft) SW 228 0 min 0,000 mm 0,0 UV-I 0 W/m 9,3 C 4,0 C 25,7 km/h (4 Bft) 85,71 %
25.05.2016 00:36 10,2 C 94 % 1013,1 hPa 0,0 l/m 15,4 km/h (3 Bft) SW 221 0 min 0,000 mm 0,0 UV-I 0 W/m 9,3 C 5,2 C 20,9 km/h (4 Bft) 96,30 %
25.05.2016 00:37 10,2 C 94 % 1013,1 hPa 0,0 l/m 18,6 km/h (3 Bft) SW 229 0 min 0,000 mm 0,0 UV-I 0 W/m 9,3 C 4,0 C 25,7 km/h (4 Bft) 96,15 %
25.05.2016 00:38 10,2 C 94 % 1013,1 hPa 0,0 l/m 19,9 km/h (4 Bft) SW 232 0 min 0,000 mm 0,0 UV-I 0 W/m 9,3 C 3,6 C 24,1 km/h (4 Bft) 100,00 %
25.05.2016 00:39 10,2 C 94 % 1013,1 hPa 0,0 l/m 19,0 km/h (3 Bft) W-SW 238 0 min 0,000 mm 0,0 UV-I 0 W/m 9,3 C 3,9 C 24,1 km/h (4 Bft) 100,00 %
25.05.2016 00:40 10,2 C 94 % 1013,1 hPa 0,0 l/m 16,1 km/h (3 Bft) W-SW 248 0 min 0,000 mm 0,0 UV-I 0 W/m 9,3 C 4,9 C 22,5 km/h (4 Bft) 100,00 %
25.05.2016 00:41 10,2 C 94 % 1013,1 hPa 0,0 l/m 16,7 km/h (3 Bft) W-SW 242 0 min 0,000 mm 0,0 UV-I 0 W/m 9,3 C 4,7 C 20,9 km/h (4 Bft) 92,31 %
25.05.2016 00:42 10,2 C 94 % 1013,1 hPa 0,0 l/m 15,8 km/h (3 Bft) W-SW 248 0 min 0,000 mm 0,0 UV-I 0 W/m 9,3 C 5,1 C 19,3 km/h (3 Bft) 100,00 %
25.05.2016 00:43 10,2 C 94 % 1013,1 hPa 0,0 l/m 17,5 km/h (3 Bft) SW 225 0 min 0,000 mm 0,0 UV-I 0 W/m 9,3 C 4,4 C 27,4 km/h (4 Bft) 100,00 %
25.05.2016 00:44 10,2 C 94 % 1013,1 hPa 0,0 l/m 16,7 km/h (3 Bft) SW 229 0 min 0,000 mm 0,0 UV-I 0 W/m 9,3 C 4,7 C 20,9 km/h (4 Bft) 100,00 %
25.05.2016 00:45 10,2 C 94 % 1013,1 hPa 0,0 l/m 17,2 km/h (3 Bft) W-SW 248 0 min 0,000 mm 0,0 UV-I 0 W/m 9,3 C 4,5 C 22,5 km/h (4 Bft) 100,00 %
25.05.2016 00:46 10,2 C 94 % 1013,1 hPa 0,0 l/m 12,1 km/h (2 Bft) SW 224 0 min 0,000 mm 0,0 UV-I 0 W/m 9,3 C 6,7 C 16,1 km/h (3 Bft) 96,15 %
25.05.2016 00:47 10,2 C 94 % 1013,1 hPa 0,0 l/m 14,5 km/h (3 Bft) SW 235 0 min 0,000 mm 0,0 UV-I 0 W/m 9,3 C 5,6 C 20,9 km/h (4 Bft) 100,00 %
25.05.2016 00:48 10,2 C 94 % 1013,2 hPa 0,0 l/m 22,0 km/h (4 Bft) W-SW 248 0 min 0,000 mm 0,0 UV-I 0 W/m 9,3 C 2,9 C 29,0 km/h (5 Bft) 92,31 %
25.05.2016 00:49 10,2 C 94 % 1013,1 hPa 0,0 l/m 21,0 km/h (4 Bft) S-SW 212 0 min 0,000 mm 0,0 UV-I 0 W/m 9,3 C 3,2 C 25,7 km/h (4 Bft) 100,00 %
25.05.2016 00:50 10,2 C 94 % 1013,2 hPa 0,0 l/m 19,6 km/h (3 Bft) SW 226 0 min 0,000 mm 0,0 UV-I 0 W/m 9,3 C 3,7 C 24,1 km/h (4 Bft) 100,00 %
25.05.2016 00:51 10,2 C 94 % 1013,2 hPa 0,0 l/m 18,5 km/h (3 Bft) W-SW 237 0 min 0,000 mm 0,0 UV-I 0 W/m 9,3 C 4,0 C 24,1 km/h (4 Bft) 100,00 %
25.05.2016 00:52 10,2 C 94 % 1013,2 hPa 0,0 l/m 15,1 km/h (3 Bft) W 275 0 min 0,000 mm 0,0 UV-I 0 W/m 9,3 C 5,3 C 20,9 km/h (4 Bft) 100,00 %
25.05.2016 00:53 10,2 C 94 % 1013,2 hPa 0,0 l/m 17,7 km/h (3 Bft) W-SW 244 0 min 0,000 mm 0,0 UV-I 0 W/m 9,3 C 4,3 C 25,7 km/h (4 Bft) 100,00 %
25.05.2016 00:54 10,2 C 94 % 1013,2 hPa 0,0 l/m 16,6 km/h (3 Bft) W-SW 254 0 min 0,000 mm 0,0 UV-I 0 W/m 9,3 C 4,7 C 22,5 km/h (4 Bft) 95,65 %
25.05.2016 00:55 10,2 C 94 % 1013,2 hPa 0,0 l/m 14,3 km/h (3 Bft) SW 230 0 min 0,000 mm 0,0 UV-I 0 W/m 9,3 C 5,7 C 19,3 km/h (3 Bft) 100,00 %
25.05.2016 00:56 10,2 C 94 % 1013,2 hPa 0,0 l/m 18,2 km/h (3 Bft) SW 227 0 min 0,000 mm 0,0 UV-I 0 W/m 9,3 C 4,2 C 25,7 km/h (4 Bft) 100,00 %
25.05.2016 00:57 10,2 C 94 % 1013,2 hPa 0,0 l/m 16,2 km/h (3 Bft) W-SW 248 0 min 0,000 mm 0,0 UV-I 0 W/m 9,3 C 4,9 C 22,5 km/h (4 Bft) 95,83 %
25.05.2016 00:58 10,2 C 94 % 1013,2 hPa 0,0 l/m 15,8 km/h (3 Bft) S-SW 198 0 min 0,000 mm 0,0 UV-I 0 W/m 9,3 C 5,1 C 22,5 km/h (4 Bft) 100,00 %
25.05.2016 00:59 10,2 C 94 % 1013,2 hPa 0,0 l/m 18,1 km/h (3 Bft) SW 231 0 min 0,000 mm 0,0 UV-I 0 W/m 9,3 C 4,2 C 22,5 km/h (4 Bft) 100,00 %
25.05.2016 01:00 10,2 C 94 % 1013,2 hPa 0,0 l/m 15,6 km/h (3 Bft) SW 216 0 min 0,025 mm 0,0 UV-I 0 W/m 9,3 C 5,1 C 20,9 km/h (4 Bft) 100,00 %
25.05.2016 01:02 10,2 C 94 % 1013,2 hPa 0,0 l/m 15,4 km/h (3 Bft) W-SW 238 0 min 0,000 mm 0,0 UV-I 0 W/m 9,3 C 5,2 C 22,5 km/h (4 Bft) 100,00 %
25.05.2016 01:03 10,2 C 94 % 1013,1 hPa 0,0 l/m 17,5 km/h (3 Bft) SW 229 0 min 0,000 mm 0,0 UV-I 0 W/m 9,3 C 4,4 C 25,7 km/h (4 Bft) 96,15 %
25.05.2016 01:04 10,2 C 94 % 1013,1 hPa 0,0 l/m 19,7 km/h (3 Bft) S-SW 213 0 min 0,000 mm 0,0 UV-I 0 W/m 9,3 C 3,6 C 25,7 km/h (4 Bft) 100,00 %
25.05.2016 01:05 10,2 C 94 % 1013,1 hPa 0,0 l/m 20,2 km/h (4 Bft) W 260 0 min 0,000 mm 0,0 UV-I 0 W/m 9,3 C 3,5 C 24,1 km/h (4 Bft) 100,00 %
25.05.2016 01:06 10,2 C 94 % 1013,1 hPa 0,0 l/m 17,9 km/h (3 Bft) SW 233 0 min 0,000 mm 0,0 UV-I 0 W/m 9,3 C 4,3 C 22,5 km/h (4 Bft) 100,00 %
25.05.2016 01:07 10,2 C 94 % 1013,1 hPa 0,0 l/m 19,8 km/h (3 Bft) N 360 0 min 0,000 mm 0,0 UV-I 0 W/m 9,3 C 3,6 C 30,6 km/h (5 Bft) 100,00 %
25.05.2016 01:08 10,2 C 94 % 1013,1 hPa 0,0 l/m 14,5 km/h (3 Bft) SW 219 0 min 0,000 mm 0,0 UV-I 0 W/m 9,3 C 5,6 C 17,7 km/h (3 Bft) 100,00 %
25.05.2016 01:09 10,2 C 94 % 1013,1 hPa 0,0 l/m 15,6 km/h (3 Bft) W 267 0 min 0,000 mm 0,0 UV-I 0 W/m 9,3 C 5,1 C 20,9 km/h (4 Bft) 100,00 %
25.05.2016 01:10 10,2 C 94 % 1013,1 hPa 0,0 l/m 16,5 km/h (3 Bft) S-SW 210 0 min 0,000 mm 0,0 UV-I 0 W/m 9,3 C 4,8 C 22,5 km/h (4 Bft) 100,00 %
25.05.2016 01:11 10,2 C 94 % 1013,1 hPa 0,0 l/m 18,8 km/h (3 Bft) W-SW 254 0 min 0,000 mm 0,0 UV-I 0 W/m 9,3 C 3,9 C 24,1 km/h (4 Bft) 100,00 %
25.05.2016 01:12 10,2 C 94 % 1013,1 hPa 0,0 l/m 12,3 km/h (3 Bft) W-SW 246 0 min 0,000 mm 0,0 UV-I 0 W/m 9,3 C 6,6 C 17,7 km/h (3 Bft) 100,00 %
25.05.2016 01:13 10,2 C 94 % 1013,1 hPa 0,0 l/m 14,8 km/h (3 Bft) W-SW 246 0 min 0,000 mm 0,0 UV-I 0 W/m 9,3 C 5,5 C 20,9 km/h (4 Bft) 100,00 %
25.05.2016 01:14 10,2 C 94 % 1013,2 hPa 0,0 l/m 17,1 km/h (3 Bft) S-SW 211 0 min 0,000 mm 0,0 UV-I 0 W/m 9,3 C 4,5 C 20,9 km/h (4 Bft) 100,00 %
25.05.2016 01:15 10,2 C 94 % 1013,2 hPa 0,0 l/m 16,6 km/h (3 Bft) SW 231 0 min 0,000 mm 0,0 UV-I 0 W/m 9,3 C 4,7 C 25,7 km/h (4 Bft) 100,00 %
25.05.2016 01:16 10,2 C 94 % 1013,2 hPa 0,0 l/m 16,0 km/h (3 Bft) W-SW 240 0 min 0,000 mm 0,0 UV-I 0 W/m 9,3 C 5,0 C 19,3 km/h (3 Bft) 100,00 %
25.05.2016 01:17 10,2 C 94 % 1013,2 hPa 0,0 l/m 12,3 km/h (3 Bft) S-SW 210 0 min 0,000 mm 0,0 UV-I 0 W/m 9,3 C 6,6 C 17,7 km/h (3 Bft) 100,00 %
25.05.2016 01:18 10,2 C 94 % 1013,2 hPa 0,0 l/m 14,1 km/h (3 Bft) SW 228 0 min 0,000 mm 0,0 UV-I 0 W/m 9,3 C 5,8 C 17,7 km/h (3 Bft) 100,00 %
25.05.2016 01:19 10,2 C 94 % 1013,2 hPa 0,0 l/m 17,6 km/h (3 Bft) W-SW 253 0 min 0,000 mm 0,0 UV-I 0 W/m 9,3 C 4,4 C 20,9 km/h (4 Bft) 97,91 %
25.05.2016 01:20 10,2 C 94 % 1013,2 hPa 0,0 l/m 13,9 km/h (3 Bft) SW 223 0 min 0,000 mm 0,0 UV-I 0 W/m 9,3 C 5,8 C 19,3 km/h (3 Bft) 100,00 %
25.05.2016 01:21 10,2 C 94 % 1013,2 hPa 0,0 l/m 16,4 km/h (3 Bft) W-SW 248 0 min 0,000 mm 0,0 UV-I 0 W/m 9,3 C 4,8 C 24,1 km/h (4 Bft) 100,00 %
25.05.2016 01:22 10,2 C 94 % 1013,1 hPa 0,0 l/m 15,3 km/h (3 Bft) SW 215 0 min 0,000 mm 0,0 UV-I 0 W/m 9,3 C 5,3 C 20,9 km/h (4 Bft) 100,00 %
25.05.2016 01:23 10,2 C 94 % 1013,1 hPa 0,0 l/m 13,6 km/h (3 Bft) W-SW 256 0 min 0,000 mm 0,0 UV-I 0 W/m 9,3 C 6,0 C 22,5 km/h (4 Bft) 100,00 %
25.05.2016 01:24 10,2 C 94 % 1013,1 hPa 0,0 l/m 15,8 km/h (3 Bft) SW 236 0 min 0,000 mm 0,0 UV-I 0 W/m 9,3 C 5,1 C 25,7 km/h (4 Bft) 100,00 %
25.05.2016 01:25 10,2 C 94 % 1013,1 hPa 0,0 l/m 22,1 km/h (4 Bft) SW 227 0 min 0,000 mm 0,0 UV-I 0 W/m 9,3 C 2,9 C 29,0 km/h (5 Bft) 100,00 %
25.05.2016 01:26 10,2 C 94 % 1013,1 hPa 0,0 l/m 22,1 km/h (4 Bft) W-SW 252 0 min 0,000 mm 0,0 UV-I 0 W/m 9,3 C 2,9 C 29,0 km/h (5 Bft) 100,00 %
25.05.2016 01:27 10,2 C 94 % 1013,1 hPa 0,0 l/m 15,3 km/h (3 Bft) W-SW 257 0 min 0,000 mm 0,0 UV-I 0 W/m 9,3 C 5,3 C 20,9 km/h (4 Bft) 100,00 %
25.05.2016 01:28 10,2 C 94 % 1013,0 hPa 0,0 l/m 20,1 km/h (4 Bft) SW 235 0 min 0,000 mm 0,0 UV-I 0 W/m 9,3 C 3,5 C 27,4 km/h (4 Bft) 100,00 %
25.05.2016 01:29 10,2 C 94 % 1013,0 hPa 0,0 l/m 17,0 km/h (3 Bft) SW 225 0 min 0,000 mm 0,0 UV-I 0 W/m 9,3 C 4,6 C 25,7 km/h (4 Bft) 100,00 %
25.05.2016 01:30 10,2 C 94 % 1013,1 hPa 0,0 l/m 18,1 km/h (3 Bft) S-SW 211 0 min 0,000 mm 0,0 UV-I 0 W/m 9,3 C 4,2 C 22,5 km/h (4 Bft) 100,00 %
25.05.2016 01:31 10,2 C 94 % 1013,1 hPa 0,0 l/m 19,7 km/h (3 Bft) W-SW 257 0 min 0,000 mm 0,0 UV-I 0 W/m 9,3 C 3,6 C 29,0 km/h (5 Bft) 100,00 %
25.05.2016 01:32 10,2 C 94 % 1013,0 hPa 0,0 l/m 14,3 km/h (3 Bft) SW 231 0 min 0,000 mm 0,0 UV-I 0 W/m 9,3 C 5,7 C 20,9 km/h (4 Bft) 100,00 %
25.05.2016 01:33 10,2 C 94 % 1013,0 hPa 0,0 l/m 17,1 km/h (3 Bft) W-SW 257 0 min 0,000 mm 0,0 UV-I 0 W/m 9,3 C 4,5 C 22,5 km/h (4 Bft) 100,00 %
25.05.2016 01:34 10,2 C 94 % 1013,0 hPa 0,0 l/m 17,3 km/h (3 Bft) S-SW 209 0 min 0,000 mm 0,0 UV-I 0 W/m 9,3 C 4,5 C 22,5 km/h (4 Bft) 100,00 %
25.05.2016 01:35 10,2 C 94 % 1013,0 hPa 0,0 l/m 18,5 km/h (3 Bft) S-SW 200 0 min 0,000 mm 0,0 UV-I 0 W/m 9,3 C 4,0 C 22,5 km/h (4 Bft) 100,00 %
25.05.2016 01:36 10,2 C 94 % 1013,0 hPa 0,0 l/m 16,6 km/h (3 Bft) W-SW 241 0 min 0,000 mm 0,0 UV-I 0 W/m 9,3 C 4,7 C 20,9 km/h (4 Bft) 100,00 %
25.05.2016 01:37 10,2 C 94 % 1013,0 hPa 0,0 l/m 14,2 km/h (3 Bft) SW 226 0 min 0,000 mm 0,0 UV-I 0 W/m 9,3 C 5,7 C 20,9 km/h (4 Bft) 100,00 %
25.05.2016 01:38 10,2 C 94 % 1012,9 hPa 0,0 l/m 14,3 km/h (3 Bft) SW 222 0 min 0,000 mm 0,0 UV-I 0 W/m 9,3 C 5,7 C 20,9 km/h (4 Bft) 95,65 %
25.05.2016 01:39 10,2 C 94 % 1012,9 hPa 0,0 l/m 18,9 km/h (3 Bft) SW 233 0 min 0,000 mm 0,0 UV-I 0 W/m 9,3 C 3,9 C 24,1 km/h (4 Bft) 100,00 %
25.05.2016 01:40 10,2 C 94 % 1012,9 hPa 0,0 l/m 19,8 km/h (3 Bft) NW 306 0 min 0,000 mm 0,0 UV-I 0 W/m 9,3 C 3,6 C 27,4 km/h (4 Bft) 100,00 %
25.05.2016 01:41 10,2 C 94 % 1012,9 hPa 0,0 l/m 20,1 km/h (4 Bft) W-SW 257 0 min 0,000 mm 0,0 UV-I 0 W/m 9,3 C 3,5 C 24,1 km/h (4 Bft) 100,00 %
25.05.2016 01:42 10,2 C 94 % 1012,9 hPa 0,0 l/m 18,5 km/h (3 Bft) W 271 0 min 0,000 mm 0,0 UV-I 0 W/m 9,3 C 4,0 C 24,1 km/h (4 Bft) 100,00 %
25.05.2016 01:43 10,2 C 94 % 1012,9 hPa 0,0 l/m 17,9 km/h (3 Bft) W-SW 244 0 min 0,000 mm 0,0 UV-I 0 W/m 9,3 C 4,3 C 25,7 km/h (4 Bft) 100,00 %
25.05.2016 01:44 10,2 C 94 % 1013,0 hPa 0,0 l/m 15,0 km/h (3 Bft) W-SW 255 0 min 0,000 mm 0,0 UV-I 0 W/m 9,3 C 5,4 C 20,9 km/h (4 Bft) 100,00 %
25.05.2016 01:45 10,2 C 94 % 1013,0 hPa 0,0 l/m 16,8 km/h (3 Bft) W-SW 239 0 min 0,000 mm 0,0 UV-I 0 W/m 9,3 C 4,7 C 25,7 km/h (4 Bft) 95,65 %
25.05.2016 01:46 10,2 C 94 % 1013,0 hPa 0,0 l/m 17,4 km/h (3 Bft) W-SW 256 0 min 0,000 mm 0,0 UV-I 0 W/m 9,3 C 4,4 C 24,1 km/h (4 Bft) 100,00 %
25.05.2016 01:47 10,2 C 94 % 1013,0 hPa 0,0 l/m 19,7 km/h (3 Bft) W 263 0 min 0,000 mm 0,0 UV-I 0 W/m 9,3 C 3,6 C 30,6 km/h (5 Bft) 100,00 %
25.05.2016 01:48 10,2 C 94 % 1013,0 hPa 0,0 l/m 21,1 km/h (4 Bft) W-SW 252 0 min 0,000 mm 0,0 UV-I 0 W/m 9,3 C 3,2 C 32,2 km/h (5 Bft) 100,00 %
25.05.2016 01:49 10,2 C 94 % 1013,0 hPa 0,0 l/m 18,4 km/h (3 Bft) W-SW 258 0 min 0,000 mm 0,0 UV-I 0 W/m 9,3 C 4,1 C 24,1 km/h (4 Bft) 100,00 %
25.05.2016 01:50 10,2 C 94 % 1013,0 hPa 0,0 l/m 14,8 km/h (3 Bft) W-SW 255 0 min 0,000 mm 0,0 UV-I 0 W/m 9,3 C 5,5 C 19,3 km/h (3 Bft) 100,00 %
25.05.2016 01:51 10,2 C 94 % 1013,0 hPa 0,0 l/m 18,1 km/h (3 Bft) SW 225 0 min 0,000 mm 0,0 UV-I 0 W/m 9,3 C 4,2 C 25,7 km/h (4 Bft) 100,00 %
25.05.2016 01:52 10,2 C 94 % 1013,0 hPa 0,0 l/m 17,0 km/h (3 Bft) W 261 0 min 0,000 mm 0,0 UV-I 0 W/m 9,3 C 4,6 C 25,7 km/h (4 Bft) 100,00 %
25.05.2016 01:53 10,2 C 94 % 1013,1 hPa 0,0 l/m 18,7 km/h (3 Bft) W-SW 253 0 min 0,000 mm 0,0 UV-I 0 W/m 9,3 C 4,0 C 25,7 km/h (4 Bft) 100,00 %
25.05.2016 01:54 10,2 C 94 % 1013,1 hPa 0,0 l/m 16,3 km/h (3 Bft) W-SW 242 0 min 0,000 mm 0,0 UV-I 0 W/m 9,3 C 4,9 C 25,7 km/h (4 Bft) 100,00 %
25.05.2016 01:55 10,2 C 94 % 1013,1 hPa 0,0 l/m 25,1 km/h (4 Bft) W 259 0 min 0,000 mm 0,0 UV-I 0 W/m 9,3 C 2,1 C 30,6 km/h (5 Bft) 100,00 %
25.05.2016 01:56 10,2 C 94 % 1013,0 hPa 0,0 l/m 15,4 km/h (3 Bft) W-SW 244 0 min 0,000 mm 0,0 UV-I 0 W/m 9,3 C 5,2 C 19,3 km/h (3 Bft) 100,00 %
25.05.2016 01:57 10,2 C 94 % 1013,1 hPa 0,0 l/m 11,9 km/h (2 Bft) W-SW 240 0 min 0,000 mm 0,0 UV-I 0 W/m 9,3 C 6,8 C 16,1 km/h (3 Bft) 100,00 %
25.05.2016 01:58 10,2 C 94 % 1013,1 hPa 0,0 l/m 10,5 km/h (2 Bft) W-SW 241 0 min 0,000 mm 0,0 UV-I 0 W/m 9,3 C 7,5 C 16,1 km/h (3 Bft) 100,00 %
25.05.2016 01:59 10,2 C 94 % 1013,1 hPa 0,0 l/m 16,3 km/h (3 Bft) SW 218 0 min 0,000 mm 0,0 UV-I 0 W/m 9,3 C 4,9 C 20,9 km/h (4 Bft) 100,00 %
25.05.2016 02:00 10,2 C 94 % 1013,1 hPa 0,0 l/m 14,4 km/h (3 Bft) S-SW 213 0 min 0,000 mm 0,0 UV-I 0 W/m 9,3 C 5,6 C 22,5 km/h (4 Bft) 96,15 %
25.05.2016 02:02 10,2 C 94 % 1013,2 hPa 0,0 l/m 12,4 km/h (3 Bft) W-SW 250 0 min 0,000 mm 0,0 UV-I 0 W/m 9,3 C 6,5 C 19,3 km/h (3 Bft) 100,00 %
25.05.2016 02:03 10,2 C 94 % 1013,1 hPa 0,0 l/m 16,3 km/h (3 Bft) W-SW 254 0 min 0,000 mm 0,0 UV-I 0 W/m 9,3 C 4,9 C 22,5 km/h (4 Bft) 100,00 %
25.05.2016 02:04 10,2 C 94 % 1013,1 hPa 0,0 l/m 12,9 km/h (3 Bft) W-SW 250 0 min 0,000 mm 0,0 UV-I 0 W/m 9,3 C 6,3 C 22,5 km/h (4 Bft) 95,83 %
25.05.2016 02:05 10,2 C 94 % 1013,1 hPa 0,0 l/m 14,6 km/h (3 Bft) W-SW 238 0 min 0,000 mm 0,0 UV-I 0 W/m 9,3 C 5,5 C 20,9 km/h (4 Bft) 100,00 %
25.05.2016 02:06 10,2 C 94 % 1013,1 hPa 0,0 l/m 12,0 km/h (2 Bft) W-SW 244 0 min 0,000 mm 0,0 UV-I 0 W/m 9,3 C 6,7 C 17,7 km/h (3 Bft) 100,00 %
25.05.2016 02:07 10,2 C 94 % 1013,1 hPa 0,0 l/m 15,3 km/h (3 Bft) SW 234 0 min 0,000 mm 0,0 UV-I 0 W/m 9,3 C 5,3 C 17,7 km/h (3 Bft) 96,67 %
25.05.2016 02:08 10,2 C 94 % 1013,1 hPa 0,0 l/m 14,5 km/h (3 Bft) SW 218 0 min 0,000 mm 0,0 UV-I 0 W/m 9,3 C 5,6 C 19,3 km/h (3 Bft) 96,55 %
25.05.2016 02:09 10,2 C 94 % 1013,1 hPa 0,0 l/m 11,8 km/h (2 Bft) W-SW 244 0 min 0,000 mm 0,0 UV-I 0 W/m 9,3 C 6,8 C 16,1 km/h (3 Bft) 93,33 %
25.05.2016 02:10 10,2 C 94 % 1013,1 hPa 0,0 l/m 13,5 km/h (3 Bft) W-SW 244 0 min 0,000 mm 0,0 UV-I 0 W/m 9,3 C 6,0 C 17,7 km/h (3 Bft) 96,55 %
25.05.2016 02:11 10,2 C 94 % 1013,1 hPa 0,0 l/m 13,2 km/h (3 Bft) W-SW 240 0 min 0,000 mm 0,0 UV-I 0 W/m 9,3 C 6,2 C 20,9 km/h (4 Bft) 98,49 %
25.05.2016 02:12 10,2 C 94 % 1013,1 hPa 0,0 l/m 14,7 km/h (3 Bft) W-SW 248 0 min 0,000 mm 0,0 UV-I 0 W/m 9,3 C 5,5 C 19,3 km/h (3 Bft) 97,56 %
25.05.2016 02:13 10,2 C 94 % 1013,0 hPa 0,0 l/m 12,0 km/h (2 Bft) W-SW 254 0 min 0,000 mm 0,0 UV-I 0 W/m 9,3 C 6,7 C 16,1 km/h (3 Bft) 100,00 %
25.05.2016 02:14 10,2 C 94 % 1013,1 hPa 0,0 l/m 11,7 km/h (2 Bft) W-SW 237 0 min 0,000 mm 0,0 UV-I 0 W/m 9,3 C 6,9 C 14,5 km/h (3 Bft) 91,30 %
25.05.2016 02:15 10,2 C 94 % 1013,1 hPa 0,0 l/m 14,7 km/h (3 Bft) SW 236 0 min 0,000 mm 0,0 UV-I 0 W/m 9,3 C 5,5 C 17,7 km/h (3 Bft) 100,00 %
25.05.2016 02:16 10,2 C 94 % 1013,1 hPa 0,0 l/m 10,5 km/h (2 Bft) SW 222 0 min 0,000 mm 0,0 UV-I 0 W/m 9,3 C 7,5 C 14,5 km/h (3 Bft) 96,15 %
25.05.2016 02:17 10,2 C 94 % 1013,1 hPa 0,0 l/m 14,6 km/h (3 Bft) W-SW 248 0 min 0,000 mm 0,0 UV-I 0 W/m 9,3 C 5,5 C 17,7 km/h (3 Bft) 100,00 %
25.05.2016 02:18 10,2 C 94 % 1013,2 hPa 0,0 l/m 13,3 km/h (3 Bft) SW 229 0 min 0,000 mm 0,0 UV-I 0 W/m 9,3 C 6,1 C 20,9 km/h (4 Bft) 96,15 %
25.05.2016 02:19 10,2 C 94 % 1013,2 hPa 0,0 l/m 13,6 km/h (3 Bft) W-SW 254 0 min 0,000 mm 0,0 UV-I 0 W/m 9,3 C 6,0 C 17,7 km/h (3 Bft) 96,30 %
25.05.2016 02:20 10,2 C 94 % 1013,1 hPa 0,0 l/m 9,5 km/h (2 Bft) SW 215 0 min 0,000 mm 0,0 UV-I 0 W/m 9,3 C 8,1 C 11,3 km/h (2 Bft) 100,00 %
25.05.2016 02:21 10,2 C 94 % 1013,1 hPa 0,0 l/m 9,8 km/h (2 Bft) SW 226 0 min 0,000 mm 0,0 UV-I 0 W/m 9,3 C 7,9 C 16,1 km/h (3 Bft) 96,15 %
25.05.2016 02:22 10,2 C 94 % 1013,1 hPa 0,0 l/m 11,7 km/h (2 Bft) W-SW 246 0 min 0,000 mm 0,0 UV-I 0 W/m 9,3 C 6,9 C 16,1 km/h (3 Bft) 100,00 %
25.05.2016 02:23 10,2 C 94 % 1013,1 hPa 0,0 l/m 11,5 km/h (2 Bft) W 259 0 min 0,000 mm 0,0 UV-I 0 W/m 9,3 C 7,0 C 16,1 km/h (3 Bft) 92,31 %
25.05.2016 02:24 10,2 C 94 % 1013,1 hPa 0,0 l/m 13,8 km/h (3 Bft) SW 216 0 min 0,000 mm 0,0 UV-I 0 W/m 9,3 C 5,9 C 19,3 km/h (3 Bft) 100,00 %
25.05.2016 02:25 10,2 C 94 % 1013,1 hPa 0,0 l/m 12,7 km/h (3 Bft) W-SW 239 0 min 0,000 mm 0,0 UV-I 0 W/m 9,3 C 6,4 C 17,7 km/h (3 Bft) 88,46 %
25.05.2016 02:26 10,2 C 94 % 1013,1 hPa 0,0 l/m 10,9 km/h (2 Bft) W-SW 250 0 min 0,000 mm 0,0 UV-I 0 W/m 9,3 C 7,3 C 16,1 km/h (3 Bft) 95,83 %
25.05.2016 02:27 10,2 C 94 % 1013,1 hPa 0,0 l/m 9,3 km/h (2 Bft) S-SW 212 0 min 0,000 mm 0,0 UV-I 0 W/m 9,3 C 8,2 C 14,5 km/h (3 Bft) 100,00 %
25.05.2016 02:28 10,2 C 94 % 1013,1 hPa 0,0 l/m 10,5 km/h (2 Bft) SW 219 0 min 0,000 mm 0,0 UV-I 0 W/m 9,3 C 7,5 C 12,9 km/h (3 Bft) 100,00 %
25.05.2016 02:29 10,2 C 94 % 1013,1 hPa 0,0 l/m 10,5 km/h (2 Bft) S-SW 213 0 min 0,000 mm 0,0 UV-I 0 W/m 9,3 C 7,5 C 14,5 km/h (3 Bft) 96,15 %
25.05.2016 02:30 10,2 C 94 % 1013,1 hPa 0,0 l/m 6,2 km/h (2 Bft) W-SW 238 0 min 0,000 mm 0,0 UV-I 0 W/m 9,3 C 10,2 C 11,3 km/h (2 Bft) 96,30 %
25.05.2016 02:31 10,2 C 94 % 1013,1 hPa 0,0 l/m 10,4 km/h (2 Bft) S-SW 202 0 min 0,000 mm 0,0 UV-I 0 W/m 9,3 C 7,6 C 17,7 km/h (3 Bft) 100,00 %
25.05.2016 02:32 10,2 C 94 % 1013,1 hPa 0,0 l/m 10,4 km/h (2 Bft) W-SW 238 0 min 0,000 mm 0,0 UV-I 0 W/m 9,3 C 7,6 C 12,9 km/h (3 Bft) 91,67 %
25.05.2016 02:33 10,2 C 94 % 1013,1 hPa 0,0 l/m 9,9 km/h (2 Bft) SW 224 0 min 0,000 mm 0,0 UV-I 0 W/m 9,3 C 7,9 C 12,9 km/h (3 Bft) 96,15 %
25.05.2016 02:34 10,2 C 94 % 1013,1 hPa 0,0 l/m 10,4 km/h (2 Bft) W 259 0 min 0,000 mm 0,0 UV-I 0 W/m 9,3 C 7,6 C 16,1 km/h (3 Bft) 91,67 %
25.05.2016 02:35 10,2 C 94 % 1013,1 hPa 0,0 l/m 11,3 km/h (2 Bft) SW 231 0 min 0,000 mm 0,0 UV-I 0 W/m 9,3 C 7,1 C 12,9 km/h (3 Bft) 97,56 %
25.05.2016 02:36 10,2 C 94 % 1013,1 hPa 0,0 l/m 10,3 km/h (2 Bft) S-SW 213 0 min 0,000 mm 0,0 UV-I 0 W/m 9,3 C 7,6 C 14,5 km/h (3 Bft) 100,00 %
25.05.2016 02:37 10,2 C 94 % 1013,1 hPa 0,0 l/m 10,0 km/h (2 Bft) W-SW 244 0 min 0,000 mm 0,0 UV-I 0 W/m 9,3 C 7,8 C 16,1 km/h (3 Bft) 95,65 %
25.05.2016 02:38 10,2 C 94 % 1013,1 hPa 0,0 l/m 9,4 km/h (2 Bft) SW 234 0 min 0,000 mm 0,0 UV-I 0 W/m 9,3 C 8,2 C 12,9 km/h (3 Bft) 100,00 %
25.05.2016 02:39 10,2 C 94 % 1013,1 hPa 0,0 l/m 7,8 km/h (2 Bft) W-SW 238 0 min 0,000 mm 0,0 UV-I 0 W/m 9,3 C 9,2 C 12,9 km/h (3 Bft) 95,65 %
25.05.2016 02:40 10,2 C 94 % 1013,1 hPa 0,0 l/m 12,1 km/h (2 Bft) W-SW 237 0 min 0,000 mm 0,0 UV-I 0 W/m 9,3 C 6,7 C 17,7 km/h (3 Bft) 100,00 %
25.05.2016 02:41 10,2 C 94 % 1013,1 hPa 0,0 l/m 10,5 km/h (2 Bft) SW 232 0 min 0,000 mm 0,0 UV-I 0 W/m 9,3 C 7,5 C 12,9 km/h (3 Bft) 100,00 %
25.05.2016 02:42 10,2 C 94 % 1013,1 hPa 0,0 l/m 12,8 km/h (3 Bft) SW 232 0 min 0,000 mm 0,0 UV-I 0 W/m 9,3 C 6,4 C 17,7 km/h (3 Bft) 100,00 %
25.05.2016 02:43 10,2 C 94 % 1013,1 hPa 0,0 l/m 9,3 km/h (2 Bft) W-SW 244 0 min 0,000 mm 0,0 UV-I 0 W/m 9,3 C 8,2 C 16,1 km/h (3 Bft) 96,15 %
25.05.2016 02:44 10,2 C 94 % 1013,1 hPa 0,0 l/m 14,2 km/h (3 Bft) SW 236 0 min 0,000 mm 0,0 UV-I 0 W/m 9,3 C 5,7 C 19,3 km/h (3 Bft) 100,00 %
25.05.2016 02:45 10,2 C 94 % 1013,1 hPa 0,0 l/m 10,8 km/h (2 Bft) SW 214 0 min 0,000 mm 0,0 UV-I 0 W/m 9,3 C 7,4 C 12,9 km/h (3 Bft) 100,00 %
25.05.2016 02:46 10,2 C 94 % 1013,1 hPa 0,0 l/m 10,1 km/h (2 Bft) W-SW 240 0 min 0,000 mm 0,0 UV-I 0 W/m 9,3 C 7,8 C 16,1 km/h (3 Bft) 96,15 %
25.05.2016 02:47 10,2 C 94 % 1013,1 hPa 0,0 l/m 10,0 km/h (2 Bft) S-SW 207 0 min 0,000 mm 0,0 UV-I 0 W/m 9,3 C 7,8 C 12,9 km/h (3 Bft) 100,00 %
25.05.2016 02:48 10,2 C 94 % 1013,1 hPa 0,0 l/m 11,8 km/h (2 Bft) SW 229 0 min 0,000 mm 0,0 UV-I 0 W/m 9,3 C 6,8 C 16,1 km/h (3 Bft) 100,00 %
25.05.2016 02:49 10,2 C 94 % 1013,1 hPa 0,0 l/m 14,4 km/h (3 Bft) SW 229 0 min 0,000 mm 0,0 UV-I 0 W/m 9,3 C 5,6 C 17,7 km/h (3 Bft) 100,00 %
25.05.2016 02:50 10,2 C 94 % 1013,1 hPa 0,0 l/m 12,0 km/h (2 Bft) W-SW 257 0 min 0,000 mm 0,0 UV-I 0 W/m 9,3 C 6,7 C 16,1 km/h (3 Bft) 95,65 %
25.05.2016 02:52 10,2 C 94 % 1013,2 hPa 0,0 l/m 10,6 km/h (2 Bft) SW 228 0 min 0,000 mm 0,0 UV-I 0 W/m 9,3 C 7,5 C 17,7 km/h (3 Bft) 98,31 %
25.05.2016 02:53 10,2 C 94 % 1013,1 hPa 0,0 l/m 13,3 km/h (3 Bft) W-SW 250 0 min 0,000 mm 0,0 UV-I 0 W/m 9,3 C 6,1 C 17,7 km/h (3 Bft) 100,00 %
25.05.2016 02:54 10,2 C 94 % 1013,1 hPa 0,0 l/m 12,3 km/h (3 Bft) SW 220 0 min 0,000 mm 0,0 UV-I 0 W/m 9,3 C 6,6 C 17,7 km/h (3 Bft) 100,00 %
25.05.2016 02:55 10,2 C 94 % 1013,1 hPa 0,0 l/m 11,3 km/h (2 Bft) SW 225 0 min 0,000 mm 0,0 UV-I 0 W/m 9,3 C 7,1 C 17,7 km/h (3 Bft) 97,37 %
25.05.2016 02:58 10,2 C 94 % 1013,1 hPa 0,0 l/m 9,9 km/h (2 Bft) SW 229 0 min 0,000 mm 0,0 UV-I 0 W/m 9,3 C 7,9 C 11,3 km/h (2 Bft) 94,74 %
25.05.2016 02:59 10,2 C 94 % 1013,1 hPa 0,0 l/m 12,0 km/h (2 Bft) W-SW 238 0 min 0,000 mm 0,0 UV-I 0 W/m 9,3 C 6,7 C 17,7 km/h (3 Bft) 100,00 %
25.05.2016 03:00 10,2 C 94 % 1013,1 hPa 0,0 l/m 13,0 km/h (3 Bft) W-SW 240 0 min 0,000 mm 0,0 UV-I 0 W/m 9,3 C 6,3 C 16,1 km/h (3 Bft) 100,00 %
25.05.2016 03:01 10,2 C 94 % 1013,1 hPa 0,0 l/m 12,6 km/h (3 Bft) SW 225 0 min 0,000 mm 0,0 UV-I 0 W/m 9,3 C 6,5 C 16,1 km/h (3 Bft) 95,65 %
25.05.2016 03:02 10,2 C 94 % 1013,1 hPa 0,0 l/m 13,5 km/h (3 Bft) SW 235 0 min 0,000 mm 0,0 UV-I 0 W/m 9,3 C 6,0 C 16,1 km/h (3 Bft) 100,00 %
25.05.2016 03:03 10,2 C 94 % 1013,0 hPa 0,0 l/m 14,7 km/h (3 Bft) W 262 0 min 0,000 mm 0,0 UV-I 0 W/m 9,3 C 5,5 C 17,7 km/h (3 Bft) 100,00 %
25.05.2016 03:04 10,2 C 94 % 1013,0 hPa 0,0 l/m 11,0 km/h (2 Bft) SW 225 0 min 0,000 mm 0,0 UV-I 0 W/m 9,3 C 7,3 C 16,1 km/h (3 Bft) 100,00 %
25.05.2016 03:05 10,2 C 94 % 1013,0 hPa 0,0 l/m 10,9 km/h (2 Bft) W 262 0 min 0,000 mm 0,0 UV-I 0 W/m 9,3 C 7,3 C 14,5 km/h (3 Bft) 100,00 %
25.05.2016 03:06 10,2 C 94 % 1013,0 hPa 0,0 l/m 13,8 km/h (3 Bft) W-SW 258 0 min 0,000 mm 0,0 UV-I 0 W/m 9,3 C 5,9 C 17,7 km/h (3 Bft) 100,00 %
25.05.2016 03:07 10,2 C 94 % 1013,0 hPa 0,0 l/m 9,7 km/h (2 Bft) SW 223 0 min 0,000 mm 0,0 UV-I 0 W/m 9,3 C 8,0 C 14,5 km/h (3 Bft) 100,00 %
25.05.2016 03:08 10,2 C 94 % 1013,0 hPa 0,0 l/m 13,3 km/h (3 Bft) W-SW 245 0 min 0,000 mm 0,0 UV-I 0 W/m 9,3 C 6,1 C 20,9 km/h (4 Bft) 100,00 %
25.05.2016 03:09 10,2 C 94 % 1013,0 hPa 0,0 l/m 13,4 km/h (3 Bft) W 263 0 min 0,000 mm 0,0 UV-I 0 W/m 9,3 C 6,1 C 17,7 km/h (3 Bft) 100,00 %
25.05.2016 03:10 10,2 C 94 % 1013,0 hPa 0,0 l/m 13,5 km/h (3 Bft) SW 214 0 min 0,000 mm 0,0 UV-I 0 W/m 9,3 C 6,0 C 17,7 km/h (3 Bft) 100,00 %
25.05.2016 03:11 10,2 C 94 % 1013,0 hPa 0,0 l/m 12,7 km/h (3 Bft) SW 236 0 min 0,000 mm 0,0 UV-I 0 W/m 9,3 C 6,4 C 14,5 km/h (3 Bft) 100,00 %
25.05.2016 03:12 10,2 C 94 % 1013,0 hPa 0,0 l/m 12,4 km/h (3 Bft) SW 218 0 min 0,000 mm 0,0 UV-I 0 W/m 9,3 C 6,5 C 17,7 km/h (3 Bft) 100,00 %
25.05.2016 03:13 10,2 C 94 % 1013,0 hPa 0,0 l/m 8,9 km/h (2 Bft) SW 232 0 min 0,000 mm 0,0 UV-I 0 W/m 9,3 C 8,5 C 12,9 km/h (3 Bft) 100,00 %
25.05.2016 03:14 10,2 C 94 % 1013,0 hPa 0,0 l/m 9,0 km/h (2 Bft) W 261 0 min 0,000 mm 0,0 UV-I 0 W/m 9,3 C 8,4 C 12,9 km/h (3 Bft) 100,00 %
25.05.2016 03:15 10,2 C 94 % 1012,9 hPa 0,0 l/m 10,6 km/h (2 Bft) SW 228 0 min 0,000 mm 0,0 UV-I 0 W/m 9,3 C 7,5 C 12,9 km/h (3 Bft) 100,00 %
25.05.2016 03:16 10,2 C 94 % 1012,9 hPa 0,0 l/m 12,4 km/h (3 Bft) SW 224 0 min 0,000 mm 0,0 UV-I 0 W/m 9,3 C 6,5 C 16,1 km/h (3 Bft) 100,00 %
25.05.2016 03:17 10,2 C 94 % 1012,8 hPa 0,0 l/m 10,9 km/h (2 Bft) W-SW 237 0 min 0,000 mm 0,0 UV-I 0 W/m 9,3 C 7,3 C 16,1 km/h (3 Bft) 100,00 %
25.05.2016 03:18 10,2 C 94 % 1012,9 hPa 0,0 l/m 12,1 km/h (2 Bft) SW 234 0 min 0,000 mm 0,0 UV-I 0 W/m 9,3 C 6,7 C 19,3 km/h (3 Bft) 100,00 %
25.05.2016 03:19 10,2 C 94 % 1012,9 hPa 0,0 l/m 10,3 km/h (2 Bft) S 180 0 min 0,000 mm 0,0 UV-I 0 W/m 9,3 C 7,6 C 16,1 km/h (3 Bft) 100,00 %
25.05.2016 03:20 10,2 C 94 % 1012,9 hPa 0,0 l/m 10,8 km/h (2 Bft) SW 231 0 min 0,000 mm 0,0 UV-I 0 W/m 9,3 C 7,4 C 16,1 km/h (3 Bft) 100,00 %
25.05.2016 03:21 10,2 C 94 % 1012,9 hPa 0,0 l/m 13,0 km/h (3 Bft) SW 215 0 min 0,000 mm 0,0 UV-I 0 W/m 9,3 C 6,3 C 19,3 km/h (3 Bft) 100,00 %
25.05.2016 03:22 10,2 C 94 % 1012,9 hPa 0,0 l/m 9,9 km/h (2 Bft) SW 224 0 min 0,000 mm 0,0 UV-I 0 W/m 9,3 C 7,9 C 16,1 km/h (3 Bft) 100,00 %
25.05.2016 03:23 10,2 C 94 % 1012,9 hPa 0,0 l/m 12,1 km/h (2 Bft) SW 227 0 min 0,000 mm 0,0 UV-I 0 W/m 9,3 C 6,7 C 16,1 km/h (3 Bft) 100,00 %
25.05.2016 03:24 10,2 C 94 % 1012,9 hPa 0,0 l/m 12,5 km/h (3 Bft) SW 217 0 min 0,000 mm 0,0 UV-I 0 W/m 9,3 C 6,5 C 19,3 km/h (3 Bft) 95,65 %
25.05.2016 03:25 10,2 C 94 % 1012,9 hPa 0,0 l/m 9,7 km/h (2 Bft) S-SW 196 0 min 0,000 mm 0,0 UV-I 0 W/m 9,3 C 8,0 C 16,1 km/h (3 Bft) 100,00 %
25.05.2016 03:26 10,2 C 94 % 1012,9 hPa 0,0 l/m 13,8 km/h (3 Bft) W-SW 258 0 min 0,000 mm 0,0 UV-I 0 W/m 9,3 C 5,9 C 19,3 km/h (3 Bft) 100,00 %
25.05.2016 03:27 10,2 C 94 % 1012,9 hPa 0,0 l/m 12,1 km/h (2 Bft) W-SW 242 0 min 0,000 mm 0,0 UV-I 0 W/m 9,3 C 6,7 C 14,5 km/h (3 Bft) 100,00 %
25.05.2016 03:28 10,2 C 94 % 1012,9 hPa 0,0 l/m 11,6 km/h (2 Bft) W-SW 238 0 min 0,000 mm 0,0 UV-I 0 W/m 9,3 C 6,9 C 16,1 km/h (3 Bft) 100,00 %
25.05.2016 03:29 10,2 C 94 % 1012,9 hPa 0,0 l/m 16,3 km/h (3 Bft) SW 231 0 min 0,000 mm 0,0 UV-I 0 W/m 9,3 C 4,9 C 19,3 km/h (3 Bft) 100,00 %
25.05.2016 03:30 10,2 C 94 % 1013,0 hPa 0,0 l/m 12,6 km/h (3 Bft) SW 236 0 min 0,000 mm 0,0 UV-I 0 W/m 9,3 C 6,5 C 14,5 km/h (3 Bft) 100,00 %
25.05.2016 03:31 10,2 C 94 % 1013,0 hPa 0,0 l/m 12,5 km/h (3 Bft) SW 220 0 min 0,000 mm 0,0 UV-I 0 W/m 9,3 C 6,5 C 19,3 km/h (3 Bft) 100,00 %
25.05.2016 03:32 10,2 C 94 % 1013,0 hPa 0,0 l/m 14,1 km/h (3 Bft) SW 221 0 min 0,000 mm 0,0 UV-I 0 W/m 9,3 C 5,8 C 19,3 km/h (3 Bft) 100,00 %
25.05.2016 03:33 10,2 C 94 % 1012,9 hPa 0,0 l/m 12,9 km/h (3 Bft) W-SW 247 0 min 0,000 mm 0,0 UV-I 0 W/m 9,3 C 6,3 C 17,7 km/h (3 Bft) 100,00 %
25.05.2016 03:34 10,2 C 94 % 1012,9 hPa 0,0 l/m 10,6 km/h (2 Bft) SW 234 0 min 0,000 mm 0,0 UV-I 0 W/m 9,3 C 7,5 C 14,5 km/h (3 Bft) 100,00 %
25.05.2016 03:35 10,2 C 94 % 1013,0 hPa 0,0 l/m 8,4 km/h (2 Bft) SW 236 0 min 0,000 mm 0,0 UV-I 0 W/m 9,3 C 8,8 C 12,9 km/h (3 Bft) 100,00 %
25.05.2016 03:36 10,2 C 94 % 1012,9 hPa 0,0 l/m 9,9 km/h (2 Bft) S-SW 210 0 min 0,000 mm 0,0 UV-I 0 W/m 9,3 C 7,9 C 12,9 km/h (3 Bft) 100,00 %
25.05.2016 03:37 10,2 C 94 % 1012,9 hPa 0,0 l/m 7,6 km/h (2 Bft) SW 229 0 min 0,000 mm 0,0 UV-I 0 W/m 9,3 C 9,3 C 11,3 km/h (2 Bft) 100,00 %
25.05.2016 03:38 10,2 C 94 % 1012,9 hPa 0,0 l/m 8,6 km/h (2 Bft) SW 220 0 min 0,000 mm 0,0 UV-I 0 W/m 9,3 C 8,7 C 12,9 km/h (3 Bft) 100,00 %
25.05.2016 03:39 10,2 C 95 % 1013,0 hPa 0,0 l/m 8,6 km/h (2 Bft) SW 234 0 min 0,000 mm 0,0 UV-I 0 W/m 9,4 C 8,7 C 11,3 km/h (2 Bft) 100,00 %
25.05.2016 03:40 10,1 C 95 % 1013,0 hPa 0,0 l/m 6,8 km/h (2 Bft) SW 229 0 min 0,000 mm 0,0 UV-I 0 W/m 9,3 C 9,8 C 11,3 km/h (2 Bft) 100,00 %
25.05.2016 03:41 10,1 C 95 % 1012,9 hPa 0,0 l/m 6,2 km/h (2 Bft) SW 224 0 min 0,000 mm 0,0 UV-I 0 W/m 9,3 C 10,1 C 9,7 km/h (2 Bft) 96,88 %
25.05.2016 03:42 10,1 C 95 % 1013,0 hPa 0,0 l/m 7,4 km/h (2 Bft) W-SW 253 0 min 0,000 mm 0,0 UV-I 0 W/m 9,3 C 9,4 C 11,3 km/h (2 Bft) 100,00 %
25.05.2016 03:43 10,1 C 95 % 1013,0 hPa 0,0 l/m 9,3 km/h (2 Bft) SW 223 0 min 0,000 mm 0,0 UV-I 0 W/m 9,3 C 8,1 C 12,9 km/h (3 Bft) 100,00 %
25.05.2016 03:44 10,1 C 95 % 1013,0 hPa 0,0 l/m 9,9 km/h (2 Bft) SW 217 0 min 0,000 mm 0,0 UV-I 0 W/m 9,3 C 7,8 C 12,9 km/h (3 Bft) 93,94 %
25.05.2016 03:45 10,1 C 95 % 1013,0 hPa 0,0 l/m 7,8 km/h (2 Bft) SW 216 0 min 0,000 mm 0,0 UV-I 0 W/m 9,3 C 9,1 C 9,7 km/h (2 Bft) 100,00 %
25.05.2016 03:46 10,1 C 95 % 1013,0 hPa 0,0 l/m 10,9 km/h (2 Bft) W-SW 252 0 min 0,000 mm 0,0 UV-I 0 W/m 9,3 C 7,2 C 12,9 km/h (3 Bft) 100,00 %
25.05.2016 03:47 10,1 C 95 % 1013,0 hPa 0,0 l/m 8,6 km/h (2 Bft) W-SW 241 0 min 0,000 mm 0,0 UV-I 0 W/m 9,3 C 8,6 C 14,5 km/h (3 Bft) 100,00 %
25.05.2016 03:48 10,1 C 95 % 1013,0 hPa 0,0 l/m 9,2 km/h (2 Bft) SW 219 0 min 0,000 mm 0,0 UV-I 0 W/m 9,3 C 8,2 C 12,9 km/h (3 Bft) 100,00 %
25.05.2016 03:49 10,1 C 95 % 1013,0 hPa 0,0 l/m 8,1 km/h (2 Bft) SW 217 0 min 0,000 mm 0,0 UV-I 0 W/m 9,3 C 8,9 C 11,3 km/h (2 Bft) 100,00 %
25.05.2016 03:50 10,1 C 95 % 1013,0 hPa 0,0 l/m 9,6 km/h (2 Bft) S-SW 212 0 min 0,000 mm 0,0 UV-I 0 W/m 9,3 C 7,9 C 12,9 km/h (3 Bft) 100,00 %
25.05.2016 03:51 10,1 C 95 % 1012,9 hPa 0,0 l/m 10,4 km/h (2 Bft) W-SW 239 0 min 0,000 mm 0,0 UV-I 0 W/m 9,3 C 7,5 C 14,5 km/h (3 Bft) 100,00 %
25.05.2016 03:52 10,1 C 95 % 1013,0 hPa 0,0 l/m 11,0 km/h (2 Bft) W-SW 248 0 min 0,000 mm 0,0 UV-I 0 W/m 9,3 C 7,1 C 14,5 km/h (3 Bft) 100,00 %
25.05.2016 03:53 10,1 C 95 % 1012,9 hPa 0,0 l/m 11,3 km/h (2 Bft) SW 219 0 min 0,000 mm 0,0 UV-I 0 W/m 9,3 C 7,0 C 19,3 km/h (3 Bft) 100,00 %
25.05.2016 03:54 10,1 C 95 % 1012,9 hPa 0,0 l/m 11,2 km/h (2 Bft) SW 216 0 min 0,000 mm 0,0 UV-I 0 W/m 9,3 C 7,0 C 17,7 km/h (3 Bft) 100,00 %
25.05.2016 03:55 10,2 C 95 % 1012,9 hPa 0,0 l/m 11,3 km/h (2 Bft) SW 220 0 min 0,000 mm 0,0 UV-I 0 W/m 9,4 C 7,1 C 16,1 km/h (3 Bft) 100,00 %
25.05.2016 03:56 10,2 C 95 % 1012,9 hPa 0,0 l/m 12,8 km/h (3 Bft) W 263 0 min 0,000 mm 0,0 UV-I 0 W/m 9,4 C 6,4 C 16,1 km/h (3 Bft) 100,00 %
25.05.2016 03:57 10,2 C 95 % 1012,9 hPa 0,0 l/m 9,8 km/h (2 Bft) W-SW 244 0 min 0,000 mm 0,0 UV-I 0 W/m 9,4 C 7,9 C 12,9 km/h (3 Bft) 100,00 %
25.05.2016 03:58 10,2 C 94 % 1012,9 hPa 0,0 l/m 12,7 km/h (3 Bft) SW 223 0 min 0,000 mm 0,0 UV-I 0 W/m 9,3 C 6,4 C 16,1 km/h (3 Bft) 100,00 %
25.05.2016 03:59 10,2 C 94 % 1012,9 hPa 0,0 l/m 10,9 km/h (2 Bft) W-SW 238 0 min 0,000 mm 0,0 UV-I 0 W/m 9,3 C 7,3 C 16,1 km/h (3 Bft) 100,00 %
25.05.2016 04:00 10,2 C 94 % 1012,9 hPa 0,0 l/m 11,3 km/h (2 Bft) SW 236 0 min 0,000 mm 0,0 UV-I 0 W/m 9,3 C 7,1 C 17,7 km/h (3 Bft) 100,00 %
25.05.2016 04:02 10,2 C 94 % 1012,9 hPa 0,0 l/m 10,9 km/h (2 Bft) W-SW 250 0 min 0,000 mm 0,0 UV-I 0 W/m 9,3 C 7,3 C 17,7 km/h (3 Bft) 98,00 %
25.05.2016 04:03 10,2 C 95 % 1012,9 hPa 0,0 l/m 10,4 km/h (2 Bft) SW 231 0 min 0,000 mm 0,0 UV-I 0 W/m 9,4 C 7,6 C 16,1 km/h (3 Bft) 100,00 %
25.05.2016 04:04 10,2 C 95 % 1012,9 hPa 0,0 l/m 7,6 km/h (2 Bft) SW 219 0 min 0,000 mm 0,0 UV-I 0 W/m 9,4 C 9,3 C 9,7 km/h (2 Bft) 100,00 %
25.05.2016 04:05 10,2 C 95 % 1012,9 hPa 0,0 l/m 11,3 km/h (2 Bft) W-SW 241 0 min 0,000 mm 0,0 UV-I 0 W/m 9,4 C 7,1 C 16,1 km/h (3 Bft) 100,00 %
25.05.2016 04:06 10,2 C 95 % 1012,9 hPa 0,0 l/m 10,9 km/h (2 Bft) SW 218 0 min 0,000 mm 0,0 UV-I 0 W/m 9,4 C 7,3 C 17,7 km/h (3 Bft) 100,00 %
25.05.2016 04:07 10,2 C 95 % 1012,9 hPa 0,0 l/m 11,7 km/h (2 Bft) SW 232 0 min 0,000 mm 0,0 UV-I 0 W/m 9,4 C 6,9 C 14,5 km/h (3 Bft) 100,00 %
25.05.2016 04:08 10,2 C 95 % 1013,0 hPa 0,0 l/m 10,8 km/h (2 Bft) W 262 0 min 0,000 mm 0,0 UV-I 0 W/m 9,4 C 7,4 C 17,7 km/h (3 Bft) 100,00 %
25.05.2016 04:09 10,2 C 95 % 1013,0 hPa 0,0 l/m 10,5 km/h (2 Bft) W-SW 237 0 min 0,000 mm 0,0 UV-I 0 W/m 9,4 C 7,5 C 19,3 km/h (3 Bft) 100,00 %
25.05.2016 04:10 10,2 C 95 % 1013,0 hPa 0,0 l/m 12,2 km/h (2 Bft) SW 223 0 min 0,000 mm 0,0 UV-I 0 W/m 9,4 C 6,6 C 16,1 km/h (3 Bft) 96,15 %
25.05.2016 04:11 10,2 C 95 % 1013,0 hPa 0,0 l/m 14,8 km/h (3 Bft) SW 223 0 min 0,000 mm 0,0 UV-I 0 W/m 9,4 C 5,5 C 20,9 km/h (4 Bft) 100,00 %
25.05.2016 04:12 10,2 C 95 % 1013,0 hPa 0,0 l/m 10,6 km/h (2 Bft) SW 225 0 min 0,000 mm 0,0 UV-I 0 W/m 9,4 C 7,5 C 17,7 km/h (3 Bft) 95,65 %
25.05.2016 04:13 10,2 C 95 % 1013,0 hPa 0,2 l/m 12,3 km/h (3 Bft) SW 214 0 min 0,000 mm 0,0 UV-I 0 W/m 9,4 C 6,6 C 16,1 km/h (3 Bft) 100,00 %
25.05.2016 04:14 10,2 C 95 % 1013,0 hPa 0,0 l/m 11,4 km/h (2 Bft) SW 231 0 min 0,000 mm 0,0 UV-I 0 W/m 9,4 C 7,1 C 16,1 km/h (3 Bft) 96,88 %
25.05.2016 04:15 10,2 C 95 % 1013,0 hPa 0,0 l/m 9,0 km/h (2 Bft) SW 232 0 min 0,000 mm 0,0 UV-I 0 W/m 9,4 C 8,4 C 11,3 km/h (2 Bft) 100,00 %
25.05.2016 04:16 10,2 C 95 % 1013,0 hPa 0,0 l/m 7,2 km/h (2 Bft) SW 236 0 min 0,000 mm 0,0 UV-I 0 W/m 9,4 C 9,6 C 8,0 km/h (2 Bft) 96,67 %
25.05.2016 04:17 10,2 C 95 % 1013,0 hPa 0,0 l/m 8,0 km/h (2 Bft) SW 220 0 min 0,000 mm 0,0 UV-I 0 W/m 9,4 C 9,1 C 11,3 km/h (2 Bft) 96,15 %
25.05.2016 04:18 10,2 C 95 % 1013,1 hPa 0,0 l/m 9,5 km/h (2 Bft) S-SW 211 0 min 0,000 mm 0,0 UV-I 0 W/m 9,4 C 8,1 C 12,9 km/h (3 Bft) 96,30 %
25.05.2016 04:19 10,2 C 95 % 1013,1 hPa 0,0 l/m 12,2 km/h (2 Bft) SW 230 0 min 0,000 mm 0,0 UV-I 0 W/m 9,4 C 6,6 C 16,1 km/h (3 Bft) 100,00 %
25.05.2016 04:20 10,2 C 95 % 1013,1 hPa 0,0 l/m 8,4 km/h (2 Bft) SW 230 0 min 0,000 mm 0,0 UV-I 0 W/m 9,4 C 8,8 C 12,9 km/h (3 Bft) 96,30 %
25.05.2016 04:21 10,2 C 95 % 1013,0 hPa 0,0 l/m 10,3 km/h (2 Bft) W-SW 239 0 min 0,000 mm 0,0 UV-I 0 W/m 9,4 C 7,6 C 14,5 km/h (3 Bft) 92,31 %
25.05.2016 04:22 10,2 C 95 % 1013,0 hPa 0,0 l/m 12,1 km/h (2 Bft) W-SW 250 0 min 0,000 mm 0,0 UV-I 0 W/m 9,4 C 6,7 C 16,1 km/h (3 Bft) 100,00 %
25.05.2016 04:23 10,2 C 95 % 1013,0 hPa 0,0 l/m 11,3 km/h (2 Bft) W-SW 258 0 min 0,000 mm 0,0 UV-I 0 W/m 9,4 C 7,1 C 12,9 km/h (3 Bft) 93,10 %
25.05.2016 04:24 10,2 C 95 % 1013,0 hPa 0,0 l/m 11,3 km/h (2 Bft) W-SW 253 0 min 0,000 mm 0,0 UV-I 0 W/m 9,4 C 7,1 C 14,5 km/h (3 Bft) 100,00 %
25.05.2016 04:25 10,2 C 95 % 1013,0 hPa 0,0 l/m 8,0 km/h (2 Bft) SW 235 0 min 0,000 mm 0,0 UV-I 0 W/m 9,4 C 9,1 C 12,9 km/h (3 Bft) 95,65 %
25.05.2016 04:26 10,2 C 95 % 1013,0 hPa 0,0 l/m 7,7 km/h (2 Bft) SW 229 0 min 0,000 mm 0,0 UV-I 0 W/m 9,4 C 9,3 C 11,3 km/h (2 Bft) 100,00 %
25.05.2016 04:27 10,2 C 95 % 1013,0 hPa 0,0 l/m 9,3 km/h (2 Bft) W-SW 252 0 min 0,000 mm 0,0 UV-I 0 W/m 9,4 C 8,2 C 11,3 km/h (2 Bft) 92,31 %
25.05.2016 04:28 10,2 C 95 % 1013,0 hPa 0,0 l/m 8,0 km/h (2 Bft) W-SW 246 0 min 0,000 mm 0,0 UV-I 0 W/m 9,4 C 9,1 C 11,3 km/h (2 Bft) 100,00 %
25.05.2016 04:29 10,1 C 95 % 1013,0 hPa 0,0 l/m 9,1 km/h (2 Bft) SW 223 0 min 0,000 mm 0,0 UV-I 0 W/m 9,3 C 8,2 C 12,9 km/h (3 Bft) 96,55 %
25.05.2016 04:30 10,2 C 95 % 1012,9 hPa 0,0 l/m 7,9 km/h (2 Bft) W-SW 246 0 min 0,000 mm 0,0 UV-I 0 W/m 9,4 C 9,1 C 11,3 km/h (2 Bft) 100,00 %
25.05.2016 04:31 10,1 C 95 % 1013,0 hPa 0,0 l/m 8,5 km/h (2 Bft) SW 227 0 min 0,000 mm 0,0 UV-I 0 W/m 9,3 C 8,6 C 11,3 km/h (2 Bft) 96,97 %
25.05.2016 04:32 10,2 C 95 % 1012,9 hPa 0,0 l/m 10,5 km/h (2 Bft) W-SW 238 0 min 0,000 mm 0,0 UV-I 0 W/m 9,4 C 7,5 C 16,1 km/h (3 Bft) 93,33 %
25.05.2016 04:33 10,1 C 95 % 1012,9 hPa 0,0 l/m 10,2 km/h (2 Bft) SW 236 0 min 0,000 mm 0,0 UV-I 0 W/m 9,3 C 7,6 C 12,9 km/h (3 Bft) 100,00 %
25.05.2016 04:34 10,1 C 95 % 1012,9 hPa 0,0 l/m 7,7 km/h (2 Bft) W 273 0 min 0,000 mm 0,0 UV-I 0 W/m 9,3 C 9,2 C 11,3 km/h (2 Bft) 92,59 %
25.05.2016 04:35 10,1 C 95 % 1013,0 hPa 0,0 l/m 9,3 km/h (2 Bft) W 268 0 min 0,000 mm 0,0 UV-I 0 W/m 9,3 C 8,1 C 14,5 km/h (3 Bft) 100,00 %
25.05.2016 04:36 10,1 C 95 % 1012,9 hPa 0,0 l/m 9,9 km/h (2 Bft) W-SW 237 0 min 0,000 mm 0,0 UV-I 0 W/m 9,3 C 7,8 C 14,5 km/h (3 Bft) 96,55 %
25.05.2016 04:37 10,1 C 95 % 1012,9 hPa 0,0 l/m 9,0 km/h (2 Bft) W-SW 253 0 min 0,000 mm 0,0 UV-I 0 W/m 9,3 C 8,3 C 12,9 km/h (3 Bft) 100,00 %
25.05.2016 04:38 10,1 C 95 % 1013,0 hPa 0,0 l/m 10,3 km/h (2 Bft) W-SW 243 0 min 0,000 mm 0,0 UV-I 0 W/m 9,3 C 7,5 C 14,5 km/h (3 Bft) 91,30 %
25.05.2016 04:39 10,1 C 95 % 1013,0 hPa 0,0 l/m 9,8 km/h (2 Bft) W-SW 253 0 min 0,000 mm 0,0 UV-I 0 W/m 9,3 C 7,8 C 16,1 km/h (3 Bft) 95,83 %
25.05.2016 04:40 10,1 C 95 % 1013,0 hPa 0,0 l/m 10,9 km/h (2 Bft) W-SW 250 0 min 0,000 mm 0,0 UV-I 0 W/m 9,3 C 7,2 C 14,5 km/h (3 Bft) 100,00 %
25.05.2016 04:41 10,1 C 95 % 1013,0 hPa 0,0 l/m 7,6 km/h (2 Bft) W-SW 242 0 min 0,000 mm 0,0 UV-I 0 W/m 9,3 C 9,2 C 11,3 km/h (2 Bft) 97,62 %
25.05.2016 04:42 10,1 C 95 % 1012,9 hPa 0,0 l/m 9,7 km/h (2 Bft) SW 222 0 min 0,000 mm 0,0 UV-I 0 W/m 9,3 C 7,9 C 12,9 km/h (3 Bft) 100,00 %
25.05.2016 04:43 10,1 C 95 % 1012,9 hPa 0,0 l/m 11,4 km/h (2 Bft) W-SW 257 0 min 0,000 mm 0,0 UV-I 0 W/m 9,3 C 6,9 C 16,1 km/h (3 Bft) 100,00 %
25.05.2016 04:44 10,1 C 95 % 1012,9 hPa 0,0 l/m 7,6 km/h (2 Bft) W-SW 244 0 min 0,000 mm 0,0 UV-I 0 W/m 9,3 C 9,2 C 11,3 km/h (2 Bft) 97,56 %
25.05.2016 04:45 10,1 C 95 % 1012,9 hPa 0,0 l/m 8,4 km/h (2 Bft) SW 231 0 min 0,000 mm 0,0 UV-I 0 W/m 9,3 C 8,7 C 11,3 km/h (2 Bft) 100,00 %
25.05.2016 04:46 10,1 C 95 % 1012,9 hPa 0,0 l/m 6,7 km/h (2 Bft) W-SW 246 0 min 0,000 mm 0,0 UV-I 0 W/m 9,3 C 9,9 C 9,7 km/h (2 Bft) 98,70 %
25.05.2016 04:47 10,1 C 95 % 1012,9 hPa 0,0 l/m 10,5 km/h (2 Bft) W-SW 245 0 min 0,000 mm 0,0 UV-I 0 W/m 9,3 C 7,4 C 14,5 km/h (3 Bft) 100,00 %
25.05.2016 04:48 10,1 C 95 % 1012,9 hPa 0,0 l/m 10,8 km/h (2 Bft) S-SW 200 0 min 0,000 mm 0,0 UV-I 0 W/m 9,3 C 7,3 C 16,1 km/h (3 Bft) 96,15 %
25.05.2016 04:49 10,1 C 95 % 1012,9 hPa 0,0 l/m 10,9 km/h (2 Bft) SW 223 0 min 0,000 mm 0,0 UV-I 0 W/m 9,3 C 7,2 C 16,1 km/h (3 Bft) 100,00 %
25.05.2016 04:50 10,1 C 95 % 1013,0 hPa 0,0 l/m 9,1 km/h (2 Bft) W 270 0 min 0,000 mm 0,0 UV-I 0 W/m 9,3 C 8,2 C 12,9 km/h (3 Bft) 100,00 %
25.05.2016 04:51 10,1 C 95 % 1013,0 hPa 0,0 l/m 10,9 km/h (2 Bft) W 263 0 min 0,000 mm 0,0 UV-I 0 W/m 9,3 C 7,2 C 14,5 km/h (3 Bft) 100,00 %
25.05.2016 04:52 10,1 C 95 % 1012,9 hPa 0,0 l/m 11,7 km/h (2 Bft) SW 223 0 min 0,000 mm 0,0 UV-I 0 W/m 9,3 C 6,8 C 14,5 km/h (3 Bft) 100,00 %
25.05.2016 04:53 10,1 C 95 % 1012,9 hPa 0,0 l/m 8,4 km/h (2 Bft) SW 225 0 min 0,000 mm 0,0 UV-I 0 W/m 9,3 C 8,7 C 11,3 km/h (2 Bft) 100,00 %
25.05.2016 04:54 10,1 C 95 % 1012,9 hPa 0,0 l/m 10,5 km/h (2 Bft) S-SW 213 0 min 0,000 mm 0,0 UV-I 0 W/m 9,3 C 7,4 C 14,5 km/h (3 Bft) 100,00 %
25.05.2016 04:55 10,1 C 95 % 1012,9 hPa 0,0 l/m 12,2 km/h (2 Bft) W-SW 250 0 min 0,000 mm 0,0 UV-I 0 W/m 9,3 C 6,5 C 17,7 km/h (3 Bft) 100,00 %
25.05.2016 04:56 10,1 C 95 % 1013,0 hPa 0,0 l/m 10,0 km/h (2 Bft) SW 228 0 min 0,000 mm 0,0 UV-I 0 W/m 9,3 C 7,7 C 12,9 km/h (3 Bft) 100,00 %
25.05.2016 04:57 10,1 C 95 % 1013,0 hPa 0,2 l/m 9,8 km/h (2 Bft) W-SW 250 0 min 0,000 mm 0,0 UV-I 0 W/m 9,3 C 7,8 C 14,5 km/h (3 Bft) 96,15 %
25.05.2016 04:58 10,1 C 95 % 1013,0 hPa 0,0 l/m 10,3 km/h (2 Bft) W 266 0 min 0,000 mm 0,0 UV-I 0 W/m 9,3 C 7,5 C 12,9 km/h (3 Bft) 100,00 %
25.05.2016 04:59 10,1 C 95 % 1013,0 hPa 0,0 l/m 9,4 km/h (2 Bft) W 260 0 min 0,000 mm 0,0 UV-I 0 W/m 9,3 C 8,1 C 12,9 km/h (3 Bft) 100,00 %
25.05.2016 05:00 10,2 C 95 % 1013,0 hPa 0,0 l/m 7,5 km/h (2 Bft) W 261 0 min 0,000 mm 0,0 UV-I 0 W/m 9,4 C 9,4 C 11,3 km/h (2 Bft) 100,00 %
25.05.2016 05:02 10,1 C 95 % 1013,0 hPa 0,0 l/m 7,7 km/h (2 Bft) W-SW 248 0 min 0,000 mm 0,0 UV-I 0 W/m 9,3 C 9,2 C 12,9 km/h (3 Bft) 97,83 %
25.05.2016 05:03 10,2 C 95 % 1013,0 hPa 0,0 l/m 9,5 km/h (2 Bft) W 262 0 min 0,000 mm 0,0 UV-I 0 W/m 9,4 C 8,1 C 16,1 km/h (3 Bft) 96,55 %
25.05.2016 05:04 10,1 C 95 % 1013,1 hPa 0,0 l/m 10,2 km/h (2 Bft) SW 215 0 min 0,000 mm 0,0 UV-I 0 W/m 9,3 C 7,6 C 12,9 km/h (3 Bft) 100,00 %
25.05.2016 05:05 10,1 C 95 % 1013,1 hPa 0,0 l/m 8,6 km/h (2 Bft) SW 227 0 min 0,000 mm 0,0 UV-I 0 W/m 9,3 C 8,6 C 14,5 km/h (3 Bft) 100,00 %
25.05.2016 05:06 10,1 C 95 % 1013,1 hPa 0,0 l/m 10,0 km/h (2 Bft) W-SW 240 0 min 0,000 mm 0,0 UV-I 0 W/m 9,3 C 7,7 C 12,9 km/h (3 Bft) 100,00 %
25.05.2016 05:07 10,2 C 95 % 1013,0 hPa 0,0 l/m 10,8 km/h (2 Bft) W 272 0 min 0,000 mm 0,0 UV-I 0 W/m 9,4 C 7,4 C 14,5 km/h (3 Bft) 100,00 %
25.05.2016 05:08 10,2 C 95 % 1013,0 hPa 0,0 l/m 11,1 km/h (2 Bft) SW 232 0 min 0,000 mm 0,0 UV-I 0 W/m 9,4 C 7,2 C 17,7 km/h (3 Bft) 100,00 %
25.05.2016 05:09 10,2 C 95 % 1013,0 hPa 0,0 l/m 11,4 km/h (2 Bft) SW 227 0 min 0,000 mm 0,0 UV-I 0 W/m 9,4 C 7,1 C 14,5 km/h (3 Bft) 100,00 %
25.05.2016 05:10 10,2 C 95 % 1013,0 hPa 0,0 l/m 11,7 km/h (2 Bft) W-SW 251 0 min 0,000 mm 0,0 UV-I 0 W/m 9,4 C 6,9 C 16,1 km/h (3 Bft) 100,00 %
25.05.2016 05:11 10,2 C 95 % 1013,0 hPa 0,0 l/m 8,2 km/h (2 Bft) SW 231 0 min 0,000 mm 0,0 UV-I 0 W/m 9,4 C 8,9 C 12,9 km/h (3 Bft) 100,00 %
25.05.2016 05:12 10,2 C 95 % 1013,0 hPa 0,0 l/m 6,0 km/h (2 Bft) W-SW 248 0 min 0,000 mm 0,0 UV-I 0 W/m 9,4 C 10,2 C 9,7 km/h (2 Bft) 100,00 %
25.05.2016 05:13 10,2 C 95 % 1013,0 hPa 0,0 l/m 8,0 km/h (2 Bft) W-SW 250 0 min 0,000 mm 0,0 UV-I 0 W/m 9,4 C 9,1 C 11,3 km/h (2 Bft) 100,00 %
25.05.2016 05:14 10,2 C 95 % 1013,1 hPa 0,0 l/m 7,6 km/h (2 Bft) SW 215 0 min 0,000 mm 0,0 UV-I 0 W/m 9,4 C 9,3 C 12,9 km/h (3 Bft) 100,00 %
25.05.2016 05:15 10,2 C 95 % 1013,1 hPa 0,0 l/m 8,1 km/h (2 Bft) W 268 0 min 0,000 mm 0,0 UV-I 0 W/m 9,4 C 9,0 C 11,3 km/h (2 Bft) 100,00 %
25.05.2016 05:16 10,2 C 95 % 1013,1 hPa 0,0 l/m 7,0 km/h (2 Bft) W-SW 254 0 min 0,000 mm 0,0 UV-I 0 W/m 9,4 C 9,8 C 11,3 km/h (2 Bft) 100,00 %
25.05.2016 05:17 10,2 C 95 % 1013,1 hPa 0,0 l/m 7,1 km/h (2 Bft) W 259 0 min 0,000 mm 0,0 UV-I 0 W/m 9,4 C 9,7 C 12,9 km/h (3 Bft) 98,87 %
25.05.2016 05:18 10,2 C 95 % 1013,1 hPa 0,0 l/m 6,8 km/h (2 Bft) W-SW 245 0 min 0,000 mm 0,0 UV-I 0 W/m 9,4 C 9,9 C 11,3 km/h (2 Bft) 100,00 %
25.05.2016 05:19 10,2 C 95 % 1013,2 hPa 0,0 l/m 8,9 km/h (2 Bft) W-SW 241 0 min 0,000 mm 0,0 UV-I 0 W/m 9,4 C 8,5 C 11,3 km/h (2 Bft) 100,00 %
25.05.2016 05:20 10,2 C 95 % 1013,2 hPa 0,0 l/m 7,9 km/h (2 Bft) S-SW 205 0 min 0,000 mm 0,0 UV-I 0 W/m 9,4 C 9,1 C 11,3 km/h (2 Bft) 100,00 %
25.05.2016 05:21 10,2 C 95 % 1013,2 hPa 0,0 l/m 5,9 km/h (2 Bft) W-SW 257 0 min 0,000 mm 0,0 UV-I 0 W/m 9,4 C 10,2 C 9,7 km/h (2 Bft) 100,00 %
25.05.2016 05:22 10,2 C 95 % 1013,2 hPa 0,0 l/m 9,5 km/h (2 Bft) W-SW 245 0 min 0,000 mm 0,0 UV-I 0 W/m 9,4 C 8,1 C 14,5 km/h (3 Bft) 100,00 %
25.05.2016 05:23 10,2 C 95 % 1013,2 hPa 0,0 l/m 7,9 km/h (2 Bft) W-SW 250 0 min 0,000 mm 0,0 UV-I 0 W/m 9,4 C 9,1 C 14,5 km/h (3 Bft) 100,00 %
25.05.2016 05:24 10,2 C 95 % 1013,2 hPa 0,0 l/m 7,3 km/h (2 Bft) W-SW 255 0 min 0,000 mm 0,0 UV-I 0 W/m 9,4 C 9,6 C 11,3 km/h (2 Bft) 100,00 %
25.05.2016 05:25 10,2 C 95 % 1013,2 hPa 0,0 l/m 6,1 km/h (2 Bft) SW 232 0 min 0,000 mm 0,0 UV-I 0 W/m 9,4 C 10,2 C 8,0 km/h (2 Bft) 100,00 %
25.05.2016 05:26 10,2 C 95 % 1013,2 hPa 0,0 l/m 6,6 km/h (2 Bft) SW 231 0 min 0,000 mm 0,0 UV-I 0 W/m 9,4 C 10,1 C 8,0 km/h (2 Bft) 100,00 %
25.05.2016 05:27 10,2 C 95 % 1013,2 hPa 0,0 l/m 6,0 km/h (2 Bft) W-SW 244 0 min 0,000 mm 0,0 UV-I 0 W/m 9,4 C 10,2 C 9,7 km/h (2 Bft) 95,83 %
25.05.2016 05:28 10,2 C 95 % 1013,2 hPa 0,0 l/m 10,6 km/h (2 Bft) W-SW 246 0 min 0,000 mm 0,0 UV-I 0 W/m 9,4 C 7,5 C 14,5 km/h (3 Bft) 100,00 %
25.05.2016 05:29 10,2 C 95 % 1013,2 hPa 0,0 l/m 9,7 km/h (2 Bft) W 259 0 min 0,000 mm 0,0 UV-I 0 W/m 9,4 C 8,0 C 14,5 km/h (3 Bft) 100,00 %
25.05.2016 05:30 10,2 C 95 % 1013,2 hPa 0,0 l/m 6,0 km/h (2 Bft) SW 227 0 min 0,000 mm 0,0 UV-I 0 W/m 9,4 C 10,2 C 11,3 km/h (2 Bft) 100,00 %
25.05.2016 05:31 10,2 C 95 % 1013,2 hPa 0,0 l/m 7,4 km/h (2 Bft) W-SW 241 0 min 0,000 mm 0,0 UV-I 0 W/m 9,4 C 9,5 C 9,7 km/h (2 Bft) 96,30 %
25.05.2016 05:32 10,2 C 95 % 1013,2 hPa 0,0 l/m 6,4 km/h (2 Bft) SW 235 0 min 0,000 mm 0,0 UV-I 0 W/m 9,4 C 10,2 C 8,0 km/h (2 Bft) 100,00 %
25.05.2016 05:33 10,2 C 95 % 1013,2 hPa 0,0 l/m 12,3 km/h (3 Bft) W-SW 258 0 min 0,000 mm 0,0 UV-I 0 W/m 9,4 C 6,6 C 16,1 km/h (3 Bft) 100,00 %
25.05.2016 05:34 10,2 C 95 % 1013,2 hPa 0,0 l/m 11,2 km/h (2 Bft) W-SW 239 0 min 0,000 mm 0,0 UV-I 0 W/m 9,4 C 7,2 C 14,5 km/h (3 Bft) 100,00 %
25.05.2016 05:35 10,2 C 95 % 1013,2 hPa 0,0 l/m 9,5 km/h (2 Bft) W-SW 244 0 min 0,000 mm 0,0 UV-I 0 W/m 9,4 C 8,1 C 14,5 km/h (3 Bft) 100,00 %
25.05.2016 05:36 10,2 C 95 % 1013,2 hPa 0,0 l/m 7,2 km/h (2 Bft) SW 235 0 min 0,000 mm 0,0 UV-I 0 W/m 9,4 C 9,6 C 11,3 km/h (2 Bft) 95,83 %
25.05.2016 05:37 10,2 C 95 % 1013,3 hPa 0,0 l/m 7,3 km/h (2 Bft) SW 236 0 min 0,000 mm 0,0 UV-I 0 W/m 9,4 C 9,6 C 12,9 km/h (3 Bft) 100,00 %
25.05.2016 05:38 10,2 C 95 % 1013,3 hPa 0,0 l/m 9,3 km/h (2 Bft) SW 218 0 min 0,000 mm 0,0 UV-I 0 W/m 9,4 C 8,2 C 14,5 km/h (3 Bft) 100,00 %
25.05.2016 05:39 10,2 C 95 % 1013,2 hPa 0,0 l/m 8,6 km/h (2 Bft) W-SW 244 0 min 0,000 mm 0,0 UV-I 0 W/m 9,4 C 8,7 C 11,3 km/h (2 Bft) 100,00 %
25.05.2016 05:40 10,2 C 95 % 1013,2 hPa 0,0 l/m 6,5 km/h (2 Bft) W-SW 242 0 min 0,000 mm 0,0 UV-I 0 W/m 9,4 C 10,2 C 8,0 km/h (2 Bft) 100,00 %
25.05.2016 05:41 10,2 C 95 % 1013,3 hPa 0,0 l/m 9,5 km/h (2 Bft) SW 227 0 min 0,000 mm 0,0 UV-I 0 W/m 9,4 C 8,1 C 12,9 km/h (3 Bft) 100,00 %
25.05.2016 05:42 10,2 C 95 % 1013,3 hPa 0,0 l/m 10,1 km/h (2 Bft) SW 233 0 min 0,000 mm 0,0 UV-I 0 W/m 9,4 C 7,8 C 14,5 km/h (3 Bft) 100,00 %
25.05.2016 05:43 10,2 C 95 % 1013,4 hPa 0,0 l/m 9,6 km/h (2 Bft) SW 215 0 min 0,000 mm 0,0 UV-I 0 W/m 9,4 C 8,0 C 14,5 km/h (3 Bft) 96,15 %
25.05.2016 05:44 10,2 C 95 % 1013,4 hPa 0,0 l/m 11,4 km/h (2 Bft) SW 235 0 min 0,000 mm 0,0 UV-I 0 W/m 9,4 C 7,1 C 16,1 km/h (3 Bft) 100,00 %
25.05.2016 05:45 10,2 C 95 % 1013,4 hPa 0,0 l/m 8,9 km/h (2 Bft) W-SW 242 0 min 0,000 mm 0,0 UV-I 0 W/m 9,4 C 8,5 C 14,5 km/h (3 Bft) 96,55 %
25.05.2016 05:46 10,2 C 95 % 1013,3 hPa 0,0 l/m 7,4 km/h (2 Bft) SW 225 0 min 0,000 mm 0,0 UV-I 0 W/m 9,4 C 9,5 C 11,3 km/h (2 Bft) 100,00 %
25.05.2016 05:47 10,2 C 95 % 1013,4 hPa 0,0 l/m 10,6 km/h (2 Bft) W-SW 239 0 min 0,000 mm 0,0 UV-I 0 W/m 9,4 C 7,5 C 14,5 km/h (3 Bft) 95,65 %
25.05.2016 05:48 10,2 C 95 % 1013,4 hPa 0,0 l/m 8,8 km/h (2 Bft) W-SW 245 0 min 0,000 mm 0,0 UV-I 0 W/m 9,4 C 8,5 C 12,9 km/h (3 Bft) 100,00 %
25.05.2016 05:49 10,2 C 95 % 1013,4 hPa 0,0 l/m 10,2 km/h (2 Bft) SW 227 0 min 0,000 mm 0,0 UV-I 0 W/m 9,4 C 7,7 C 14,5 km/h (3 Bft) 100,00 %
25.05.2016 05:50 10,2 C 95 % 1013,4 hPa 0,0 l/m 8,9 km/h (2 Bft) SW 215 0 min 0,000 mm 0,0 UV-I 0 W/m 9,4 C 8,5 C 12,9 km/h (3 Bft) 100,00 %
25.05.2016 05:51 10,2 C 95 % 1013,4 hPa 0,0 l/m 8,3 km/h (2 Bft) SW 228 0 min 0,000 mm 0,0 UV-I 0 W/m 9,4 C 8,9 C 11,3 km/h (2 Bft) 100,00 %
25.05.2016 05:52 10,2 C 95 % 1013,4 hPa 0,0 l/m 5,4 km/h (1 Bft) SW 215 0 min 0,000 mm 0,0 UV-I 0 W/m 9,4 C 10,2 C 9,7 km/h (2 Bft) 100,00 %
25.05.2016 05:53 10,2 C 95 % 1013,4 hPa 0,0 l/m 7,6 km/h (2 Bft) W-SW 253 0 min 0,000 mm 0,0 UV-I 0 W/m 9,4 C 9,3 C 14,5 km/h (3 Bft) 100,00 %
25.05.2016 05:54 10,2 C 95 % 1013,4 hPa 0,0 l/m 7,5 km/h (2 Bft) SW 232 0 min 0,000 mm 0,0 UV-I 0 W/m 9,4 C 9,4 C 12,9 km/h (3 Bft) 100,00 %
25.05.2016 05:55 10,2 C 95 % 1013,4 hPa 0,0 l/m 6,5 km/h (2 Bft) W 261 0 min 0,000 mm 0,0 UV-I 0 W/m 9,4 C 10,2 C 11,3 km/h (2 Bft) 100,00 %
25.05.2016 05:56 10,2 C 95 % 1013,4 hPa 0,0 l/m 7,4 km/h (2 Bft) SW 219 0 min 0,000 mm 0,0 UV-I 0 W/m 9,4 C 9,5 C 11,3 km/h (2 Bft) 100,00 %
25.05.2016 05:57 10,2 C 95 % 1013,5 hPa 0,0 l/m 6,2 km/h (2 Bft) W 259 0 min 0,000 mm 0,0 UV-I 0 W/m 9,4 C 10,2 C 8,0 km/h (2 Bft) 100,00 %
25.05.2016 05:58 10,2 C 95 % 1013,4 hPa 0,0 l/m 8,1 km/h (2 Bft) W-SW 242 0 min 0,000 mm 0,0 UV-I 0 W/m 9,4 C 9,0 C 12,9 km/h (3 Bft) 100,00 %
25.05.2016 05:59 10,2 C 95 % 1013,5 hPa 0,0 l/m 7,7 km/h (2 Bft) SW 226 0 min 0,000 mm 0,0 UV-I 2 W/m 9,4 C 9,3 C 11,3 km/h (2 Bft) 100,00 %
25.05.2016 06:00 10,2 C 95 % 1013,5 hPa 0,0 l/m 10,1 km/h (2 Bft) W-SW 240 0 min 0,000 mm 0,0 UV-I 5 W/m 9,4 C 7,8 C 12,9 km/h (3 Bft) 91,30 %
25.05.2016 06:02 10,2 C 95 % 1013,4 hPa 0,0 l/m 6,1 km/h (2 Bft) SW 234 0 min 0,000 mm 0,0 UV-I 5 W/m 9,4 C 10,2 C 9,7 km/h (2 Bft) 100,00 %
25.05.2016 06:03 10,2 C 95 % 1013,5 hPa 0,0 l/m 6,0 km/h (2 Bft) W-SW 239 0 min 0,000 mm 0,0 UV-I 5 W/m 9,4 C 10,2 C 11,3 km/h (2 Bft) 100,00 %
25.05.2016 06:04 10,2 C 95 % 1013,4 hPa 0,0 l/m 7,2 km/h (2 Bft) SW 234 0 min 0,000 mm 0,0 UV-I 5 W/m 9,4 C 9,6 C 9,7 km/h (2 Bft) 100,00 %
25.05.2016 06:05 10,2 C 95 % 1013,4 hPa 0,0 l/m 7,0 km/h (2 Bft) SW 222 0 min 0,000 mm 0,0 UV-I 5 W/m 9,4 C 9,8 C 9,7 km/h (2 Bft) 100,00 %
25.05.2016 06:06 10,2 C 95 % 1013,5 hPa 0,0 l/m 7,0 km/h (2 Bft) SW 236 0 min 0,000 mm 0,0 UV-I 5 W/m 9,4 C 9,8 C 9,7 km/h (2 Bft) 100,00 %
25.05.2016 06:07 10,2 C 95 % 1013,5 hPa 0,0 l/m 8,3 km/h (2 Bft) SW 223 0 min 0,000 mm 0,0 UV-I 5 W/m 9,4 C 8,9 C 12,9 km/h (3 Bft) 100,00 %
25.05.2016 06:08 10,2 C 95 % 1013,5 hPa 0,0 l/m 7,9 km/h (2 Bft) W-SW 237 0 min 0,000 mm 0,0 UV-I 5 W/m 9,4 C 9,1 C 11,3 km/h (2 Bft) 100,00 %
25.05.2016 06:09 10,2 C 95 % 1013,5 hPa 0,0 l/m 7,4 km/h (2 Bft) SW 223 0 min 0,000 mm 0,0 UV-I 5 W/m 9,4 C 9,5 C 11,3 km/h (2 Bft) 100,00 %
25.05.2016 06:10 10,2 C 95 % 1013,5 hPa 0,0 l/m 7,6 km/h (2 Bft) SW 228 0 min 0,000 mm 0,0 UV-I 5 W/m 9,4 C 9,3 C 9,7 km/h (2 Bft) 100,00 %
25.05.2016 06:11 10,2 C 95 % 1013,5 hPa 0,0 l/m 9,7 km/h (2 Bft) W-SW 251 0 min 0,000 mm 0,0 UV-I 7 W/m 9,4 C 8,0 C 16,1 km/h (3 Bft) 91,67 %
25.05.2016 06:12 10,2 C 95 % 1013,5 hPa 0,0 l/m 5,6 km/h (1 Bft) SW 236 0 min 0,000 mm 0,0 UV-I 7 W/m 9,4 C 10,2 C 6,4 km/h (2 Bft) 100,00 %
25.05.2016 06:13 10,2 C 95 % 1013,5 hPa 0,0 l/m 6,0 km/h (2 Bft) W-SW 239 0 min 0,000 mm 0,0 UV-I 7 W/m 9,4 C 10,2 C 8,0 km/h (2 Bft) 100,00 %
25.05.2016 06:14 10,2 C 95 % 1013,5 hPa 0,0 l/m 7,3 km/h (2 Bft) SW 230 0 min 0,000 mm 0,0 UV-I 7 W/m 9,4 C 9,6 C 11,3 km/h (2 Bft) 96,88 %
25.05.2016 06:15 10,2 C 95 % 1013,5 hPa 0,0 l/m 8,4 km/h (2 Bft) SW 233 0 min 0,000 mm 0,0 UV-I 7 W/m 9,4 C 8,8 C 11,3 km/h (2 Bft) 100,00 %
25.05.2016 06:16 10,2 C 95 % 1013,5 hPa 0,0 l/m 9,6 km/h (2 Bft) SW 225 0 min 0,000 mm 0,0 UV-I 7 W/m 9,4 C 8,0 C 12,9 km/h (3 Bft) 96,97 %
25.05.2016 06:17 10,2 C 95 % 1013,5 hPa 0,0 l/m 7,0 km/h (2 Bft) SW 227 0 min 0,000 mm 0,0 UV-I 7 W/m 9,4 C 9,8 C 11,3 km/h (2 Bft) 100,00 %
25.05.2016 06:18 10,2 C 95 % 1013,5 hPa 0,0 l/m 8,3 km/h (2 Bft) SW 231 0 min 0,000 mm 0,0 UV-I 7 W/m 9,4 C 8,9 C 11,3 km/h (2 Bft) 98,98 %
25.05.2016 06:19 10,2 C 95 % 1013,5 hPa 0,0 l/m 8,5 km/h (2 Bft) SW 231 0 min 0,000 mm 0,0 UV-I 7 W/m 9,4 C 8,7 C 9,7 km/h (2 Bft) 97,37 %
25.05.2016 06:20 10,2 C 95 % 1013,5 hPa 0,0 l/m 5,7 km/h (1 Bft) W-SW 240 0 min 0,000 mm 0,0 UV-I 7 W/m 9,4 C 10,2 C 8,0 km/h (2 Bft) 96,30 %
25.05.2016 06:21 10,2 C 95 % 1013,5 hPa 0,0 l/m 5,5 km/h (1 Bft) W-SW 252 0 min 0,000 mm 0,0 UV-I 7 W/m 9,4 C 10,2 C 8,0 km/h (2 Bft) 96,15 %
25.05.2016 06:22 10,2 C 95 % 1013,6 hPa 0,0 l/m 5,0 km/h (1 Bft) W-SW 248 0 min 0,000 mm 0,0 UV-I 7 W/m 9,4 C 10,2 C 6,4 km/h (2 Bft) 100,00 %
25.05.2016 06:23 10,2 C 95 % 1013,5 hPa 0,0 l/m 4,9 km/h (1 Bft) SW 234 0 min 0,000 mm 0,0 UV-I 7 W/m 9,4 C 10,2 C 8,0 km/h (2 Bft) 100,00 %
25.05.2016 06:24 10,2 C 95 % 1013,6 hPa 0,0 l/m 7,1 km/h (2 Bft) W-SW 254 0 min 0,000 mm 0,0 UV-I 7 W/m 9,4 C 9,7 C 11,3 km/h (2 Bft) 96,30 %
25.05.2016 06:25 10,2 C 95 % 1013,5 hPa 0,0 l/m 6,6 km/h (2 Bft) W-SW 246 0 min 0,000 mm 0,0 UV-I 7 W/m 9,4 C 10,1 C 11,3 km/h (2 Bft) 95,65 %
25.05.2016 06:26 10,2 C 95 % 1013,6 hPa 0,0 l/m 7,6 km/h (2 Bft) W-SW 258 0 min 0,000 mm 0,0 UV-I 7 W/m 9,4 C 9,3 C 11,3 km/h (2 Bft) 100,00 %
25.05.2016 06:27 10,2 C 95 % 1013,6 hPa 0,0 l/m 7,6 km/h (2 Bft) SW 232 0 min 0,000 mm 0,0 UV-I 7 W/m 9,4 C 9,3 C 9,7 km/h (2 Bft) 96,55 %
25.05.2016 06:28 10,2 C 95 % 1013,6 hPa 0,0 l/m 6,7 km/h (2 Bft) W-SW 246 0 min 0,000 mm 0,0 UV-I 7 W/m 9,4 C 10,0 C 12,9 km/h (3 Bft) 100,00 %
25.05.2016 06:29 10,2 C 95 % 1013,6 hPa 0,0 l/m 7,7 km/h (2 Bft) SW 234 0 min 0,000 mm 0,0 UV-I 7 W/m 9,4 C 9,3 C 12,9 km/h (3 Bft) 96,15 %
25.05.2016 06:30 10,2 C 95 % 1013,6 hPa 0,0 l/m 7,6 km/h (2 Bft) SW 219 0 min 0,000 mm 0,0 UV-I 7 W/m 9,4 C 9,3 C 11,3 km/h (2 Bft) 96,30 %
25.05.2016 06:31 10,2 C 95 % 1013,6 hPa 0,0 l/m 7,0 km/h (2 Bft) W-SW 242 0 min 0,000 mm 0,0 UV-I 9 W/m 9,4 C 9,8 C 9,7 km/h (2 Bft) 100,00 %
25.05.2016 06:32 10,2 C 95 % 1013,6 hPa 0,0 l/m 6,8 km/h (2 Bft) SW 233 0 min 0,000 mm 0,0 UV-I 9 W/m 9,4 C 9,9 C 9,7 km/h (2 Bft) 95,83 %
25.05.2016 06:33 10,2 C 95 % 1013,6 hPa 0,0 l/m 5,5 km/h (1 Bft) W-SW 250 0 min 0,000 mm 0,0 UV-I 9 W/m 9,4 C 10,2 C 8,0 km/h (2 Bft) 100,00 %
25.05.2016 06:34 10,2 C 95 % 1013,7 hPa 0,0 l/m 7,6 km/h (2 Bft) W-SW 240 0 min 0,000 mm 0,0 UV-I 9 W/m 9,4 C 9,3 C 9,7 km/h (2 Bft) 96,15 %
25.05.2016 06:35 10,2 C 95 % 1013,7 hPa 0,0 l/m 8,2 km/h (2 Bft) S-SW 192 0 min 0,000 mm 0,0 UV-I 9 W/m 9,4 C 8,9 C 11,3 km/h (2 Bft) 100,00 %
25.05.2016 06:36 10,2 C 95 % 1013,7 hPa 0,0 l/m 9,0 km/h (2 Bft) W-SW 242 0 min 0,000 mm 0,0 UV-I 8 W/m 9,4 C 8,4 C 12,9 km/h (3 Bft) 95,65 %
25.05.2016 06:37 10,2 C 95 % 1013,7 hPa 0,0 l/m 7,3 km/h (2 Bft) W-SW 238 0 min 0,000 mm 0,0 UV-I 7 W/m 9,4 C 9,6 C 9,7 km/h (2 Bft) 93,33 %
25.05.2016 06:38 10,2 C 95 % 1013,7 hPa 0,0 l/m 8,1 km/h (2 Bft) SW 218 0 min 0,000 mm 0,0 UV-I 7 W/m 9,4 C 9,0 C 11,3 km/h (2 Bft) 96,15 %
25.05.2016 06:39 10,2 C 95 % 1013,6 hPa 0,2 l/m 9,1 km/h (2 Bft) S-SW 196 0 min 0,000 mm 0,0 UV-I 7 W/m 9,4 C 8,4 C 11,3 km/h (2 Bft) 96,30 %
25.05.2016 06:40 10,2 C 95 % 1013,6 hPa 0,0 l/m 7,6 km/h (2 Bft) SW 235 0 min 0,000 mm 0,0 UV-I 7 W/m 9,4 C 9,3 C 11,3 km/h (2 Bft) 100,00 %
25.05.2016 06:41 10,2 C 95 % 1013,7 hPa 0,0 l/m 11,7 km/h (2 Bft) W-SW 239 0 min 0,000 mm 0,0 UV-I 7 W/m 9,4 C 6,9 C 14,5 km/h (3 Bft) 96,30 %
25.05.2016 06:42 10,2 C 95 % 1013,6 hPa 0,0 l/m 10,7 km/h (2 Bft) SW 226 0 min 0,000 mm 0,0 UV-I 7 W/m 9,4 C 7,4 C 12,9 km/h (3 Bft) 100,00 %
25.05.2016 06:43 10,2 C 95 % 1013,6 hPa 0,0 l/m 10,9 km/h (2 Bft) SW 234 0 min 0,000 mm 0,0 UV-I 7 W/m 9,4 C 7,3 C 14,5 km/h (3 Bft) 91,67 %
25.05.2016 06:44 10,2 C 95 % 1013,6 hPa 0,0 l/m 10,2 km/h (2 Bft) W-SW 240 0 min 0,000 mm 0,0 UV-I 7 W/m 9,4 C 7,7 C 16,1 km/h (3 Bft) 94,74 %
25.05.2016 06:45 10,2 C 95 % 1013,6 hPa 0,2 l/m 9,3 km/h (2 Bft) SW 221 0 min 0,000 mm 0,0 UV-I 7 W/m 9,4 C 8,2 C 12,9 km/h (3 Bft) 97,56 %
25.05.2016 06:46 10,2 C 95 % 1013,6 hPa 0,0 l/m 10,4 km/h (2 Bft) S-SW 211 0 min 0,000 mm 0,0 UV-I 7 W/m 9,4 C 7,6 C 14,5 km/h (3 Bft) 100,00 %
25.05.2016 06:47 10,2 C 95 % 1013,6 hPa 0,0 l/m 10,4 km/h (2 Bft) SW 236 0 min 0,000 mm 0,0 UV-I 7 W/m 9,4 C 7,6 C 14,5 km/h (3 Bft) 100,00 %
25.05.2016 06:48 10,2 C 95 % 1013,6 hPa 0,0 l/m 10,1 km/h (2 Bft) W-SW 242 0 min 0,000 mm 0,0 UV-I 7 W/m 9,4 C 7,8 C 14,5 km/h (3 Bft) 95,65 %
25.05.2016 06:49 10,2 C 95 % 1013,7 hPa 0,0 l/m 10,5 km/h (2 Bft) W 275 0 min 0,000 mm 0,0 UV-I 7 W/m 9,4 C 7,5 C 14,5 km/h (3 Bft) 100,00 %
25.05.2016 06:50 10,2 C 95 % 1013,7 hPa 0,0 l/m 8,1 km/h (2 Bft) W-SW 244 0 min 0,000 mm 0,0 UV-I 7 W/m 9,4 C 9,0 C 11,3 km/h (2 Bft) 91,30 %
25.05.2016 06:51 10,2 C 95 % 1013,7 hPa 0,0 l/m 5,5 km/h (1 Bft) W-SW 250 0 min 0,000 mm 0,0 UV-I 7 W/m 9,4 C 10,2 C 11,3 km/h (2 Bft) 100,00 %
25.05.2016 06:52 10,2 C 96 % 1013,7 hPa 0,0 l/m 5,8 km/h (2 Bft) W-SW 255 0 min 0,000 mm 0,0 UV-I 7 W/m 9,6 C 10,2 C 8,0 km/h (2 Bft) 96,15 %
25.05.2016 06:53 10,2 C 96 % 1013,7 hPa 0,0 l/m 6,3 km/h (2 Bft) S-SW 209 0 min 0,000 mm 0,0 UV-I 7 W/m 9,6 C 10,2 C 11,3 km/h (2 Bft) 100,00 %
25.05.2016 06:54 10,2 C 96 % 1013,8 hPa 0,0 l/m 5,6 km/h (1 Bft) W-SW 250 0 min 0,000 mm 0,0 UV-I 7 W/m 9,6 C 10,2 C 6,4 km/h (2 Bft) 95,65 %
25.05.2016 06:55 10,2 C 96 % 1013,8 hPa 0,0 l/m 4,1 km/h (1 Bft) SW 232 0 min 0,000 mm 0,0 UV-I 9 W/m 9,6 C 10,2 C 8,0 km/h (2 Bft) 95,83 %
25.05.2016 06:56 10,2 C 96 % 1013,8 hPa 0,0 l/m 6,9 km/h (2 Bft) SW 219 0 min 0,000 mm 0,0 UV-I 9 W/m 9,6 C 9,8 C 9,7 km/h (2 Bft) 100,00 %
25.05.2016 06:57 10,2 C 96 % 1013,8 hPa 0,0 l/m 5,5 km/h (1 Bft) SW 229 0 min 0,000 mm 0,0 UV-I 9 W/m 9,6 C 10,2 C 8,0 km/h (2 Bft) 100,00 %
25.05.2016 06:58 10,2 C 96 % 1013,8 hPa 0,0 l/m 5,7 km/h (1 Bft) S-SW 211 0 min 0,000 mm 0,0 UV-I 10 W/m 9,6 C 10,2 C 9,7 km/h (2 Bft) 100,00 %
25.05.2016 06:59 10,2 C 96 % 1013,8 hPa 0,0 l/m 5,7 km/h (1 Bft) SW 227 0 min 0,000 mm 0,0 UV-I 11 W/m 9,6 C 10,2 C 6,4 km/h (2 Bft) 100,00 %
25.05.2016 07:00 10,2 C 96 % 1013,8 hPa 0,0 l/m 6,5 km/h (2 Bft) W-SW 246 0 min 0,000 mm 0,0 UV-I 12 W/m 9,6 C 10,2 C 8,0 km/h (2 Bft) 100,00 %
25.05.2016 07:02 10,2 C 96 % 1013,9 hPa 0,2 l/m 6,8 km/h (2 Bft) W-SW 240 0 min 0,000 mm 0,0 UV-I 12 W/m 9,6 C 9,9 C 9,7 km/h (2 Bft) 100,00 %
25.05.2016 07:03 10,2 C 96 % 1013,9 hPa 0,0 l/m 7,0 km/h (2 Bft) SW 229 0 min 0,000 mm 0,0 UV-I 15 W/m 9,6 C 9,8 C 12,9 km/h (3 Bft) 92,86 %
25.05.2016 07:04 10,2 C 96 % 1013,9 hPa 0,0 l/m 6,9 km/h (2 Bft) W-SW 242 0 min 0,000 mm 0,0 UV-I 16 W/m 9,6 C 9,8 C 9,7 km/h (2 Bft) 100,00 %
25.05.2016 07:05 10,2 C 96 % 1013,9 hPa 0,0 l/m 7,3 km/h (2 Bft) W-SW 238 0 min 0,000 mm 0,0 UV-I 17 W/m 9,6 C 9,6 C 9,7 km/h (2 Bft) 100,00 %
25.05.2016 07:06 10,2 C 96 % 1013,9 hPa 0,0 l/m 5,8 km/h (2 Bft) SW 233 0 min 0,000 mm 0,0 UV-I 18 W/m 9,6 C 10,2 C 6,4 km/h (2 Bft) 100,00 %
25.05.2016 07:07 10,2 C 96 % 1013,9 hPa 0,0 l/m 7,8 km/h (2 Bft) SW 230 0 min 0,000 mm 0,0 UV-I 19 W/m 9,6 C 9,2 C 11,3 km/h (2 Bft) 95,65 %
25.05.2016 07:08 10,2 C 96 % 1013,9 hPa 0,0 l/m 8,9 km/h (2 Bft) SW 234 0 min 0,000 mm 0,0 UV-I 19 W/m 9,6 C 8,5 C 12,9 km/h (3 Bft) 95,83 %
25.05.2016 07:09 10,2 C 96 % 1013,9 hPa 0,0 l/m 5,9 km/h (2 Bft) SW 232 0 min 0,000 mm 0,0 UV-I 21 W/m 9,6 C 10,2 C 8,0 km/h (2 Bft) 95,65 %
25.05.2016 07:10 10,2 C 96 % 1013,9 hPa 0,0 l/m 6,1 km/h (2 Bft) S-SW 213 0 min 0,000 mm 0,0 UV-I 22 W/m 9,6 C 10,2 C 8,0 km/h (2 Bft) 100,00 %
25.05.2016 07:11 10,2 C 96 % 1013,9 hPa 0,0 l/m 4,8 km/h (1 Bft) W-SW 243 0 min 0,000 mm 0,0 UV-I 23 W/m 9,6 C 10,2 C 6,4 km/h (2 Bft) 100,00 %
25.05.2016 07:12 10,2 C 96 % 1013,9 hPa 0,0 l/m 5,7 km/h (1 Bft) SW 233 0 min 0,000 mm 0,0 UV-I 24 W/m 9,6 C 10,2 C 8,0 km/h (2 Bft) 100,00 %
25.05.2016 07:13 10,2 C 96 % 1013,9 hPa 0,0 l/m 6,6 km/h (2 Bft) SW 234 0 min 0,000 mm 0,0 UV-I 25 W/m 9,6 C 10,1 C 9,7 km/h (2 Bft) 100,00 %
25.05.2016 07:14 10,2 C 96 % 1013,9 hPa 0,0 l/m 7,0 km/h (2 Bft) W-SW 240 0 min 0,000 mm 0,0 UV-I 25 W/m 9,6 C 9,8 C 9,7 km/h (2 Bft) 100,00 %
25.05.2016 07:15 10,2 C 96 % 1013,9 hPa 0,0 l/m 6,8 km/h (2 Bft) SW 225 0 min 0,000 mm 0,0 UV-I 25 W/m 9,6 C 9,9 C 9,7 km/h (2 Bft) 100,00 %
25.05.2016 07:16 10,3 C 96 % 1013,9 hPa 0,0 l/m 6,4 km/h (2 Bft) SW 222 0 min 0,000 mm 0,0 UV-I 25 W/m 9,7 C 10,3 C 9,7 km/h (2 Bft) 92,31 %
25.05.2016 07:17 10,3 C 96 % 1013,9 hPa 0,0 l/m 6,2 km/h (2 Bft) S-SW 211 0 min 0,000 mm 0,0 UV-I 26 W/m 9,7 C 10,3 C 8,0 km/h (2 Bft) 100,00 %
25.05.2016 07:18 10,2 C 96 % 1013,9 hPa 0,0 l/m 5,8 km/h (2 Bft) SW 234 0 min 0,000 mm 0,0 UV-I 26 W/m 9,6 C 10,2 C 9,7 km/h (2 Bft) 100,00 %
25.05.2016 07:19 10,3 C 96 % 1014,0 hPa 0,0 l/m 6,1 km/h (2 Bft) W-SW 246 0 min 0,000 mm 0,0 UV-I 28 W/m 9,7 C 10,3 C 8,0 km/h (2 Bft) 100,00 %
25.05.2016 07:20 10,3 C 96 % 1013,9 hPa 0,0 l/m 4,5 km/h (1 Bft) W-SW 251 0 min 0,000 mm 0,0 UV-I 28 W/m 9,7 C 10,3 C 4,8 km/h (1 Bft) 100,00 %
25.05.2016 07:21 10,3 C 96 % 1013,9 hPa 0,0 l/m 6,1 km/h (2 Bft) SW 229 0 min 0,000 mm 0,0 UV-I 29 W/m 9,7 C 10,3 C 8,0 km/h (2 Bft) 100,00 %
25.05.2016 07:22 10,3 C 96 % 1013,9 hPa 0,0 l/m 5,7 km/h (1 Bft) SW 229 0 min 0,000 mm 0,0 UV-I 30 W/m 9,7 C 10,3 C 8,0 km/h (2 Bft) 95,65 %
25.05.2016 07:23 10,3 C 96 % 1013,9 hPa 0,2 l/m 4,7 km/h (1 Bft) SW 230 0 min 0,000 mm 0,0 UV-I 30 W/m 9,7 C 10,3 C 6,4 km/h (2 Bft) 96,67 %
25.05.2016 07:24 10,3 C 96 % 1013,9 hPa 0,0 l/m 5,3 km/h (1 Bft) SW 221 0 min 0,000 mm 0,0 UV-I 30 W/m 9,7 C 10,3 C 8,0 km/h (2 Bft) 100,00 %
25.05.2016 07:25 10,3 C 96 % 1014,0 hPa 0,0 l/m 5,1 km/h (1 Bft) SW 229 0 min 0,000 mm 0,0 UV-I 30 W/m 9,7 C 10,3 C 8,0 km/h (2 Bft) 100,00 %
25.05.2016 07:26 10,3 C 96 % 1014,0 hPa 0,0 l/m 5,2 km/h (1 Bft) W-SW 238 0 min 0,000 mm 0,0 UV-I 30 W/m 9,7 C 10,3 C 6,4 km/h (2 Bft) 100,00 %
25.05.2016 07:27 10,3 C 96 % 1014,0 hPa 0,0 l/m 7,5 km/h (2 Bft) SW 218 0 min 0,000 mm 0,0 UV-I 28 W/m 9,7 C 9,5 C 9,7 km/h (2 Bft) 100,00 %
25.05.2016 07:28 10,3 C 96 % 1014,0 hPa 0,0 l/m 6,6 km/h (2 Bft) S-SW 212 0 min 0,000 mm 0,0 UV-I 28 W/m 9,7 C 10,2 C 8,0 km/h (2 Bft) 100,00 %
25.05.2016 07:29 10,3 C 96 % 1014,0 hPa 0,0 l/m 6,4 km/h (2 Bft) SW 233 0 min 0,000 mm 0,0 UV-I 28 W/m 9,7 C 10,3 C 8,0 km/h (2 Bft) 100,00 %
25.05.2016 07:30 10,3 C 96 % 1014,0 hPa 0,0 l/m 7,4 km/h (2 Bft) SW 236 0 min 0,000 mm 0,0 UV-I 30 W/m 9,7 C 9,6 C 9,7 km/h (2 Bft) 96,15 %
25.05.2016 07:31 10,3 C 96 % 1014,0 hPa 0,0 l/m 7,5 km/h (2 Bft) SW 234 0 min 0,000 mm 0,0 UV-I 30 W/m 9,7 C 9,5 C 8,0 km/h (2 Bft) 93,33 %
25.05.2016 07:32 10,3 C 96 % 1014,0 hPa 0,0 l/m 7,6 km/h (2 Bft) SW 229 0 min 0,000 mm 0,0 UV-I 32 W/m 9,7 C 9,4 C 9,7 km/h (2 Bft) 100,00 %
25.05.2016 07:33 10,3 C 96 % 1014,0 hPa 0,0 l/m 6,5 km/h (2 Bft) SW 219 0 min 0,000 mm 0,0 UV-I 32 W/m 9,7 C 10,3 C 9,7 km/h (2 Bft) 100,00 %
25.05.2016 07:34 10,3 C 96 % 1014,0 hPa 0,0 l/m 8,1 km/h (2 Bft) SW 230 0 min 0,000 mm 0,0 UV-I 33 W/m 9,7 C 9,1 C 12,9 km/h (3 Bft) 95,83 %
25.05.2016 07:35 10,3 C 96 % 1014,0 hPa 0,0 l/m 7,3 km/h (2 Bft) SW 228 0 min 0,000 mm 0,0 UV-I 34 W/m 9,7 C 9,7 C 9,7 km/h (2 Bft) 96,15 %
25.05.2016 07:36 10,3 C 96 % 1014,0 hPa 0,0 l/m 7,8 km/h (2 Bft) W-SW 257 0 min 0,000 mm 0,0 UV-I 35 W/m 9,7 C 9,3 C 11,3 km/h (2 Bft) 100,00 %
25.05.2016 07:37 10,3 C 96 % 1014,0 hPa 0,0 l/m 6,4 km/h (2 Bft) SW 229 0 min 0,000 mm 0,0 UV-I 37 W/m 9,7 C 10,3 C 8,0 km/h (2 Bft) 100,00 %
25.05.2016 07:38 10,3 C 96 % 1014,0 hPa 0,0 l/m 7,5 km/h (2 Bft) SW 234 0 min 0,000 mm 0,0 UV-I 39 W/m 9,7 C 9,5 C 11,3 km/h (2 Bft) 100,00 %
25.05.2016 07:39 10,3 C 96 % 1014,0 hPa 0,0 l/m 6,1 km/h (2 Bft) W-SW 255 0 min 0,000 mm 0,0 UV-I 41 W/m 9,7 C 10,3 C 8,0 km/h (2 Bft) 100,00 %
25.05.2016 07:40 10,3 C 96 % 1014,0 hPa 0,0 l/m 8,6 km/h (2 Bft) SW 217 0 min 0,000 mm 0,0 UV-I 43 W/m 9,7 C 8,8 C 11,3 km/h (2 Bft) 100,00 %
25.05.2016 07:41 10,3 C 96 % 1014,0 hPa 0,0 l/m 7,9 km/h (2 Bft) SW 229 0 min 0,000 mm 0,0 UV-I 46 W/m 9,7 C 9,2 C 11,3 km/h (2 Bft) 94,12 %
25.05.2016 07:42 10,3 C 96 % 1014,0 hPa 0,0 l/m 7,0 km/h (2 Bft) SW 232 0 min 0,000 mm 0,0 UV-I 47 W/m 9,7 C 9,9 C 9,7 km/h (2 Bft) 100,00 %
25.05.2016 07:43 10,4 C 96 % 1014,0 hPa 0,0 l/m 7,6 km/h (2 Bft) W-SW 256 0 min 0,000 mm 0,0 UV-I 49 W/m 9,8 C 9,5 C 11,3 km/h (2 Bft) 100,00 %
25.05.2016 07:44 10,4 C 96 % 1014,0 hPa 0,0 l/m 7,0 km/h (2 Bft) S-SW 213 0 min 0,000 mm 0,0 UV-I 49 W/m 9,8 C 10,0 C 8,0 km/h (2 Bft) 100,00 %
25.05.2016 07:45 10,4 C 96 % 1014,0 hPa 0,0 l/m 9,1 km/h (2 Bft) SW 228 0 min 0,000 mm 0,0 UV-I 52 W/m 9,8 C 8,6 C 12,9 km/h (3 Bft) 100,00 %
25.05.2016 07:46 10,4 C 96 % 1014,0 hPa 0,0 l/m 9,5 km/h (2 Bft) S-SW 202 0 min 0,000 mm 0,0 UV-I 54 W/m 9,8 C 8,3 C 14,5 km/h (3 Bft) 100,00 %
25.05.2016 07:47 10,4 C 96 % 1014,0 hPa 0,0 l/m 6,7 km/h (2 Bft) S-SW 198 0 min 0,000 mm 0,0 UV-I 54 W/m 9,8 C 10,2 C 9,7 km/h (2 Bft) 100,00 %
25.05.2016 07:48 10,4 C 96 % 1014,0 hPa 0,0 l/m 6,9 km/h (2 Bft) S-SW 211 0 min 0,000 mm 0,0 UV-I 56 W/m 9,8 C 10,0 C 11,3 km/h (2 Bft) 100,00 %
25.05.2016 07:49 10,4 C 96 % 1014,0 hPa 0,0 l/m 6,7 km/h (2 Bft) SW 221 0 min 0,000 mm 0,0 UV-I 59 W/m 9,8 C 10,2 C 8,0 km/h (2 Bft) 100,00 %
25.05.2016 07:50 10,4 C 96 % 1014,0 hPa 0,0 l/m 6,9 km/h (2 Bft) W-SW 240 0 min 0,000 mm 0,0 UV-I 62 W/m 9,8 C 10,0 C 9,7 km/h (2 Bft) 96,55 %
25.05.2016 07:51 10,4 C 96 % 1014,0 hPa 0,0 l/m 6,1 km/h (2 Bft) SW 228 0 min 0,000 mm 0,0 UV-I 64 W/m 9,8 C 10,4 C 8,0 km/h (2 Bft) 100,00 %
25.05.2016 07:52 10,4 C 96 % 1014,0 hPa 0,0 l/m 5,8 km/h (2 Bft) SW 217 0 min 0,000 mm 0,0 UV-I 66 W/m 9,8 C 10,4 C 9,7 km/h (2 Bft) 100,00 %
25.05.2016 07:53 10,5 C 96 % 1014,1 hPa 0,0 l/m 5,7 km/h (1 Bft) SW 228 0 min 0,000 mm 0,0 UV-I 68 W/m 9,9 C 10,5 C 8,0 km/h (2 Bft) 100,00 %
25.05.2016 07:54 10,5 C 96 % 1014,1 hPa 0,2 l/m 4,1 km/h (1 Bft) W-NW 282 0 min 0,000 mm 0,0 UV-I 69 W/m 9,9 C 10,5 C 6,4 km/h (2 Bft) 100,00 %
25.05.2016 07:55 10,5 C 96 % 1014,1 hPa 0,0 l/m 3,6 km/h (1 Bft) S-SW 209 0 min 0,000 mm 0,0 UV-I 70 W/m 9,9 C 10,5 C 4,8 km/h (1 Bft) 100,00 %
25.05.2016 07:56 10,6 C 96 % 1014,1 hPa 0,0 l/m 4,5 km/h (1 Bft) W-SW 247 0 min 0,000 mm 0,0 UV-I 70 W/m 10,0 C 10,6 C 6,4 km/h (2 Bft) 100,00 %
25.05.2016 07:57 10,6 C 96 % 1014,1 hPa 0,0 l/m 5,1 km/h (1 Bft) SW 232 0 min 0,000 mm 0,0 UV-I 71 W/m 10,0 C 10,6 C 8,0 km/h (2 Bft) 100,00 %
25.05.2016 07:58 10,6 C 96 % 1014,2 hPa 0,0 l/m 5,0 km/h (1 Bft) SW 220 0 min 0,000 mm 0,0 UV-I 73 W/m 10,0 C 10,6 C 6,4 km/h (2 Bft) 100,00 %
25.05.2016 07:59 10,6 C 96 % 1014,2 hPa 0,0 l/m 4,3 km/h (1 Bft) W-SW 240 0 min 0,000 mm 0,0 UV-I 76 W/m 10,0 C 10,6 C 6,4 km/h (2 Bft) 100,00 %
25.05.2016 08:00 10,6 C 96 % 1014,1 hPa 0,0 l/m 3,5 km/h (1 Bft) SW 226 0 min 0,026 mm 0,0 UV-I 81 W/m 10,0 C 10,6 C 4,8 km/h (1 Bft) 100,00 %
25.05.2016 08:02 10,7 C 96 % 1014,1 hPa 0,0 l/m 4,6 km/h (1 Bft) SW 231 0 min 0,000 mm 0,0 UV-I 87 W/m 10,1 C 10,7 C 8,0 km/h (2 Bft) 100,00 %
25.05.2016 08:03 10,7 C 96 % 1014,1 hPa 0,0 l/m 5,7 km/h (1 Bft) SW 215 0 min 0,000 mm 0,0 UV-I 93 W/m 10,1 C 10,7 C 8,0 km/h (2 Bft) 96,67 %
25.05.2016 08:04 10,6 C 96 % 1014,1 hPa 0,0 l/m 6,4 km/h (2 Bft) SW 227 0 min 0,000 mm 0,0 UV-I 97 W/m 10,0 C 10,6 C 8,0 km/h (2 Bft) 94,12 %
25.05.2016 08:05 10,6 C 96 % 1014,2 hPa 0,0 l/m 5,2 km/h (1 Bft) SW 235 0 min 0,000 mm 0,0 UV-I 102 W/m 10,0 C 10,6 C 8,0 km/h (2 Bft) 100,00 %
25.05.2016 08:06 10,7 C 96 % 1014,2 hPa 0,0 l/m 5,2 km/h (1 Bft) S 184 0 min 0,000 mm 0,0 UV-I 104 W/m 10,1 C 10,7 C 8,0 km/h (2 Bft) 100,00 %
25.05.2016 08:07 10,7 C 96 % 1014,2 hPa 0,0 l/m 6,8 km/h (2 Bft) W-SW 238 0 min 0,000 mm 0,0 UV-I 105 W/m 10,1 C 10,4 C 8,0 km/h (2 Bft) 100,00 %
25.05.2016 08:08 10,7 C 96 % 1014,2 hPa 0,0 l/m 8,2 km/h (2 Bft) SW 234 0 min 0,000 mm 0,0 UV-I 105 W/m 10,1 C 9,5 C 12,9 km/h (3 Bft) 100,00 %
25.05.2016 08:09 10,7 C 96 % 1014,2 hPa 0,0 l/m 5,6 km/h (1 Bft) W-SW 252 0 min 0,000 mm 0,0 UV-I 104 W/m 10,1 C 10,7 C 6,4 km/h (2 Bft) 100,00 %
25.05.2016 08:10 10,7 C 96 % 1014,2 hPa 0,0 l/m 5,4 km/h (1 Bft) SW 221 0 min 0,000 mm 0,0 UV-I 103 W/m 10,1 C 10,7 C 9,7 km/h (2 Bft) 100,00 %
25.05.2016 08:11 10,7 C 95 % 1014,2 hPa 0,0 l/m 6,8 km/h (2 Bft) S-SW 194 0 min 0,000 mm 0,0 UV-I 102 W/m 9,9 C 10,4 C 8,0 km/h (2 Bft) 96,15 %
25.05.2016 08:12 10,7 C 95 % 1014,3 hPa 0,0 l/m 4,8 km/h (1 Bft) S-SW 201 0 min 0,000 mm 0,0 UV-I 100 W/m 9,9 C 10,7 C 6,4 km/h (2 Bft) 100,00 %
25.05.2016 08:13 10,7 C 95 % 1014,3 hPa 0,0 l/m 5,5 km/h (1 Bft) SW 235 0 min 0,000 mm 0,0 UV-I 100 W/m 9,9 C 10,7 C 8,0 km/h (2 Bft) 98,79 %
25.05.2016 08:14 10,7 C 95 % 1014,2 hPa 0,0 l/m 8,8 km/h (2 Bft) S-SW 199 0 min 0,000 mm 0,0 UV-I 98 W/m 9,9 C 9,1 C 12,9 km/h (3 Bft) 100,00 %
25.05.2016 08:15 10,7 C 95 % 1014,3 hPa 0,0 l/m 7,4 km/h (2 Bft) W-SW 242 0 min 0,000 mm 0,0 UV-I 95 W/m 9,9 C 10,0 C 11,3 km/h (2 Bft) 96,15 %
25.05.2016 08:16 10,7 C 95 % 1014,3 hPa 0,0 l/m 6,9 km/h (2 Bft) SW 225 0 min 0,000 mm 0,0 UV-I 92 W/m 9,9 C 10,4 C 8,0 km/h (2 Bft) 100,00 %
25.05.2016 08:17 10,8 C 95 % 1014,3 hPa 0,0 l/m 5,1 km/h (1 Bft) S-SW 212 0 min 0,000 mm 0,0 UV-I 90 W/m 10,0 C 10,8 C 6,4 km/h (2 Bft) 97,56 %
25.05.2016 08:18 10,8 C 95 % 1014,3 hPa 0,0 l/m 7,0 km/h (2 Bft) S-SW 202 0 min 0,000 mm 0,0 UV-I 90 W/m 10,0 C 10,4 C 9,7 km/h (2 Bft) 95,83 %
25.05.2016 08:19 10,8 C 95 % 1014,3 hPa 0,0 l/m 5,6 km/h (1 Bft) S-SW 199 0 min 0,000 mm 0,0 UV-I 89 W/m 10,0 C 10,8 C 8,0 km/h (2 Bft) 100,00 %
25.05.2016 08:20 10,8 C 95 % 1014,3 hPa 0,0 l/m 6,4 km/h (2 Bft) S-SW 197 0 min 0,000 mm 0,0 UV-I 85 W/m 10,0 C 10,8 C 8,0 km/h (2 Bft) 95,83 %
25.05.2016 08:21 10,8 C 95 % 1014,3 hPa 0,0 l/m 6,1 km/h (2 Bft) S 188 0 min 0,000 mm 0,0 UV-I 82 W/m 10,0 C 10,8 C 8,0 km/h (2 Bft) 100,00 %
25.05.2016 08:22 10,8 C 95 % 1014,3 hPa 0,0 l/m 4,7 km/h (1 Bft) S 175 0 min 0,000 mm 0,0 UV-I 78 W/m 10,0 C 10,8 C 6,4 km/h (2 Bft) 95,83 %
25.05.2016 08:23 10,8 C 95 % 1014,3 hPa 0,0 l/m 3,9 km/h (1 Bft) S-SW 194 0 min 0,000 mm 0,0 UV-I 76 W/m 10,0 C 10,8 C 6,4 km/h (2 Bft) 96,15 %
25.05.2016 08:24 10,8 C 95 % 1014,4 hPa 0,0 l/m 6,4 km/h (2 Bft) S-SW 213 0 min 0,000 mm 0,0 UV-I 76 W/m 10,0 C 10,8 C 8,0 km/h (2 Bft) 98,76 %
25.05.2016 08:25 10,8 C 95 % 1014,4 hPa 0,0 l/m 5,8 km/h (2 Bft) SW 236 0 min 0,000 mm 0,0 UV-I 77 W/m 10,0 C 10,8 C 8,0 km/h (2 Bft) 97,56 %
25.05.2016 08:26 10,8 C 95 % 1014,4 hPa 0,0 l/m 5,1 km/h (1 Bft) S-SW 198 0 min 0,000 mm 0,0 UV-I 78 W/m 10,0 C 10,8 C 6,4 km/h (2 Bft) 96,30 %
25.05.2016 08:27 10,8 C 95 % 1014,4 hPa 0,0 l/m 6,4 km/h (2 Bft) W-SW 238 0 min 0,000 mm 0,0 UV-I 78 W/m 10,0 C 10,8 C 9,7 km/h (2 Bft) 96,15 %
25.05.2016 08:28 10,8 C 95 % 1014,4 hPa 0,0 l/m 8,3 km/h (2 Bft) SW 220 0 min 0,000 mm 0,0 UV-I 76 W/m 10,0 C 9,5 C 11,3 km/h (2 Bft) 100,00 %
25.05.2016 08:29 10,9 C 95 % 1014,4 hPa 0,0 l/m 7,6 km/h (2 Bft) SW 220 0 min 0,000 mm 0,0 UV-I 74 W/m 10,1 C 10,1 C 9,7 km/h (2 Bft) 92,31 %
25.05.2016 08:30 10,9 C 95 % 1014,4 hPa 0,0 l/m 6,1 km/h (2 Bft) S-SO 165 0 min 0,000 mm 0,0 UV-I 70 W/m 10,1 C 10,9 C 8,0 km/h (2 Bft) 96,67 %
25.05.2016 08:31 10,9 C 95 % 1014,4 hPa 0,0 l/m 6,2 km/h (2 Bft) W-SW 239 0 min 0,000 mm 0,0 UV-I 68 W/m 10,1 C 10,9 C 8,0 km/h (2 Bft) 98,71 %
25.05.2016 08:32 10,9 C 95 % 1014,4 hPa 0,0 l/m 7,0 km/h (2 Bft) W-SW 251 0 min 0,000 mm 0,0 UV-I 65 W/m 10,1 C 10,5 C 9,7 km/h (2 Bft) 97,73 %
25.05.2016 08:33 10,9 C 95 % 1014,4 hPa 0,0 l/m 5,3 km/h (1 Bft) SW 231 0 min 0,000 mm 0,0 UV-I 64 W/m 10,1 C 10,9 C 6,4 km/h (2 Bft) 100,00 %
25.05.2016 08:34 10,9 C 95 % 1014,4 hPa 0,0 l/m 6,9 km/h (2 Bft) S-SW 212 0 min 0,000 mm 0,0 UV-I 63 W/m 10,1 C 10,6 C 9,7 km/h (2 Bft) 95,65 %
25.05.2016 08:35 10,9 C 95 % 1014,4 hPa 0,0 l/m 5,9 km/h (2 Bft) SW 225 0 min 0,000 mm 0,0 UV-I 63 W/m 10,1 C 10,9 C 9,7 km/h (2 Bft) 95,83 %
25.05.2016 08:36 10,9 C 95 % 1014,4 hPa 0,0 l/m 8,9 km/h (2 Bft) S-SW 192 0 min 0,000 mm 0,0 UV-I 62 W/m 10,1 C 9,2 C 14,5 km/h (3 Bft) 95,65 %
25.05.2016 08:37 10,9 C 95 % 1014,4 hPa 0,0 l/m 7,3 km/h (2 Bft) SW 231 0 min 0,000 mm 0,0 UV-I 59 W/m 10,1 C 10,3 C 9,7 km/h (2 Bft) 100,00 %
25.05.2016 08:38 10,9 C 94 % 1014,4 hPa 0,0 l/m 6,0 km/h (2 Bft) S 185 0 min 0,000 mm 0,0 UV-I 56 W/m 10,0 C 10,9 C 8,0 km/h (2 Bft) 95,65 %
25.05.2016 08:39 10,9 C 94 % 1014,4 hPa 0,0 l/m 5,9 km/h (2 Bft) S 178 0 min 0,000 mm 0,0 UV-I 53 W/m 10,0 C 10,9 C 9,7 km/h (2 Bft) 95,83 %
25.05.2016 08:40 10,9 C 94 % 1014,4 hPa 0,0 l/m 7,7 km/h (2 Bft) SW 222 0 min 0,000 mm 0,0 UV-I 51 W/m 10,0 C 10,0 C 11,3 km/h (2 Bft) 100,00 %
25.05.2016 08:41 10,9 C 95 % 1014,4 hPa 0,0 l/m 7,6 km/h (2 Bft) SW 214 0 min 0,000 mm 0,0 UV-I 51 W/m 10,1 C 10,1 C 11,3 km/h (2 Bft) 96,77 %
25.05.2016 08:42 10,9 C 94 % 1014,4 hPa 0,0 l/m 9,2 km/h (2 Bft) S-SW 197 0 min 0,000 mm 0,0 UV-I 51 W/m 10,0 C 9,0 C 12,9 km/h (3 Bft) 100,00 %
25.05.2016 08:43 10,9 C 94 % 1014,4 hPa 0,0 l/m 6,6 km/h (2 Bft) SW 216 0 min 0,000 mm 0,0 UV-I 51 W/m 10,0 C 10,8 C 9,7 km/h (2 Bft) 96,30 %
25.05.2016 08:44 10,9 C 94 % 1014,4 hPa 0,0 l/m 7,9 km/h (2 Bft) S 173 0 min 0,000 mm 0,0 UV-I 52 W/m 10,0 C 9,9 C 12,9 km/h (3 Bft) 100,00 %
25.05.2016 08:45 10,9 C 95 % 1014,3 hPa 0,0 l/m 7,4 km/h (2 Bft) S-SW 201 0 min 0,000 mm 0,0 UV-I 54 W/m 10,1 C 10,2 C 9,7 km/h (2 Bft) 96,30 %
25.05.2016 08:46 10,9 C 94 % 1014,3 hPa 0,0 l/m 6,0 km/h (2 Bft) SW 233 0 min 0,000 mm 0,0 UV-I 54 W/m 10,0 C 10,9 C 9,7 km/h (2 Bft) 100,00 %
25.05.2016 08:47 10,9 C 94 % 1014,3 hPa 0,0 l/m 5,1 km/h (1 Bft) S-SW 208 0 min 0,000 mm 0,0 UV-I 56 W/m 10,0 C 10,9 C 9,7 km/h (2 Bft) 93,33 %
25.05.2016 08:48 10,9 C 94 % 1014,3 hPa 0,0 l/m 9,1 km/h (2 Bft) SW 214 0 min 0,000 mm 0,0 UV-I 60 W/m 10,0 C 9,1 C 12,9 km/h (3 Bft) 96,43 %
25.05.2016 08:49 10,9 C 94 % 1014,3 hPa 0,0 l/m 9,9 km/h (2 Bft) S 184 0 min 0,000 mm 0,0 UV-I 61 W/m 10,0 C 8,6 C 14,5 km/h (3 Bft) 95,65 %
25.05.2016 08:50 10,9 C 94 % 1014,3 hPa 0,0 l/m 8,1 km/h (2 Bft) SW 227 0 min 0,000 mm 0,0 UV-I 64 W/m 10,0 C 9,7 C 14,5 km/h (3 Bft) 95,83 %
25.05.2016 08:51 11,0 C 94 % 1014,3 hPa 0,0 l/m 6,5 km/h (2 Bft) SW 219 0 min 0,000 mm 0,0 UV-I 66 W/m 10,1 C 11,0 C 9,7 km/h (2 Bft) 100,00 %
25.05.2016 08:52 11,0 C 94 % 1014,3 hPa 0,0 l/m 7,0 km/h (2 Bft) SW 218 0 min 0,000 mm 0,0 UV-I 69 W/m 10,1 C 10,6 C 12,9 km/h (3 Bft) 100,00 %
25.05.2016 08:53 11,0 C 94 % 1014,3 hPa 0,0 l/m 9,2 km/h (2 Bft) SW 218 0 min 0,000 mm 0,0 UV-I 70 W/m 10,1 C 9,2 C 12,9 km/h (3 Bft) 93,10 %
25.05.2016 08:54 11,0 C 94 % 1014,3 hPa 0,0 l/m 6,8 km/h (2 Bft) SW 228 0 min 0,000 mm 0,0 UV-I 71 W/m 10,1 C 10,7 C 11,3 km/h (2 Bft) 100,00 %
25.05.2016 08:55 11,1 C 94 % 1014,3 hPa 0,0 l/m 5,8 km/h (2 Bft) W-SW 243 0 min 0,000 mm 0,0 UV-I 72 W/m 10,2 C 11,1 C 8,0 km/h (2 Bft) 100,00 %
25.05.2016 08:56 11,1 C 94 % 1014,3 hPa 0,0 l/m 8,3 km/h (2 Bft) W-SW 257 0 min 0,000 mm 0,0 UV-I 72 W/m 10,2 C 9,8 C 14,5 km/h (3 Bft) 93,33 %
25.05.2016 08:57 11,1 C 95 % 1014,3 hPa 0,0 l/m 6,3 km/h (2 Bft) S-SW 210 0 min 0,000 mm 0,0 UV-I 73 W/m 10,3 C 11,1 C 9,7 km/h (2 Bft) 100,00 %
25.05.2016 08:58 11,1 C 94 % 1014,3 hPa 0,0 l/m 6,6 km/h (2 Bft) S-SW 205 0 min 0,000 mm 0,0 UV-I 74 W/m 10,2 C 11,0 C 9,7 km/h (2 Bft) 100,00 %
25.05.2016 08:59 11,1 C 95 % 1014,4 hPa 0,0 l/m 8,2 km/h (2 Bft) SW 222 0 min 0,000 mm 0,0 UV-I 74 W/m 10,3 C 9,9 C 14,5 km/h (3 Bft) 92,31 %
25.05.2016 09:00 11,1 C 94 % 1014,4 hPa 0,0 l/m 9,7 km/h (2 Bft) SW 227 0 min 0,000 mm 0,0 UV-I 75 W/m 10,2 C 9,0 C 16,1 km/h (3 Bft) 100,00 %
25.05.2016 09:02 11,1 C 94 % 1014,4 hPa 0,0 l/m 8,2 km/h (2 Bft) SW 235 0 min 0,051 mm 0,0 UV-I 76 W/m 10,2 C 9,9 C 17,7 km/h (3 Bft) 98,00 %
25.05.2016 09:03 11,1 C 94 % 1014,4 hPa 0,0 l/m 8,6 km/h (2 Bft) W-SW 242 0 min 0,000 mm 0,0 UV-I 77 W/m 10,2 C 9,6 C 14,5 km/h (3 Bft) 95,65 %
25.05.2016 09:04 11,1 C 94 % 1014,3 hPa 0,0 l/m 7,4 km/h (2 Bft) S 190 0 min 0,000 mm 0,0 UV-I 79 W/m 10,2 C 10,4 C 9,7 km/h (2 Bft) 100,00 %
25.05.2016 09:05 11,1 C 94 % 1014,4 hPa 0,0 l/m 9,7 km/h (2 Bft) SW 220 0 min 0,000 mm 0,0 UV-I 79 W/m 10,2 C 9,0 C 14,5 km/h (3 Bft) 100,00 %
25.05.2016 09:06 11,1 C 94 % 1014,4 hPa 0,0 l/m 9,3 km/h (2 Bft) W-SW 241 0 min 0,000 mm 0,0 UV-I 81 W/m 10,2 C 9,2 C 14,5 km/h (3 Bft) 96,30 %
25.05.2016 09:07 11,1 C 94 % 1014,4 hPa 0,0 l/m 6,5 km/h (2 Bft) S-SW 200 0 min 0,000 mm 0,0 UV-I 81 W/m 10,2 C 11,1 C 11,3 km/h (2 Bft) 92,86 %
25.05.2016 09:08 11,1 C 94 % 1014,4 hPa 0,0 l/m 9,0 km/h (2 Bft) SW 229 0 min 0,000 mm 0,0 UV-I 81 W/m 10,2 C 9,4 C 12,9 km/h (3 Bft) 100,00 %
25.05.2016 09:09 11,2 C 94 % 1014,3 hPa 0,0 l/m 8,0 km/h (2 Bft) S-SW 199 0 min 0,000 mm 0,0 UV-I 81 W/m 10,3 C 10,1 C 11,3 km/h (2 Bft) 100,00 %
25.05.2016 09:10 11,2 C 94 % 1014,4 hPa 0,0 l/m 5,9 km/h (2 Bft) SW 225 0 min 0,000 mm 0,0 UV-I 81 W/m 10,3 C 11,2 C 8,0 km/h (2 Bft) 100,00 %
25.05.2016 09:11 11,2 C 94 % 1014,4 hPa 0,0 l/m 6,2 km/h (2 Bft) SW 231 0 min 0,000 mm 0,0 UV-I 83 W/m 10,3 C 11,2 C 8,0 km/h (2 Bft) 100,00 %
25.05.2016 09:12 11,2 C 94 % 1014,4 hPa 0,0 l/m 10,2 km/h (2 Bft) S-SW 208 0 min 0,000 mm 0,0 UV-I 85 W/m 10,3 C 8,8 C 12,9 km/h (3 Bft) 100,00 %
25.05.2016 09:13 11,2 C 94 % 1014,3 hPa 0,0 l/m 9,3 km/h (2 Bft) SW 225 0 min 0,000 mm 0,1 UV-I 90 W/m 10,3 C 9,3 C 12,9 km/h (3 Bft) 100,00 %
25.05.2016 09:14 11,2 C 94 % 1014,4 hPa 0,0 l/m 5,1 km/h (1 Bft) W-SW 248 0 min 0,000 mm 0,5 UV-I 95 W/m 10,3 C 11,2 C 8,0 km/h (2 Bft) 100,00 %
25.05.2016 09:15 11,2 C 94 % 1014,4 hPa 0,0 l/m 7,5 km/h (2 Bft) SW 231 0 min 0,000 mm 0,5 UV-I 102 W/m 10,3 C 10,4 C 11,3 km/h (2 Bft) 100,00 %
25.05.2016 09:16 11,2 C 94 % 1014,3 hPa 0,0 l/m 6,4 km/h (2 Bft) S 184 0 min 0,000 mm 0,5 UV-I 109 W/m 10,3 C 11,2 C 9,7 km/h (2 Bft) 100,00 %
25.05.2016 09:17 11,2 C 93 % 1014,3 hPa 0,0 l/m 5,8 km/h (2 Bft) W-SW 246 0 min 0,000 mm 0,6 UV-I 114 W/m 10,1 C 11,2 C 8,0 km/h (2 Bft) 100,00 %
25.05.2016 09:18 11,3 C 94 % 1014,3 hPa 0,0 l/m 7,0 km/h (2 Bft) S 188 0 min 0,000 mm 0,6 UV-I 119 W/m 10,4 C 10,9 C 8,0 km/h (2 Bft) 100,00 %
25.05.2016 09:19 11,3 C 94 % 1014,3 hPa 0,0 l/m 5,2 km/h (1 Bft) S 187 0 min 0,000 mm 0,6 UV-I 120 W/m 10,4 C 11,3 C 8,0 km/h (2 Bft) 100,00 %
25.05.2016 09:20 11,3 C 94 % 1014,3 hPa 0,0 l/m 4,3 km/h (1 Bft) SW 225 0 min 0,000 mm 0,6 UV-I 122 W/m 10,4 C 11,3 C 6,4 km/h (2 Bft) 100,00 %
25.05.2016 09:21 11,3 C 94 % 1014,4 hPa 0,0 l/m 6,6 km/h (2 Bft) W-SW 241 0 min 0,000 mm 0,6 UV-I 124 W/m 10,4 C 11,2 C 9,7 km/h (2 Bft) 100,00 %
25.05.2016 09:22 11,3 C 94 % 1014,3 hPa 0,0 l/m 5,1 km/h (1 Bft) S 176 0 min 0,000 mm 0,6 UV-I 125 W/m 10,4 C 11,3 C 8,0 km/h (2 Bft) 100,00 %
25.05.2016 09:23 11,3 C 94 % 1014,4 hPa 0,0 l/m 4,1 km/h (1 Bft) S-SW 206 0 min 0,000 mm 0,6 UV-I 124 W/m 10,4 C 11,3 C 6,4 km/h (2 Bft) 100,00 %
25.05.2016 09:24 11,4 C 94 % 1014,4 hPa 0,0 l/m 6,1 km/h (2 Bft) S 184 0 min 0,000 mm 0,6 UV-I 122 W/m 10,5 C 11,4 C 9,7 km/h (2 Bft) 100,00 %
25.05.2016 09:25 11,3 C 93 % 1014,4 hPa 0,2 l/m 4,9 km/h (1 Bft) S 186 0 min 0,000 mm 0,6 UV-I 120 W/m 10,2 C 11,3 C 8,0 km/h (2 Bft) 100,00 %
25.05.2016 09:26 11,3 C 94 % 1014,4 hPa 0,0 l/m 1,6 km/h (1 Bft) S 185 0 min 0,000 mm 0,6 UV-I 117 W/m 10,4 C 11,3 C 3,2 km/h (1 Bft) 100,00 %
25.05.2016 09:27 11,3 C 93 % 1014,4 hPa 0,0 l/m 3,2 km/h (1 Bft) S 186 0 min 0,000 mm 0,6 UV-I 114 W/m 10,2 C 11,3 C 4,8 km/h (1 Bft) 100,00 %
25.05.2016 09:28 11,3 C 93 % 1014,4 hPa 0,0 l/m 4,1 km/h (1 Bft) S 189 0 min 0,000 mm 0,6 UV-I 114 W/m 10,2 C 11,3 C 4,8 km/h (1 Bft) 100,00 %
25.05.2016 09:29 11,4 C 93 % 1014,4 hPa 0,0 l/m 1,5 km/h (1 Bft) S 189 0 min 0,000 mm 0,6 UV-I 115 W/m 10,3 C 11,4 C 3,2 km/h (1 Bft) 95,83 %
25.05.2016 09:30 11,4 C 93 % 1014,4 hPa 0,0 l/m 2,6 km/h (1 Bft) S 189 0 min 0,000 mm 0,6 UV-I 119 W/m 10,3 C 11,4 C 3,2 km/h (1 Bft) 100,00 %
25.05.2016 09:31 11,4 C 93 % 1014,4 hPa 0,0 l/m 2,2 km/h (1 Bft) S 187 0 min 0,000 mm 0,6 UV-I 123 W/m 10,3 C 11,4 C 4,8 km/h (1 Bft) 100,00 %
25.05.2016 09:32 11,4 C 93 % 1014,4 hPa 0,0 l/m 4,8 km/h (1 Bft) W-SW 246 0 min 0,000 mm 0,6 UV-I 128 W/m 10,3 C 11,4 C 6,4 km/h (2 Bft) 100,00 %
25.05.2016 09:33 11,4 C 93 % 1014,4 hPa 0,0 l/m 8,0 km/h (2 Bft) W-SW 257 0 min 0,000 mm 0,7 UV-I 134 W/m 10,3 C 10,3 C 11,3 km/h (2 Bft) 100,00 %
25.05.2016 09:34 11,4 C 93 % 1014,3 hPa 0,0 l/m 4,6 km/h (1 Bft) W-SW 240 0 min 0,000 mm 0,7 UV-I 143 W/m 10,3 C 11,4 C 4,8 km/h (1 Bft) 100,00 %
25.05.2016 09:35 11,5 C 93 % 1014,4 hPa 0,0 l/m 7,0 km/h (2 Bft) SW 235 0 min 0,000 mm 0,8 UV-I 151 W/m 10,4 C 11,1 C 9,7 km/h (2 Bft) 96,15 %
25.05.2016 09:36 11,5 C 93 % 1014,3 hPa 0,0 l/m 7,1 km/h (2 Bft) SW 232 0 min 0,000 mm 0,8 UV-I 160 W/m 10,4 C 11,0 C 9,7 km/h (2 Bft) 100,00 %
25.05.2016 09:37 11,6 C 93 % 1014,3 hPa 0,0 l/m 6,0 km/h (2 Bft) SW 232 0 min 0,000 mm 0,8 UV-I 166 W/m 10,5 C 11,6 C 8,0 km/h (2 Bft) 100,00 %
25.05.2016 09:38 11,6 C 93 % 1014,3 hPa 0,0 l/m 5,5 km/h (1 Bft) SW 219 0 min 0,000 mm 0,9 UV-I 171 W/m 10,5 C 11,6 C 9,7 km/h (2 Bft) 100,00 %
25.05.2016 09:39 11,6 C 93 % 1014,3 hPa 0,0 l/m 4,1 km/h (1 Bft) S-SW 198 0 min 0,000 mm 0,9 UV-I 171 W/m 10,5 C 11,6 C 4,8 km/h (1 Bft) 100,00 %
25.05.2016 09:40 11,6 C 93 % 1014,3 hPa 0,0 l/m 2,9 km/h (1 Bft) S-SW 200 0 min 0,000 mm 0,9 UV-I 169 W/m 10,5 C 11,6 C 4,8 km/h (1 Bft) 100,00 %
25.05.2016 09:41 11,6 C 93 % 1014,4 hPa 0,0 l/m 4,9 km/h (1 Bft) W-SW 237 0 min 0,000 mm 0,9 UV-I 165 W/m 10,5 C 11,6 C 6,4 km/h (2 Bft) 100,00 %
25.05.2016 09:42 11,6 C 93 % 1014,4 hPa 0,0 l/m 5,2 km/h (1 Bft) SW 234 0 min 0,000 mm 0,9 UV-I 162 W/m 10,5 C 11,6 C 8,0 km/h (2 Bft) 100,00 %
25.05.2016 09:43 11,6 C 93 % 1014,3 hPa 0,0 l/m 6,0 km/h (2 Bft) W-SW 242 0 min 0,000 mm 0,9 UV-I 159 W/m 10,5 C 11,6 C 8,0 km/h (2 Bft) 93,33 %
25.05.2016 09:44 11,7 C 94 % 1014,4 hPa 0,0 l/m 4,4 km/h (1 Bft) W-SW 253 0 min 0,000 mm 0,8 UV-I 157 W/m 10,8 C 11,7 C 6,4 km/h (2 Bft) 100,00 %
25.05.2016 09:45 11,7 C 94 % 1014,4 hPa 0,0 l/m 3,5 km/h (1 Bft) W-SW 249 0 min 0,000 mm 0,8 UV-I 153 W/m 10,8 C 11,7 C 4,8 km/h (1 Bft) 96,55 %
25.05.2016 09:46 11,7 C 94 % 1014,4 hPa 0,0 l/m 4,2 km/h (1 Bft) S-SW 212 0 min 0,000 mm 0,8 UV-I 148 W/m 10,8 C 11,7 C 6,4 km/h (2 Bft) 100,00 %
25.05.2016 09:47 11,7 C 94 % 1014,4 hPa 0,0 l/m 5,5 km/h (1 Bft) W-SW 241 0 min 0,000 mm 0,8 UV-I 143 W/m 10,8 C 11,7 C 6,4 km/h (2 Bft) 100,00 %
25.05.2016 09:48 11,7 C 94 % 1014,5 hPa 0,0 l/m 4,6 km/h (1 Bft) SW 227 0 min 0,000 mm 0,7 UV-I 139 W/m 10,8 C 11,7 C 6,4 km/h (2 Bft) 100,00 %
25.05.2016 09:49 11,8 C 93 % 1014,5 hPa 0,0 l/m 4,0 km/h (1 Bft) W-SW 238 0 min 0,000 mm 0,7 UV-I 136 W/m 10,7 C 11,8 C 6,4 km/h (2 Bft) 100,00 %
25.05.2016 09:50 11,7 C 93 % 1014,4 hPa 0,0 l/m 3,9 km/h (1 Bft) W-SW 251 0 min 0,000 mm 0,7 UV-I 134 W/m 10,6 C 11,7 C 6,4 km/h (2 Bft) 100,00 %
25.05.2016 09:51 11,8 C 93 % 1014,4 hPa 0,0 l/m 3,5 km/h (1 Bft) W-SW 254 0 min 0,000 mm 0,7 UV-I 134 W/m 10,7 C 11,8 C 4,8 km/h (1 Bft) 100,00 %
25.05.2016 09:52 11,8 C 94 % 1014,5 hPa 0,0 l/m 3,7 km/h (1 Bft) S 188 0 min 0,000 mm 0,7 UV-I 136 W/m 10,9 C 11,8 C 6,4 km/h (2 Bft) 100,00 %
25.05.2016 09:53 11,8 C 94 % 1014,5 hPa 0,0 l/m 3,6 km/h (1 Bft) SW 218 0 min 0,000 mm 0,7 UV-I 140 W/m 10,9 C 11,8 C 6,4 km/h (2 Bft) 100,00 %
25.05.2016 09:54 11,8 C 93 % 1014,5 hPa 0,0 l/m 4,5 km/h (1 Bft) W-SW 244 0 min 0,000 mm 0,8 UV-I 142 W/m 10,7 C 11,8 C 9,7 km/h (2 Bft) 100,00 %
25.05.2016 09:55 11,8 C 94 % 1014,4 hPa 0,0 l/m 4,4 km/h (1 Bft) W-SW 257 0 min 0,000 mm 0,8 UV-I 146 W/m 10,9 C 11,8 C 4,8 km/h (1 Bft) 100,00 %
25.05.2016 09:56 11,9 C 94 % 1014,4 hPa 0,0 l/m 5,2 km/h (1 Bft) W-SW 239 0 min 0,000 mm 0,8 UV-I 146 W/m 11,0 C 11,9 C 6,4 km/h (2 Bft) 92,31 %
25.05.2016 09:57 11,9 C 94 % 1014,4 hPa 0,0 l/m 6,4 km/h (2 Bft) SW 236 0 min 0,000 mm 0,8 UV-I 148 W/m 11,0 C 11,9 C 8,0 km/h (2 Bft) 98,69 %
25.05.2016 09:58 11,9 C 93 % 1014,4 hPa 0,0 l/m 6,6 km/h (2 Bft) W-SW 248 0 min 0,000 mm 0,8 UV-I 150 W/m 10,8 C 11,8 C 8,0 km/h (2 Bft) 100,00 %
25.05.2016 09:59 11,9 C 93 % 1014,4 hPa 0,0 l/m 5,9 km/h (2 Bft) SW 226 0 min 0,000 mm 0,8 UV-I 151 W/m 10,8 C 11,9 C 8,0 km/h (2 Bft) 100,00 %
25.05.2016 10:00 11,9 C 94 % 1014,4 hPa 0,0 l/m 6,6 km/h (2 Bft) W-SW 244 0 min 0,000 mm 0,8 UV-I 152 W/m 11,0 C 11,8 C 8,0 km/h (2 Bft) 100,00 %
25.05.2016 10:02 11,9 C 93 % 1014,4 hPa 0,0 l/m 6,9 km/h (2 Bft) SW 222 0 min 0,076 mm 0,8 UV-I 155 W/m 10,8 C 11,6 C 9,7 km/h (2 Bft) 98,00 %
25.05.2016 10:03 11,9 C 93 % 1014,4 hPa 0,0 l/m 5,0 km/h (1 Bft) W-SW 250 0 min 0,000 mm 0,9 UV-I 155 W/m 10,8 C 11,9 C 6,4 km/h (2 Bft) 100,00 %
25.05.2016 10:04 12,0 C 93 % 1014,3 hPa 0,0 l/m 5,3 km/h (1 Bft) W-SW 250 0 min 0,000 mm 0,9 UV-I 157 W/m 10,9 C 12,0 C 8,0 km/h (2 Bft) 96,15 %
25.05.2016 10:05 12,0 C 94 % 1014,3 hPa 0,0 l/m 3,9 km/h (1 Bft) W 259 0 min 0,000 mm 0,9 UV-I 160 W/m 11,1 C 12,0 C 4,8 km/h (1 Bft) 100,00 %
25.05.2016 10:06 12,0 C 93 % 1014,3 hPa 0,0 l/m 3,4 km/h (1 Bft) W 277 0 min 0,000 mm 0,9 UV-I 163 W/m 10,9 C 12,0 C 4,8 km/h (1 Bft) 100,00 %
25.05.2016 10:07 12,0 C 94 % 1014,3 hPa 0,0 l/m 5,6 km/h (1 Bft) SW 215 0 min 0,000 mm 0,9 UV-I 168 W/m 11,1 C 12,0 C 8,0 km/h (2 Bft) 100,00 %
25.05.2016 10:08 12,1 C 94 % 1014,3 hPa 0,0 l/m 4,7 km/h (1 Bft) W-SW 243 0 min 0,000 mm 1,0 UV-I 172 W/m 11,2 C 12,1 C 6,4 km/h (2 Bft) 100,00 %
25.05.2016 10:09 12,1 C 94 % 1014,3 hPa 0,0 l/m 5,5 km/h (1 Bft) W 259 0 min 0,000 mm 1,0 UV-I 178 W/m 11,2 C 12,1 C 6,4 km/h (2 Bft) 100,00 %
25.05.2016 10:10 12,1 C 93 % 1014,3 hPa 0,0 l/m 4,3 km/h (1 Bft) W 263 0 min 0,000 mm 1,0 UV-I 182 W/m 11,0 C 12,1 C 6,4 km/h (2 Bft) 100,00 %
25.05.2016 10:11 12,1 C 93 % 1014,3 hPa 0,0 l/m 4,5 km/h (1 Bft) S-SW 205 0 min 0,000 mm 1,1 UV-I 187 W/m 11,0 C 12,1 C 6,4 km/h (2 Bft) 100,00 %
25.05.2016 10:12 12,1 C 93 % 1014,3 hPa 0,0 l/m 6,8 km/h (2 Bft) W-SW 257 0 min 0,000 mm 1,1 UV-I 194 W/m 11,0 C 11,8 C 12,9 km/h (3 Bft) 100,00 %
25.05.2016 10:13 12,1 C 93 % 1014,3 hPa 0,0 l/m 8,3 km/h (2 Bft) SW 227 0 min 0,000 mm 1,1 UV-I 202 W/m 11,0 C 10,9 C 12,9 km/h (3 Bft) 100,00 %
25.05.2016 10:14 12,1 C 92 % 1014,3 hPa 0,0 l/m 6,1 km/h (2 Bft) SW 234 0 min 0,000 mm 1,2 UV-I 210 W/m 10,8 C 12,1 C 8,0 km/h (2 Bft) 98,72 %
25.05.2016 10:15 12,1 C 92 % 1014,3 hPa 0,0 l/m 8,4 km/h (2 Bft) SW 232 0 min 0,000 mm 1,3 UV-I 221 W/m 10,8 C 10,8 C 12,9 km/h (3 Bft) 100,00 %
25.05.2016 10:16 12,1 C 92 % 1014,3 hPa 0,0 l/m 7,4 km/h (2 Bft) SW 234 0 min 0,000 mm 1,3 UV-I 233 W/m 10,8 C 11,4 C 9,7 km/h (2 Bft) 95,83 %
25.05.2016 10:17 12,1 C 92 % 1014,3 hPa 0,0 l/m 6,2 km/h (2 Bft) W-SW 253 0 min 0,000 mm 1,4 UV-I 242 W/m 10,8 C 12,1 C 11,3 km/h (2 Bft) 100,00 %
25.05.2016 10:18 12,2 C 93 % 1014,3 hPa 0,0 l/m 5,7 km/h (1 Bft) SW 236 0 min 0,000 mm 1,4 UV-I 250 W/m 11,1 C 12,2 C 8,0 km/h (2 Bft) 91,67 %
25.05.2016 10:19 12,2 C 91 % 1014,3 hPa 0,0 l/m 7,8 km/h (2 Bft) W 269 0 min 0,000 mm 1,4 UV-I 260 W/m 10,8 C 11,3 C 11,3 km/h (2 Bft) 96,55 %
25.05.2016 10:20 12,2 C 91 % 1014,3 hPa 0,0 l/m 4,2 km/h (1 Bft) W 280 0 min 0,000 mm 1,5 UV-I 270 W/m 10,8 C 12,2 C 8,0 km/h (2 Bft) 95,83 %
25.05.2016 10:21 12,2 C 91 % 1014,3 hPa 0,0 l/m 5,5 km/h (1 Bft) W 279 0 min 0,000 mm 1,6 UV-I 283 W/m 10,8 C 12,2 C 9,7 km/h (2 Bft) 100,00 %
25.05.2016 10:22 12,2 C 92 % 1014,3 hPa 0,0 l/m 6,3 km/h (2 Bft) W 263 0 min 0,000 mm 1,7 UV-I 299 W/m 10,9 C 12,2 C 9,7 km/h (2 Bft) 93,33 %
25.05.2016 10:23 12,2 C 91 % 1014,3 hPa 0,0 l/m 5,4 km/h (1 Bft) W 268 0 min 0,000 mm 1,8 UV-I 314 W/m 10,8 C 12,2 C 9,7 km/h (2 Bft) 96,55 %
25.05.2016 10:24 12,3 C 91 % 1014,3 hPa 0,0 l/m 4,7 km/h (1 Bft) W 263 0 min 0,000 mm 1,8 UV-I 337 W/m 10,9 C 12,3 C 9,7 km/h (2 Bft) 100,00 %
25.05.2016 10:25 12,3 C 91 % 1014,3 hPa 0,0 l/m 3,4 km/h (1 Bft) W 260 0 min 0,000 mm 2,0 UV-I 364 W/m 10,9 C 12,3 C 6,4 km/h (2 Bft) 96,15 %
25.05.2016 10:26 12,3 C 91 % 1014,3 hPa 0,0 l/m 4,0 km/h (1 Bft) W 273 0 min 0,000 mm 2,1 UV-I 378 W/m 10,9 C 12,3 C 9,7 km/h (2 Bft) 100,00 %
25.05.2016 10:27 12,3 C 90 % 1014,3 hPa 0,0 l/m 3,5 km/h (1 Bft) W 261 0 min 0,000 mm 2,1 UV-I 382 W/m 10,7 C 12,3 C 4,8 km/h (1 Bft) 93,75 %
25.05.2016 10:28 12,4 C 91 % 1014,3 hPa 0,0 l/m 3,5 km/h (1 Bft) W 267 0 min 0,000 mm 2,1 UV-I 380 W/m 11,0 C 12,4 C 4,8 km/h (1 Bft) 100,00 %
25.05.2016 10:29 12,5 C 91 % 1014,3 hPa 0,0 l/m 3,5 km/h (1 Bft) W-SW 254 0 min 0,000 mm 2,1 UV-I 376 W/m 11,1 C 12,5 C 6,4 km/h (2 Bft) 95,65 %
25.05.2016 10:30 12,6 C 91 % 1014,3 hPa 0,0 l/m 5,0 km/h (1 Bft) W-NW 287 0 min 0,000 mm 2,1 UV-I 369 W/m 11,2 C 12,6 C 6,4 km/h (2 Bft) 91,67 %
25.05.2016 10:31 12,7 C 91 % 1014,3 hPa 0,0 l/m 4,0 km/h (1 Bft) W-SW 242 0 min 0,000 mm 2,1 UV-I 357 W/m 11,3 C 12,7 C 4,8 km/h (1 Bft) 100,00 %
25.05.2016 10:32 12,7 C 92 % 1014,3 hPa 0,0 l/m 4,0 km/h (1 Bft) W 264 0 min 0,000 mm 2,0 UV-I 340 W/m 11,4 C 12,7 C 8,0 km/h (2 Bft) 100,00 %
25.05.2016 10:33 12,8 C 91 % 1014,3 hPa 0,0 l/m 3,9 km/h (1 Bft) SW 214 0 min 0,000 mm 2,0 UV-I 323 W/m 11,4 C 12,8 C 6,4 km/h (2 Bft) 96,30 %
25.05.2016 10:34 12,8 C 91 % 1014,3 hPa 0,0 l/m 5,6 km/h (1 Bft) NW 311 0 min 0,000 mm 2,0 UV-I 308 W/m 11,4 C 12,8 C 8,0 km/h (2 Bft) 95,65 %
25.05.2016 10:35 12,8 C 91 % 1014,2 hPa 0,0 l/m 4,7 km/h (1 Bft) SW 236 0 min 0,000 mm 2,0 UV-I 299 W/m 11,4 C 12,8 C 8,0 km/h (2 Bft) 93,33 %
25.05.2016 10:36 12,8 C 90 % 1014,2 hPa 0,0 l/m 8,5 km/h (2 Bft) W-SW 243 0 min 0,000 mm 1,9 UV-I 294 W/m 11,2 C 11,5 C 11,3 km/h (2 Bft) 96,30 %
25.05.2016 10:37 12,8 C 89 % 1014,2 hPa 0,0 l/m 7,0 km/h (2 Bft) W-SW 249 0 min 0,000 mm 2,0 UV-I 290 W/m 11,0 C 12,4 C 11,3 km/h (2 Bft) 100,00 %
25.05.2016 10:38 12,8 C 89 % 1014,2 hPa 0,0 l/m 8,6 km/h (2 Bft) W-SW 246 0 min 0,000 mm 2,0 UV-I 300 W/m 11,0 C 11,4 C 11,3 km/h (2 Bft) 92,31 %
25.05.2016 10:39 12,8 C 90 % 1014,2 hPa 0,0 l/m 10,6 km/h (2 Bft) W-SW 252 0 min 0,000 mm 2,1 UV-I 317 W/m 11,2 C 10,4 C 14,5 km/h (3 Bft) 92,59 %
25.05.2016 10:40 12,7 C 89 % 1014,2 hPa 0,0 l/m 7,8 km/h (2 Bft) W-SW 249 0 min 0,000 mm 2,1 UV-I 339 W/m 10,9 C 11,8 C 12,9 km/h (3 Bft) 100,00 %
25.05.2016 10:41 12,7 C 89 % 1014,2 hPa 0,0 l/m 9,9 km/h (2 Bft) W 261 0 min 0,000 mm 2,2 UV-I 365 W/m 10,9 C 10,6 C 11,3 km/h (2 Bft) 100,00 %
25.05.2016 10:42 12,7 C 89 % 1014,2 hPa 0,0 l/m 6,4 km/h (2 Bft) W-SW 240 0 min 0,000 mm 2,3 UV-I 389 W/m 10,9 C 12,7 C 11,3 km/h (2 Bft) 96,15 %
25.05.2016 10:43 12,7 C 90 % 1014,2 hPa 0,0 l/m 7,3 km/h (2 Bft) W-SW 242 0 min 0,000 mm 2,3 UV-I 403 W/m 11,1 C 12,1 C 9,7 km/h (2 Bft) 92,59 %
25.05.2016 10:44 12,8 C 90 % 1014,2 hPa 0,0 l/m 9,2 km/h (2 Bft) SW 221 0 min 0,000 mm 2,4 UV-I 415 W/m 11,2 C 11,1 C 12,9 km/h (3 Bft) 100,00 %
25.05.2016 10:45 12,9 C 91 % 1014,2 hPa 0,0 l/m 6,9 km/h (2 Bft) W 261 1 min 0,000 mm 2,4 UV-I 427 W/m 11,5 C 12,6 C 12,9 km/h (3 Bft) 96,55 %
25.05.2016 10:46 12,9 C 91 % 1014,2 hPa 0,0 l/m 9,5 km/h (2 Bft) W-SW 245 1 min 0,000 mm 2,4 UV-I 431 W/m 11,5 C 11,1 C 12,9 km/h (3 Bft) 100,00 %
25.05.2016 10:47 13,0 C 91 % 1014,2 hPa 0,0 l/m 8,0 km/h (2 Bft) S-SW 209 0 min 0,000 mm 2,4 UV-I 426 W/m 11,6 C 12,0 C 11,3 km/h (2 Bft) 93,33 %
25.05.2016 10:48 13,0 C 90 % 1014,2 hPa 0,0 l/m 6,1 km/h (2 Bft) W-SW 242 0 min 0,000 mm 2,3 UV-I 411 W/m 11,4 C 13,0 C 9,7 km/h (2 Bft) 96,30 %
25.05.2016 10:49 13,1 C 91 % 1014,2 hPa 0,0 l/m 5,8 km/h (2 Bft) SW 231 0 min 0,000 mm 2,2 UV-I 399 W/m 11,7 C 13,1 C 9,7 km/h (2 Bft) 95,65 %
25.05.2016 10:50 13,2 C 90 % 1014,2 hPa 0,0 l/m 3,2 km/h (1 Bft) W-SW 238 0 min 0,000 mm 2,2 UV-I 393 W/m 11,6 C 13,2 C 6,4 km/h (2 Bft) 100,00 %
25.05.2016 10:51 13,2 C 91 % 1014,3 hPa 0,0 l/m 1,9 km/h (1 Bft) W-SW 247 0 min 0,000 mm 2,2 UV-I 400 W/m 11,8 C 13,2 C 6,4 km/h (2 Bft) 100,00 %
25.05.2016 10:52 13,2 C 91 % 1014,2 hPa 0,0 l/m 5,9 km/h (2 Bft) W 259 0 min 0,000 mm 2,3 UV-I 415 W/m 11,8 C 13,2 C 6,4 km/h (2 Bft) 100,00 %
25.05.2016 10:53 13,2 C 89 % 1014,2 hPa 0,0 l/m 6,7 km/h (2 Bft) W 270 1 min 0,000 mm 2,5 UV-I 440 W/m 11,4 C 13,0 C 8,0 km/h (2 Bft) 100,00 %
25.05.2016 10:54 13,2 C 88 % 1014,2 hPa 0,0 l/m 4,7 km/h (1 Bft) W 269 1 min 0,000 mm 2,6 UV-I 478 W/m 11,3 C 13,2 C 6,4 km/h (2 Bft) 100,00 %
25.05.2016 10:55 13,2 C 89 % 1014,2 hPa 0,0 l/m 3,6 km/h (1 Bft) NW 317 1 min 0,000 mm 2,8 UV-I 501 W/m 11,4 C 13,2 C 6,4 km/h (2 Bft) 100,00 %
25.05.2016 10:56 13,2 C 89 % 1014,2 hPa 0,0 l/m 4,5 km/h (1 Bft) NW 309 1 min 0,000 mm 2,8 UV-I 504 W/m 11,4 C 13,2 C 8,0 km/h (2 Bft) 96,30 %
25.05.2016 10:57 13,2 C 90 % 1014,1 hPa 0,0 l/m 5,7 km/h (1 Bft) W 273 1 min 0,000 mm 2,9 UV-I 505 W/m 11,6 C 13,2 C 8,0 km/h (2 Bft) 100,00 %
25.05.2016 10:58 13,2 C 89 % 1014,1 hPa 0,0 l/m 3,6 km/h (1 Bft) W 268 1 min 0,000 mm 2,8 UV-I 497 W/m 11,4 C 13,2 C 6,4 km/h (2 Bft) 100,00 %
25.05.2016 10:59 13,3 C 89 % 1014,1 hPa 0,0 l/m 2,1 km/h (1 Bft) W-NW 294 1 min 0,000 mm 2,8 UV-I 484 W/m 11,5 C 13,3 C 3,2 km/h (1 Bft) 100,00 %
25.05.2016 11:00 13,3 C 90 % 1014,1 hPa 0,0 l/m 4,3 km/h (1 Bft) SW 234 1 min 0,000 mm 2,9 UV-I 487 W/m 11,7 C 13,3 C 8,0 km/h (2 Bft) 100,00 %
25.05.2016 11:02 13,4 C 89 % 1014,1 hPa 0,0 l/m 4,8 km/h (1 Bft) NW 315 2 min 0,152 mm 3,1 UV-I 555 W/m 11,6 C 13,4 C 6,4 km/h (2 Bft) 100,00 %
25.05.2016 11:03 13,4 C 89 % 1014,1 hPa 0,0 l/m 3,0 km/h (1 Bft) W-NW 295 1 min 0,000 mm 3,1 UV-I 556 W/m 11,6 C 13,4 C 6,4 km/h (2 Bft) 95,65 %
25.05.2016 11:04 13,4 C 88 % 1014,1 hPa 0,0 l/m 7,0 km/h (2 Bft) W 273 1 min 0,000 mm 3,1 UV-I 538 W/m 11,5 C 13,0 C 12,9 km/h (3 Bft) 100,00 %
25.05.2016 11:05 13,4 C 87 % 1014,1 hPa 0,0 l/m 5,1 km/h (1 Bft) NW 320 1 min 0,000 mm 3,0 UV-I 518 W/m 11,3 C 13,4 C 11,3 km/h (2 Bft) 100,00 %
25.05.2016 11:06 13,4 C 87 % 1014,0 hPa 0,0 l/m 7,1 km/h (2 Bft) W 259 1 min 0,000 mm 3,0 UV-I 536 W/m 11,3 C 13,0 C 11,3 km/h (2 Bft) 100,00 %
25.05.2016 11:07 13,4 C 87 % 1014,0 hPa 0,0 l/m 7,5 km/h (2 Bft) W-SW 237 1 min 0,000 mm 3,2 UV-I 589 W/m 11,3 C 12,7 C 11,3 km/h (2 Bft) 100,00 %
25.05.2016 11:08 13,5 C 88 % 1014,0 hPa 0,0 l/m 7,9 km/h (2 Bft) NW 313 1 min 0,000 mm 3,2 UV-I 592 W/m 11,6 C 12,6 C 9,7 km/h (2 Bft) 100,00 %
25.05.2016 11:09 13,5 C 88 % 1014,0 hPa 0,0 l/m 3,8 km/h (1 Bft) W-SW 243 1 min 0,000 mm 3,4 UV-I 578 W/m 11,6 C 13,5 C 8,0 km/h (2 Bft) 100,00 %
25.05.2016 11:10 13,6 C 89 % 1014,0 hPa 0,0 l/m 3,9 km/h (1 Bft) W-NW 284 1 min 0,000 mm 3,3 UV-I 580 W/m 11,8 C 13,6 C 6,4 km/h (2 Bft) 100,00 %
25.05.2016 11:11 13,7 C 90 % 1014,0 hPa 0,0 l/m 1,1 km/h (1 Bft) NW 312 1 min 0,000 mm 3,3 UV-I 557 W/m 12,1 C 13,7 C 3,2 km/h (1 Bft) 100,00 %
25.05.2016 11:12 13,7 C 88 % 1013,9 hPa 0,0 l/m 1,3 km/h (1 Bft) W-NW 302 1 min 0,000 mm 3,1 UV-I 484 W/m 11,7 C 13,7 C 3,2 km/h (1 Bft) 100,00 %
25.05.2016 11:13 13,8 C 90 % 1014,0 hPa 0,0 l/m 0,3 km/h (0 Bft) W-NW 302 0 min 0,000 mm 2,9 UV-I 422 W/m 12,2 C 13,8 C 1,6 km/h (1 Bft) 100,00 %
25.05.2016 11:14 13,9 C 90 % 1014,0 hPa 0,0 l/m 0,9 km/h (0 Bft) W-NW 302 0 min 0,000 mm 2,9 UV-I 418 W/m 12,3 C 13,9 C 3,2 km/h (1 Bft) 100,00 %
25.05.2016 11:15 13,9 C 88 % 1014,0 hPa 0,0 l/m 1,9 km/h (1 Bft) N-NW 332 0 min 0,000 mm 3,0 UV-I 446 W/m 11,9 C 13,9 C 3,2 km/h (1 Bft) 100,00 %
25.05.2016 11:16 13,9 C 87 % 1014,0 hPa 0,0 l/m 2,3 km/h (1 Bft) NW 317 1 min 0,000 mm 3,0 UV-I 456 W/m 11,8 C 13,9 C 6,4 km/h (2 Bft) 100,00 %
25.05.2016 11:17 13,8 C 87 % 1014,0 hPa 0,0 l/m 2,9 km/h (1 Bft) W 270 1 min 0,000 mm 2,9 UV-I 452 W/m 11,7 C 13,8 C 6,4 km/h (2 Bft) 100,00 %
25.05.2016 11:18 13,8 C 88 % 1014,0 hPa 0,0 l/m 0,5 km/h (0 Bft) W 275 1 min 0,000 mm 3,0 UV-I 472 W/m 11,8 C 13,8 C 1,6 km/h (1 Bft) 96,15 %
25.05.2016 11:19 13,9 C 89 % 1014,0 hPa 0,0 l/m 2,0 km/h (1 Bft) NW 304 1 min 0,000 mm 3,2 UV-I 533 W/m 12,1 C 13,9 C 3,2 km/h (1 Bft) 100,00 %
25.05.2016 11:20 13,9 C 87 % 1014,0 hPa 0,0 l/m 1,9 km/h (1 Bft) W-NW 303 1 min 0,000 mm 4,0 UV-I 538 W/m 11,8 C 13,9 C 3,2 km/h (1 Bft) 95,65 %
25.05.2016 11:21 13,9 C 88 % 1014,0 hPa 0,0 l/m 1,9 km/h (1 Bft) SO 143 1 min 0,000 mm 3,1 UV-I 515 W/m 11,9 C 13,9 C 3,2 km/h (1 Bft) 100,00 %
25.05.2016 11:22 14,1 C 87 % 1014,0 hPa 0,0 l/m 4,5 km/h (1 Bft) W-SW 257 1 min 0,000 mm 3,1 UV-I 468 W/m 12,0 C 14,1 C 6,4 km/h (2 Bft) 100,00 %
25.05.2016 11:23 14,1 C 87 % 1014,0 hPa 0,0 l/m 7,4 km/h (2 Bft) W 272 1 min 0,000 mm 3,1 UV-I 461 W/m 12,0 C 13,5 C 12,9 km/h (3 Bft) 91,67 %
25.05.2016 11:24 14,1 C 86 % 1014,0 hPa 0,0 l/m 5,2 km/h (1 Bft) W 273 1 min 0,000 mm 3,2 UV-I 474 W/m 11,8 C 14,1 C 9,7 km/h (2 Bft) 96,15 %
25.05.2016 11:25 13,9 C 85 % 1014,0 hPa 0,0 l/m 5,8 km/h (2 Bft) W 279 1 min 0,000 mm 3,3 UV-I 469 W/m 11,4 C 13,9 C 12,9 km/h (3 Bft) 100,00 %
25.05.2016 11:26 13,9 C 86 % 1014,0 hPa 0,0 l/m 4,4 km/h (1 Bft) NW 304 1 min 0,000 mm 3,7 UV-I 527 W/m 11,6 C 13,9 C 6,4 km/h (2 Bft) 100,00 %
25.05.2016 11:27 13,9 C 87 % 1014,0 hPa 0,0 l/m 4,3 km/h (1 Bft) W 259 1 min 0,000 mm 3,8 UV-I 575 W/m 11,8 C 13,9 C 6,4 km/h (2 Bft) 91,67 %
25.05.2016 11:28 13,9 C 85 % 1014,0 hPa 0,0 l/m 2,2 km/h (1 Bft) W 259 1 min 0,000 mm 4,2 UV-I 657 W/m 11,4 C 13,9 C 3,2 km/h (1 Bft) 100,00 %
25.05.2016 11:29 14,1 C 89 % 1014,0 hPa 0,0 l/m 4,0 km/h (1 Bft) W-SW 256 1 min 0,000 mm 4,7 UV-I 850 W/m 12,3 C 14,1 C 6,4 km/h (2 Bft) 100,00 %
25.05.2016 11:30 14,1 C 89 % 1014,1 hPa 0,0 l/m 1,6 km/h (1 Bft) SW 215 1 min 0,000 mm 4,8 UV-I 965 W/m 12,3 C 14,1 C 4,8 km/h (1 Bft) 95,83 %
25.05.2016 11:31 14,1 C 85 % 1014,0 hPa 0,0 l/m 4,6 km/h (1 Bft) SW 224 1 min 0,000 mm 4,2 UV-I 938 W/m 11,6 C 14,1 C 6,4 km/h (2 Bft) 100,00 %
25.05.2016 11:32 14,2 C 86 % 1014,1 hPa 0,0 l/m 1,7 km/h (1 Bft) W-SW 240 1 min 0,000 mm 3,8 UV-I 583 W/m 11,9 C 14,2 C 3,2 km/h (1 Bft) 100,00 %
25.05.2016 11:33 14,2 C 86 % 1014,0 hPa 0,0 l/m 2,4 km/h (1 Bft) W-SW 242 1 min 0,000 mm 3,1 UV-I 490 W/m 11,9 C 14,2 C 4,8 km/h (1 Bft) 100,00 %
25.05.2016 11:34 14,2 C 86 % 1014,0 hPa 0,0 l/m 2,1 km/h (1 Bft) N-NW 334 0 min 0,000 mm 2,8 UV-I 436 W/m 11,9 C 14,2 C 3,2 km/h (1 Bft) 100,00 %
25.05.2016 11:35 14,2 C 85 % 1014,1 hPa 0,0 l/m 1,3 km/h (1 Bft) W 273 0 min 0,000 mm 2,9 UV-I 429 W/m 11,7 C 14,2 C 3,2 km/h (1 Bft) 100,00 %
25.05.2016 11:36 14,3 C 85 % 1014,1 hPa 0,0 l/m 2,5 km/h (1 Bft) W-NW 292 0 min 0,000 mm 2,9 UV-I 435 W/m 11,8 C 14,3 C 4,8 km/h (1 Bft) 100,00 %
25.05.2016 11:37 14,3 C 85 % 1014,1 hPa 0,0 l/m 4,7 km/h (1 Bft) W 262 0 min 0,000 mm 2,9 UV-I 441 W/m 11,8 C 14,3 C 6,4 km/h (2 Bft) 100,00 %
25.05.2016 11:38 14,3 C 84 % 1014,1 hPa 0,0 l/m 5,4 km/h (1 Bft) N-NW 332 0 min 0,000 mm 2,8 UV-I 426 W/m 11,6 C 14,3 C 6,4 km/h (2 Bft) 100,00 %
25.05.2016 11:39 14,2 C 84 % 1014,1 hPa 0,0 l/m 3,4 km/h (1 Bft) NW 309 0 min 0,000 mm 2,4 UV-I 374 W/m 11,5 C 14,2 C 4,8 km/h (1 Bft) 100,00 %
25.05.2016 11:40 14,2 C 84 % 1014,0 hPa 0,0 l/m 2,8 km/h (1 Bft) N 350 0 min 0,000 mm 2,3 UV-I 350 W/m 11,5 C 14,2 C 4,8 km/h (1 Bft) 100,00 %
25.05.2016 11:41 14,1 C 84 % 1014,0 hPa 0,0 l/m 2,7 km/h (1 Bft) NW 314 0 min 0,000 mm 2,3 UV-I 351 W/m 11,4 C 14,1 C 4,8 km/h (1 Bft) 100,00 %
25.05.2016 11:42 14,1 C 85 % 1014,0 hPa 0,0 l/m 4,1 km/h (1 Bft) NW 317 0 min 0,000 mm 2,4 UV-I 365 W/m 11,6 C 14,1 C 8,0 km/h (2 Bft) 100,00 %
25.05.2016 11:43 14,1 C 84 % 1014,0 hPa 0,0 l/m 5,8 km/h (2 Bft) NW 320 0 min 0,000 mm 2,5 UV-I 380 W/m 11,4 C 14,1 C 8,0 km/h (2 Bft) 100,00 %
25.05.2016 11:44 14,0 C 84 % 1014,0 hPa 0,0 l/m 2,4 km/h (1 Bft) NW 309 0 min 0,000 mm 2,5 UV-I 372 W/m 11,3 C 14,0 C 6,4 km/h (2 Bft) 95,83 %
25.05.2016 11:45 14,1 C 84 % 1014,0 hPa 0,0 l/m 3,6 km/h (1 Bft) W 271 0 min 0,000 mm 2,4 UV-I 360 W/m 11,4 C 14,1 C 6,4 km/h (2 Bft) 100,00 %
25.05.2016 11:46 14,0 C 85 % 1014,0 hPa 0,0 l/m 5,2 km/h (1 Bft) W-SW 255 0 min 0,000 mm 2,5 UV-I 347 W/m 11,5 C 14,0 C 9,7 km/h (2 Bft) 100,00 %
25.05.2016 11:47 13,9 C 82 % 1014,0 hPa 0,0 l/m 0,8 km/h (0 Bft) W-SW 255 0 min 0,000 mm 2,6 UV-I 345 W/m 10,9 C 13,9 C 1,6 km/h (1 Bft) 100,00 %
25.05.2016 11:48 13,9 C 84 % 1014,0 hPa 0,0 l/m 0,2 km/h (0 Bft) W-SW 255 0 min 0,000 mm 2,8 UV-I 354 W/m 11,2 C 13,9 C 1,6 km/h (1 Bft) 100,00 %
25.05.2016 11:49 13,9 C 86 % 1013,9 hPa 0,0 l/m 1,1 km/h (1 Bft) SW 227 0 min 0,000 mm 2,9 UV-I 377 W/m 11,6 C 13,9 C 1,6 km/h (1 Bft) 100,00 %
25.05.2016 11:50 14,1 C 87 % 1014,0 hPa 0,0 l/m 1,7 km/h (1 Bft) O-SO 115 0 min 0,000 mm 3,0 UV-I 399 W/m 12,0 C 14,1 C 4,8 km/h (1 Bft) 100,00 %
25.05.2016 11:51 14,2 C 86 % 1014,0 hPa 0,0 l/m 1,2 km/h (1 Bft) O-SO 115 0 min 0,000 mm 3,2 UV-I 443 W/m 11,9 C 14,2 C 1,6 km/h (1 Bft) 100,00 %
25.05.2016 11:52 14,3 C 86 % 1014,0 hPa 0,0 l/m 1,0 km/h (0 Bft) SO 139 1 min 0,000 mm 3,4 UV-I 479 W/m 12,0 C 14,3 C 1,6 km/h (1 Bft) 92,31 %
25.05.2016 11:53 14,4 C 86 % 1014,0 hPa 0,0 l/m 2,5 km/h (1 Bft) W-SW 241 1 min 0,000 mm 3,5 UV-I 499 W/m 12,1 C 14,4 C 3,2 km/h (1 Bft) 100,00 %
25.05.2016 11:54 14,4 C 83 % 1014,0 hPa 0,0 l/m 1,6 km/h (1 Bft) W-SW 242 1 min 0,000 mm 3,6 UV-I 525 W/m 11,5 C 14,4 C 3,2 km/h (1 Bft) 100,00 %
25.05.2016 11:55 14,4 C 83 % 1013,9 hPa 0,0 l/m 1,3 km/h (1 Bft) N-NW 331 1 min 0,000 mm 3,7 UV-I 564 W/m 11,5 C 14,4 C 3,2 km/h (1 Bft) 100,00 %
25.05.2016 11:56 14,5 C 85 % 1013,9 hPa 0,0 l/m 3,0 km/h (1 Bft) NO 34 1 min 0,000 mm 3,7 UV-I 553 W/m 12,0 C 14,5 C 4,8 km/h (1 Bft) 100,00 %
25.05.2016 11:57 14,6 C 85 % 1013,9 hPa 0,0 l/m 2,7 km/h (1 Bft) N-NW 329 1 min 0,000 mm 3,6 UV-I 537 W/m 12,1 C 14,6 C 6,4 km/h (2 Bft) 100,00 %
25.05.2016 11:58 14,6 C 83 % 1013,9 hPa 0,0 l/m 2,7 km/h (1 Bft) NW 322 1 min 0,000 mm 3,5 UV-I 514 W/m 11,7 C 14,6 C 4,8 km/h (1 Bft) 95,65 %
25.05.2016 11:59 14,6 C 83 % 1013,9 hPa 0,0 l/m 6,6 km/h (2 Bft) N-NW 332 1 min 0,000 mm 3,3 UV-I 489 W/m 11,7 C 14,5 C 11,3 km/h (2 Bft) 100,00 %
25.05.2016 12:00 14,6 C 82 % 1013,9 hPa 0,0 l/m 4,4 km/h (1 Bft) NW 321 1 min 0,254 mm 3,2 UV-I 473 W/m 11,6 C 14,6 C 8,0 km/h (2 Bft) 100,00 %
25.05.2016 12:02 14,5 C 83 % 1013,8 hPa 0,0 l/m 3,8 km/h (1 Bft) N-NO 21 0 min 0,000 mm 3,1 UV-I 459 W/m 11,6 C 14,5 C 6,4 km/h (2 Bft) 100,00 %
25.05.2016 12:03 14,4 C 83 % 1013,8 hPa 0,0 l/m 1,2 km/h (1 Bft) N 5 0 min 0,000 mm 3,1 UV-I 451 W/m 11,5 C 14,4 C 3,2 km/h (1 Bft) 100,00 %
25.05.2016 12:04 14,4 C 83 % 1013,8 hPa 0,0 l/m 3,5 km/h (1 Bft) N-NW 327 0 min 0,000 mm 3,0 UV-I 442 W/m 11,5 C 14,4 C 4,8 km/h (1 Bft) 100,00 %
25.05.2016 12:05 14,5 C 83 % 1013,7 hPa 0,0 l/m 2,0 km/h (1 Bft) N 350 0 min 0,000 mm 2,9 UV-I 428 W/m 11,6 C 14,5 C 4,8 km/h (1 Bft) 100,00 %
25.05.2016 12:06 14,5 C 83 % 1013,8 hPa 0,0 l/m 2,8 km/h (1 Bft) NW 310 0 min 0,000 mm 2,8 UV-I 418 W/m 11,6 C 14,5 C 4,8 km/h (1 Bft) 100,00 %
25.05.2016 12:07 14,5 C 83 % 1013,8 hPa 0,0 l/m 1,0 km/h (0 Bft) NW 311 0 min 0,000 mm 2,8 UV-I 415 W/m 11,6 C 14,5 C 1,6 km/h (1 Bft) 100,00 %
25.05.2016 12:08 14,5 C 83 % 1013,8 hPa 0,0 l/m 1,1 km/h (1 Bft) NW 311 0 min 0,000 mm 2,9 UV-I 414 W/m 11,6 C 14,5 C 1,6 km/h (1 Bft) 100,00 %
25.05.2016 12:09 14,4 C 83 % 1013,8 hPa 0,0 l/m 0,7 km/h (0 Bft) NW 311 0 min 0,000 mm 2,8 UV-I 409 W/m 11,5 C 14,4 C 1,6 km/h (1 Bft) 100,00 %
25.05.2016 12:10 14,4 C 85 % 1013,8 hPa 0,0 l/m 1,3 km/h (1 Bft) NW 311 0 min 0,000 mm 2,7 UV-I 391 W/m 11,9 C 14,4 C 1,6 km/h (1 Bft) 100,00 %
25.05.2016 12:11 14,5 C 84 % 1013,8 hPa 0,0 l/m 2,0 km/h (1 Bft) NO 39 0 min 0,000 mm 2,6 UV-I 372 W/m 11,8 C 14,5 C 4,8 km/h (1 Bft) 100,00 %
25.05.2016 12:12 14,6 C 85 % 1013,7 hPa 0,0 l/m 3,4 km/h (1 Bft) N 5 0 min 0,000 mm 2,5 UV-I 354 W/m 12,1 C 14,6 C 4,8 km/h (1 Bft) 100,00 %
25.05.2016 12:13 14,6 C 85 % 1013,7 hPa 0,0 l/m 2,3 km/h (1 Bft) N-NW 335 0 min 0,000 mm 2,5 UV-I 348 W/m 12,1 C 14,6 C 3,2 km/h (1 Bft) 100,00 %
25.05.2016 12:14 14,6 C 84 % 1013,7 hPa 0,0 l/m 2,7 km/h (1 Bft) N-NW 330 0 min 0,000 mm 2,6 UV-I 346 W/m 11,9 C 14,6 C 6,4 km/h (2 Bft) 100,00 %
25.05.2016 12:15 14,6 C 84 % 1013,8 hPa 0,0 l/m 2,9 km/h (1 Bft) N-NW 346 0 min 0,000 mm 2,6 UV-I 343 W/m 11,9 C 14,6 C 6,4 km/h (2 Bft) 100,00 %
25.05.2016 12:16 14,7 C 84 % 1013,8 hPa 0,0 l/m 1,3 km/h (1 Bft) N-NW 336 0 min 0,000 mm 2,7 UV-I 340 W/m 12,0 C 14,7 C 3,2 km/h (1 Bft) 100,00 %
25.05.2016 12:17 14,7 C 82 % 1013,8 hPa 0,0 l/m 3,9 km/h (1 Bft) NW 326 0 min 0,000 mm 2,8 UV-I 342 W/m 11,7 C 14,7 C 6,4 km/h (2 Bft) 100,00 %
25.05.2016 12:18 14,6 C 82 % 1013,8 hPa 0,0 l/m 2,2 km/h (1 Bft) N-NW 327 0 min 0,000 mm 2,9 UV-I 356 W/m 11,6 C 14,6 C 3,2 km/h (1 Bft) 100,00 %
25.05.2016 12:19 14,5 C 80 % 1013,8 hPa 0,0 l/m 0,9 km/h (0 Bft) N-NW 327 0 min 0,000 mm 3,1 UV-I 380 W/m 11,1 C 14,5 C 1,6 km/h (1 Bft) 92,31 %
25.05.2016 12:20 14,5 C 81 % 1013,7 hPa 0,0 l/m 0,2 km/h (0 Bft) N-NW 327 0 min 0,000 mm 3,2 UV-I 427 W/m 11,3 C 14,5 C 1,6 km/h (1 Bft) 96,30 %
25.05.2016 12:21 14,5 C 83 % 1013,7 hPa 0,0 l/m 0,3 km/h (0 Bft) N-NW 327 1 min 0,000 mm 3,5 UV-I 481 W/m 11,6 C 14,5 C 1,6 km/h (1 Bft) 100,00 %
25.05.2016 12:22 14,6 C 83 % 1013,7 hPa 0,0 l/m 4,6 km/h (1 Bft) N-NO 28 1 min 0,000 mm 3,5 UV-I 502 W/m 11,7 C 14,6 C 6,4 km/h (2 Bft) 96,15 %
25.05.2016 12:23 14,7 C 83 % 1013,7 hPa 0,0 l/m 5,0 km/h (1 Bft) N-NO 25 1 min 0,000 mm 3,4 UV-I 494 W/m 11,8 C 14,7 C 8,0 km/h (2 Bft) 100,00 %
25.05.2016 12:24 14,8 C 84 % 1013,7 hPa 0,0 l/m 3,9 km/h (1 Bft) N-NO 23 1 min 0,000 mm 3,4 UV-I 499 W/m 12,1 C 14,8 C 6,4 km/h (2 Bft) 97,73 %
25.05.2016 12:25 14,9 C 84 % 1013,7 hPa 0,0 l/m 2,5 km/h (1 Bft) N-NW 334 1 min 0,000 mm 3,4 UV-I 501 W/m 12,2 C 14,9 C 8,0 km/h (2 Bft) 95,65 %
25.05.2016 12:26 14,8 C 83 % 1013,7 hPa 0,0 l/m 3,0 km/h (1 Bft) N-NW 348 1 min 0,000 mm 3,4 UV-I 492 W/m 11,9 C 14,8 C 8,0 km/h (2 Bft) 100,00 %
25.05.2016 12:27 14,8 C 82 % 1013,7 hPa 0,0 l/m 2,9 km/h (1 Bft) NW 314 0 min 0,000 mm 3,3 UV-I 470 W/m 11,8 C 14,8 C 4,8 km/h (1 Bft) 95,65 %
25.05.2016 12:28 14,8 C 82 % 1013,8 hPa 0,0 l/m 2,6 km/h (1 Bft) NW 312 0 min 0,000 mm 3,3 UV-I 467 W/m 11,8 C 14,8 C 4,8 km/h (1 Bft) 100,00 %
25.05.2016 12:29 14,7 C 85 % 1013,7 hPa 0,0 l/m 2,2 km/h (1 Bft) N-NW 344 1 min 0,000 mm 3,3 UV-I 503 W/m 12,2 C 14,7 C 3,2 km/h (1 Bft) 91,30 %
25.05.2016 12:30 14,8 C 85 % 1013,7 hPa 0,0 l/m 1,9 km/h (1 Bft) N-NW 344 1 min 0,000 mm 3,6 UV-I 538 W/m 12,3 C 14,8 C 3,2 km/h (1 Bft) 100,00 %
25.05.2016 12:31 14,9 C 86 % 1013,7 hPa 0,0 l/m 0,8 km/h (0 Bft) N-NW 335 0 min 0,000 mm 3,1 UV-I 460 W/m 12,6 C 14,9 C 3,2 km/h (1 Bft) 91,67 %
25.05.2016 12:32 14,9 C 86 % 1013,7 hPa 0,0 l/m 1,2 km/h (1 Bft) N-NW 336 0 min 0,000 mm 3,0 UV-I 425 W/m 12,6 C 14,9 C 3,2 km/h (1 Bft) 100,00 %
25.05.2016 12:33 15,0 C 84 % 1013,7 hPa 0,0 l/m 1,4 km/h (1 Bft) N-NW 329 0 min 0,000 mm 2,9 UV-I 411 W/m 12,3 C 15,0 C 3,2 km/h (1 Bft) 91,67 %
25.05.2016 12:34 14,9 C 83 % 1013,7 hPa 0,0 l/m 1,3 km/h (1 Bft) N-NW 329 0 min 0,000 mm 2,9 UV-I 406 W/m 12,0 C 14,9 C 3,2 km/h (1 Bft) 95,65 %
25.05.2016 12:35 14,9 C 83 % 1013,7 hPa 0,0 l/m 2,4 km/h (1 Bft) N-NW 341 0 min 0,000 mm 2,9 UV-I 404 W/m 12,0 C 14,9 C 3,2 km/h (1 Bft) 100,00 %
25.05.2016 12:36 14,9 C 83 % 1013,8 hPa 0,0 l/m 1,3 km/h (1 Bft) N-NW 341 0 min 0,000 mm 2,9 UV-I 408 W/m 12,0 C 14,9 C 3,2 km/h (1 Bft) 91,30 %
25.05.2016 12:37 14,9 C 84 % 1013,8 hPa 0,0 l/m 0,8 km/h (0 Bft) N-NW 341 0 min 0,000 mm 3,0 UV-I 420 W/m 12,2 C 14,9 C 1,6 km/h (1 Bft) 100,00 %
25.05.2016 12:38 14,9 C 84 % 1013,8 hPa 0,0 l/m 1,5 km/h (1 Bft) N-NW 347 0 min 0,000 mm 3,1 UV-I 436 W/m 12,2 C 14,9 C 4,8 km/h (1 Bft) 95,65 %
25.05.2016 12:39 14,9 C 83 % 1013,8 hPa 0,0 l/m 3,9 km/h (1 Bft) NO 54 0 min 0,000 mm 3,3 UV-I 452 W/m 12,0 C 14,9 C 4,8 km/h (1 Bft) 100,00 %
25.05.2016 12:40 14,9 C 83 % 1013,8 hPa 0,0 l/m 2,3 km/h (1 Bft) O-NO 59 0 min 0,000 mm 3,3 UV-I 458 W/m 12,0 C 14,9 C 4,8 km/h (1 Bft) 92,86 %
25.05.2016 12:41 14,9 C 83 % 1013,8 hPa 0,0 l/m 3,0 km/h (1 Bft) O-NO 59 0 min 0,000 mm 3,4 UV-I 472 W/m 12,0 C 14,9 C 4,8 km/h (1 Bft) 96,30 %
25.05.2016 12:42 14,9 C 84 % 1013,8 hPa 0,0 l/m 3,6 km/h (1 Bft) NO 45 1 min 0,000 mm 3,6 UV-I 497 W/m 12,2 C 14,9 C 4,8 km/h (1 Bft) 95,65 %
25.05.2016 12:43 15,0 C 84 % 1013,8 hPa 0,0 l/m 3,4 km/h (1 Bft) NO 46 1 min 0,000 mm 3,8 UV-I 522 W/m 12,3 C 15,0 C 4,8 km/h (1 Bft) 96,30 %
25.05.2016 12:44 15,1 C 83 % 1013,8 hPa 0,0 l/m 3,1 km/h (1 Bft) O-NO 76 1 min 0,000 mm 4,0 UV-I 565 W/m 12,2 C 15,1 C 4,8 km/h (1 Bft) 100,00 %
25.05.2016 12:45 15,1 C 81 % 1013,8 hPa 0,0 l/m 5,0 km/h (1 Bft) O 79 1 min 0,000 mm 4,3 UV-I 633 W/m 11,9 C 15,1 C 8,0 km/h (2 Bft) 95,83 %
25.05.2016 12:46 15,1 C 82 % 1013,7 hPa 0,0 l/m 6,2 km/h (2 Bft) O-NO 57 1 min 0,000 mm 4,2 UV-I 638 W/m 12,0 C 15,1 C 8,0 km/h (2 Bft) 100,00 %
25.05.2016 12:47 15,1 C 83 % 1013,8 hPa 0,0 l/m 4,3 km/h (1 Bft) O-NO 59 1 min 0,000 mm 4,2 UV-I 614 W/m 12,2 C 15,1 C 6,4 km/h (2 Bft) 95,83 %
25.05.2016 12:48 15,2 C 84 % 1013,7 hPa 0,0 l/m 2,8 km/h (1 Bft) O 94 1 min 0,000 mm 4,0 UV-I 591 W/m 12,5 C 15,2 C 4,8 km/h (1 Bft) 100,00 %
25.05.2016 12:49 15,2 C 83 % 1013,7 hPa 0,0 l/m 2,2 km/h (1 Bft) NO 46 1 min 0,000 mm 3,9 UV-I 561 W/m 12,3 C 15,2 C 4,8 km/h (1 Bft) 93,33 %
25.05.2016 12:50 15,3 C 84 % 1013,7 hPa 0,0 l/m 2,2 km/h (1 Bft) O 80 1 min 0,000 mm 3,8 UV-I 538 W/m 12,6 C 15,3 C 4,8 km/h (1 Bft) 95,83 %
25.05.2016 12:51 15,3 C 83 % 1013,7 hPa 0,0 l/m 3,0 km/h (1 Bft) N-NO 26 1 min 0,000 mm 3,6 UV-I 512 W/m 12,4 C 15,3 C 4,8 km/h (1 Bft) 96,55 %
25.05.2016 12:52 15,3 C 83 % 1013,7 hPa 0,0 l/m 3,4 km/h (1 Bft) NW 309 1 min 0,000 mm 3,4 UV-I 487 W/m 12,4 C 15,3 C 8,0 km/h (2 Bft) 100,00 %
25.05.2016 12:53 15,4 C 83 % 1013,7 hPa 0,0 l/m 1,9 km/h (1 Bft) NW 308 0 min 0,000 mm 3,4 UV-I 472 W/m 12,5 C 15,4 C 3,2 km/h (1 Bft) 96,15 %
25.05.2016 12:54 15,5 C 84 % 1013,7 hPa 0,0 l/m 0,7 km/h (0 Bft) NW 308 0 min 0,000 mm 3,3 UV-I 466 W/m 12,8 C 15,5 C 1,6 km/h (1 Bft) 96,30 %
25.05.2016 12:55 15,7 C 85 % 1013,7 hPa 0,0 l/m 0,8 km/h (0 Bft) NW 308 0 min 0,000 mm 3,2 UV-I 464 W/m 13,2 C 15,7 C 3,2 km/h (1 Bft) 100,00 %
25.05.2016 12:56 15,7 C 84 % 1013,7 hPa 0,0 l/m 1,7 km/h (1 Bft) N 11 0 min 0,000 mm 3,3 UV-I 471 W/m 13,0 C 15,7 C 4,8 km/h (1 Bft) 100,00 %
25.05.2016 12:57 15,8 C 81 % 1013,6 hPa 0,0 l/m 1,9 km/h (1 Bft) N 11 1 min 0,000 mm 3,4 UV-I 488 W/m 12,5 C 15,8 C 3,2 km/h (1 Bft) 100,00 %
25.05.2016 12:58 15,8 C 83 % 1013,6 hPa 0,0 l/m 2,7 km/h (1 Bft) N-NO 12 1 min 0,000 mm 3,5 UV-I 522 W/m 12,9 C 15,8 C 4,8 km/h (1 Bft) 100,00 %
25.05.2016 12:59 15,7 C 80 % 1013,6 hPa 0,0 l/m 4,4 km/h (1 Bft) N-NO 20 1 min 0,000 mm 3,8 UV-I 578 W/m 12,3 C 15,7 C 6,4 km/h (2 Bft) 100,00 %
25.05.2016 13:00 15,7 C 80 % 1013,6 hPa 0,0 l/m 2,9 km/h (1 Bft) N-NO 21 1 min 0,000 mm 4,0 UV-I 633 W/m 12,3 C 15,7 C 4,8 km/h (1 Bft) 100,00 %
25.05.2016 13:02 15,6 C 79 % 1013,6 hPa 0,0 l/m 2,9 km/h (1 Bft) N-NO 21 2 min 0,254 mm 3,8 UV-I 668 W/m 12,0 C 15,6 C 4,8 km/h (1 Bft) 97,73 %
25.05.2016 13:03 15,6 C 81 % 1013,6 hPa 0,0 l/m 2,0 km/h (1 Bft) N-NO 21 1 min 0,000 mm 3,6 UV-I 581 W/m 12,3 C 15,6 C 3,2 km/h (1 Bft) 100,00 %
25.05.2016 13:04 15,5 C 78 % 1013,5 hPa 0,0 l/m 0,8 km/h (0 Bft) N-NO 21 1 min 0,000 mm 3,6 UV-I 523 W/m 11,7 C 15,5 C 1,6 km/h (1 Bft) 96,88 %
25.05.2016 13:05 15,4 C 79 % 1013,5 hPa 0,0 l/m 0,6 km/h (0 Bft) N-NO 21 1 min 0,000 mm 3,6 UV-I 534 W/m 11,8 C 15,4 C 1,6 km/h (1 Bft) 100,00 %
25.05.2016 13:06 15,4 C 81 % 1013,5 hPa 0,0 l/m 1,3 km/h (1 Bft) NO 55 1 min 0,000 mm 3,8 UV-I 584 W/m 12,2 C 15,4 C 3,2 km/h (1 Bft) 100,00 %
25.05.2016 13:07 15,3 C 80 % 1013,5 hPa 0,0 l/m 0,6 km/h (0 Bft) NO 55 1 min 0,000 mm 4,1 UV-I 649 W/m 11,9 C 15,3 C 1,6 km/h (1 Bft) 100,00 %
25.05.2016 13:08 15,4 C 82 % 1013,5 hPa 0,0 l/m 1,5 km/h (1 Bft) N-NW 338 1 min 0,000 mm 3,8 UV-I 599 W/m 12,3 C 15,4 C 3,2 km/h (1 Bft) 100,00 %
25.05.2016 13:09 15,6 C 82 % 1013,5 hPa 0,0 l/m 3,1 km/h (1 Bft) N-NW 341 1 min 0,000 mm 3,6 UV-I 535 W/m 12,5 C 15,6 C 6,4 km/h (2 Bft) 96,30 %
25.05.2016 13:10 15,7 C 82 % 1013,4 hPa 0,0 l/m 2,4 km/h (1 Bft) NW 314 0 min 0,000 mm 3,3 UV-I 477 W/m 12,6 C 15,7 C 4,8 km/h (1 Bft) 100,00 %
25.05.2016 13:11 15,7 C 80 % 1013,5 hPa 0,0 l/m 2,3 km/h (1 Bft) N-NO 12 0 min 0,000 mm 3,3 UV-I 447 W/m 12,3 C 15,7 C 4,8 km/h (1 Bft) 100,00 %
25.05.2016 13:12 15,7 C 80 % 1013,4 hPa 0,0 l/m 1,9 km/h (1 Bft) N 9 0 min 0,000 mm 3,2 UV-I 435 W/m 12,3 C 15,7 C 3,2 km/h (1 Bft) 100,00 %
25.05.2016 13:13 15,8 C 83 % 1013,4 hPa 0,0 l/m 2,9 km/h (1 Bft) N 355 0 min 0,000 mm 3,2 UV-I 436 W/m 12,9 C 15,8 C 4,8 km/h (1 Bft) 96,30 %
25.05.2016 13:14 15,8 C 83 % 1013,4 hPa 0,0 l/m 2,6 km/h (1 Bft) NW 315 0 min 0,000 mm 3,3 UV-I 442 W/m 12,9 C 15,8 C 3,2 km/h (1 Bft) 90,91 %
25.05.2016 13:15 15,8 C 80 % 1013,4 hPa 0,0 l/m 2,1 km/h (1 Bft) NW 315 0 min 0,000 mm 3,4 UV-I 450 W/m 12,4 C 15,8 C 3,2 km/h (1 Bft) 100,00 %
25.05.2016 13:16 15,8 C 79 % 1013,4 hPa 0,0 l/m 1,7 km/h (1 Bft) NW 315 0 min 0,000 mm 3,5 UV-I 460 W/m 12,2 C 15,8 C 3,2 km/h (1 Bft) 100,00 %
25.05.2016 13:17 15,7 C 79 % 1013,4 hPa 0,0 l/m 2,6 km/h (1 Bft) NW 322 0 min 0,000 mm 3,6 UV-I 463 W/m 12,1 C 15,7 C 4,8 km/h (1 Bft) 96,30 %
25.05.2016 13:18 15,7 C 78 % 1013,4 hPa 0,0 l/m 0,7 km/h (0 Bft) NW 322 0 min 0,000 mm 3,7 UV-I 466 W/m 11,9 C 15,7 C 1,6 km/h (1 Bft) 100,00 %
25.05.2016 13:19 15,6 C 79 % 1013,4 hPa 0,0 l/m 1,2 km/h (1 Bft) NW 322 0 min 0,000 mm 3,8 UV-I 461 W/m 12,0 C 15,6 C 3,2 km/h (1 Bft) 100,00 %
25.05.2016 13:20 15,7 C 81 % 1013,4 hPa 0,0 l/m 3,4 km/h (1 Bft) W 279 0 min 0,000 mm 3,9 UV-I 461 W/m 12,4 C 15,7 C 4,8 km/h (1 Bft) 96,15 %
25.05.2016 13:21 15,7 C 81 % 1013,4 hPa 0,0 l/m 4,3 km/h (1 Bft) W-NW 284 1 min 0,000 mm 4,2 UV-I 487 W/m 12,4 C 15,7 C 6,4 km/h (2 Bft) 100,00 %
25.05.2016 13:22 15,7 C 82 % 1013,4 hPa 0,0 l/m 1,4 km/h (1 Bft) W-NW 284 1 min 0,000 mm 4,3 UV-I 507 W/m 12,6 C 15,7 C 3,2 km/h (1 Bft) 100,00 %
25.05.2016 13:23 15,8 C 82 % 1013,4 hPa 0,0 l/m 1,0 km/h (0 Bft) W-NW 288 1 min 0,000 mm 5,8 UV-I 628 W/m 12,7 C 15,8 C 1,6 km/h (1 Bft) 96,55 %
25.05.2016 13:24 15,9 C 81 % 1013,4 hPa 0,0 l/m 1,2 km/h (1 Bft) NW 320 1 min 0,000 mm 5,9 UV-I 1086 W/m 12,6 C 15,9 C 3,2 km/h (1 Bft) 100,00 %
25.05.2016 13:25 16,2 C 85 % 1013,4 hPa 0,0 l/m 1,9 km/h (1 Bft) N 5 1 min 0,000 mm 5,8 UV-I 1070 W/m 13,7 C 16,2 C 3,2 km/h (1 Bft) 100,00 %
25.05.2016 13:26 16,3 C 80 % 1013,4 hPa 0,0 l/m 2,7 km/h (1 Bft) W-NW 302 1 min 0,000 mm 5,4 UV-I 1077 W/m 12,8 C 16,3 C 3,2 km/h (1 Bft) 100,00 %
25.05.2016 13:27 16,4 C 79 % 1013,4 hPa 0,0 l/m 3,3 km/h (1 Bft) NW 304 1 min 0,000 mm 4,5 UV-I 1090 W/m 12,7 C 16,4 C 6,4 km/h (2 Bft) 100,00 %
25.05.2016 13:28 16,4 C 77 % 1013,4 hPa 0,0 l/m 2,5 km/h (1 Bft) NW 315 1 min 0,000 mm 4,2 UV-I 524 W/m 12,4 C 16,4 C 4,8 km/h (1 Bft) 95,83 %
25.05.2016 13:29 16,3 C 80 % 1013,4 hPa 0,0 l/m 3,6 km/h (1 Bft) NW 312 1 min 0,000 mm 4,6 UV-I 496 W/m 12,8 C 16,3 C 4,8 km/h (1 Bft) 100,00 %
25.05.2016 13:30 16,3 C 76 % 1013,4 hPa 0,0 l/m 1,3 km/h (1 Bft) N 355 1 min 0,000 mm 4,5 UV-I 496 W/m 12,1 C 16,3 C 3,2 km/h (1 Bft) 100,00 %
25.05.2016 13:31 16,3 C 79 % 1013,3 hPa 0,0 l/m 2,0 km/h (1 Bft) N-NO 13 1 min 0,000 mm 5,1 UV-I 496 W/m 12,6 C 16,3 C 3,2 km/h (1 Bft) 91,30 %
25.05.2016 13:32 16,3 C 78 % 1013,4 hPa 0,0 l/m 4,3 km/h (1 Bft) W-SW 242 1 min 0,000 mm 5,5 UV-I 650 W/m 12,5 C 16,3 C 6,4 km/h (2 Bft) 100,00 %
25.05.2016 13:33 16,3 C 78 % 1013,4 hPa 0,0 l/m 6,2 km/h (2 Bft) W 277 1 min 0,000 mm 5,3 UV-I 752 W/m 12,5 C 16,3 C 9,7 km/h (2 Bft) 100,00 %
25.05.2016 13:34 16,3 C 76 % 1013,3 hPa 0,0 l/m 2,0 km/h (1 Bft) W 277 1 min 0,000 mm 5,4 UV-I 754 W/m 12,1 C 16,3 C 4,8 km/h (1 Bft) 100,00 %
25.05.2016 13:35 16,2 C 78 % 1013,3 hPa 0,0 l/m 1,8 km/h (1 Bft) W 277 1 min 0,000 mm 5,6 UV-I 768 W/m 12,4 C 16,2 C 3,2 km/h (1 Bft) 100,00 %
25.05.2016 13:36 16,1 C 76 % 1013,3 hPa 0,0 l/m 1,3 km/h (1 Bft) SW 233 1 min 0,000 mm 5,9 UV-I 861 W/m 11,9 C 16,1 C 3,2 km/h (1 Bft) 100,00 %
25.05.2016 13:37 16,2 C 77 % 1013,3 hPa 0,0 l/m 1,1 km/h (1 Bft) W 266 1 min 0,000 mm 5,9 UV-I 948 W/m 12,2 C 16,2 C 3,2 km/h (1 Bft) 100,00 %
25.05.2016 13:38 16,3 C 79 % 1013,3 hPa 0,0 l/m 3,3 km/h (1 Bft) NW 313 1 min 0,000 mm 5,8 UV-I 925 W/m 12,6 C 16,3 C 8,0 km/h (2 Bft) 100,00 %
25.05.2016 13:39 16,4 C 79 % 1013,3 hPa 0,0 l/m 3,9 km/h (1 Bft) W 276 1 min 0,000 mm 5,8 UV-I 919 W/m 12,7 C 16,4 C 4,8 km/h (1 Bft) 100,00 %
25.05.2016 13:40 16,4 C 78 % 1013,3 hPa 0,0 l/m 3,6 km/h (1 Bft) W-NW 295 1 min 0,000 mm 5,8 UV-I 916 W/m 12,6 C 16,4 C 6,4 km/h (2 Bft) 100,00 %
25.05.2016 13:41 16,5 C 77 % 1013,3 hPa 0,0 l/m 3,6 km/h (1 Bft) NW 304 1 min 0,000 mm 5,8 UV-I 913 W/m 12,5 C 16,5 C 4,8 km/h (1 Bft) 100,00 %
25.05.2016 13:42 16,6 C 78 % 1013,3 hPa 0,0 l/m 4,0 km/h (1 Bft) N-NW 338 1 min 0,000 mm 5,8 UV-I 908 W/m 12,7 C 16,6 C 4,8 km/h (1 Bft) 96,67 %
25.05.2016 13:43 16,6 C 76 % 1013,3 hPa 0,0 l/m 4,2 km/h (1 Bft) NW 323 1 min 0,000 mm 5,8 UV-I 918 W/m 12,3 C 16,6 C 6,4 km/h (2 Bft) 100,00 %
25.05.2016 13:44 16,6 C 75 % 1013,3 hPa 0,0 l/m 1,8 km/h (1 Bft) NW 322 1 min 0,000 mm 5,8 UV-I 923 W/m 12,1 C 16,6 C 3,2 km/h (1 Bft) 100,00 %
25.05.2016 13:45 16,5 C 79 % 1013,3 hPa 0,0 l/m 2,1 km/h (1 Bft) W 275 1 min 0,000 mm 5,8 UV-I 926 W/m 12,8 C 16,5 C 4,8 km/h (1 Bft) 100,00 %
25.05.2016 13:46 16,4 C 77 % 1013,3 hPa 0,0 l/m 1,9 km/h (1 Bft) W-NW 293 1 min 0,000 mm 5,8 UV-I 929 W/m 12,4 C 16,4 C 4,8 km/h (1 Bft) 100,00 %
25.05.2016 13:47 16,4 C 76 % 1013,3 hPa 0,0 l/m 2,9 km/h (1 Bft) N-NO 13 1 min 0,000 mm 5,7 UV-I 928 W/m 12,2 C 16,4 C 4,8 km/h (1 Bft) 100,00 %
25.05.2016 13:48 16,6 C 79 % 1013,2 hPa 0,0 l/m 4,0 km/h (1 Bft) N-NO 13 1 min 0,000 mm 5,7 UV-I 948 W/m 12,9 C 16,6 C 4,8 km/h (1 Bft) 100,00 %
25.05.2016 13:49 16,7 C 82 % 1013,3 hPa 0,0 l/m 3,8 km/h (1 Bft) N-NO 28 1 min 0,000 mm 5,8 UV-I 971 W/m 13,6 C 16,7 C 8,0 km/h (2 Bft) 100,00 %
25.05.2016 13:50 16,9 C 84 % 1013,3 hPa 0,0 l/m 12,2 km/h (2 Bft) NO 39 1 min 0,000 mm 5,8 UV-I 996 W/m 14,2 C 14,4 C 16,1 km/h (3 Bft) 100,00 %
25.05.2016 13:51 17,1 C 84 % 1013,2 hPa 0,0 l/m 8,6 km/h (2 Bft) NO 34 1 min 0,000 mm 5,8 UV-I 1011 W/m 14,4 C 16,0 C 14,5 km/h (3 Bft) 100,00 %
25.05.2016 13:52 17,2 C 79 % 1013,3 hPa 0,0 l/m 5,2 km/h (1 Bft) N-NO 16 1 min 0,000 mm 5,6 UV-I 1011 W/m 13,5 C 17,2 C 9,7 km/h (2 Bft) 100,00 %
25.05.2016 13:53 17,2 C 80 % 1013,2 hPa 0,0 l/m 8,0 km/h (2 Bft) NO 47 1 min 0,000 mm 3,9 UV-I 881 W/m 13,7 C 16,4 C 12,9 km/h (3 Bft) 100,00 %
25.05.2016 13:54 17,2 C 82 % 1013,2 hPa 0,0 l/m 6,7 km/h (2 Bft) N 355 0 min 0,000 mm 3,9 UV-I 372 W/m 14,1 C 17,1 C 14,5 km/h (3 Bft) 100,00 %
25.05.2016 13:55 17,1 C 80 % 1013,2 hPa 0,0 l/m 3,3 km/h (1 Bft) N 11 0 min 0,000 mm 4,0 UV-I 387 W/m 13,6 C 17,1 C 4,8 km/h (1 Bft) 100,00 %
25.05.2016 13:56 17,0 C 82 % 1013,3 hPa 0,0 l/m 4,5 km/h (1 Bft) NW 325 0 min 0,000 mm 3,7 UV-I 346 W/m 13,9 C 17,0 C 9,7 km/h (2 Bft) 100,00 %
25.05.2016 13:57 16,9 C 77 % 1013,3 hPa 0,0 l/m 3,8 km/h (1 Bft) N-NW 344 0 min 0,000 mm 3,5 UV-I 299 W/m 12,8 C 16,9 C 6,4 km/h (2 Bft) 100,00 %
25.05.2016 13:58 16,7 C 78 % 1013,2 hPa 0,0 l/m 3,4 km/h (1 Bft) N 10 0 min 0,000 mm 3,4 UV-I 274 W/m 12,8 C 16,7 C 6,4 km/h (2 Bft) 100,00 %
25.05.2016 13:59 16,6 C 81 % 1013,3 hPa 0,0 l/m 1,0 km/h (0 Bft) N-NW 345 0 min 0,000 mm 3,4 UV-I 274 W/m 13,3 C 16,6 C 1,6 km/h (1 Bft) 100,00 %
25.05.2016 14:00 16,5 C 80 % 1013,2 hPa 0,0 l/m 1,0 km/h (0 Bft) N-NW 345 0 min 0,000 mm 3,4 UV-I 276 W/m 13,0 C 16,5 C 3,2 km/h (1 Bft) 100,00 %
25.05.2016 14:02 16,6 C 86 % 1013,2 hPa 0,0 l/m 2,0 km/h (1 Bft) N 5 0 min 0,356 mm 4,6 UV-I 281 W/m 14,2 C 16,6 C 4,8 km/h (1 Bft) 98,11 %
25.05.2016 14:03 16,8 C 86 % 1013,2 hPa 0,0 l/m 1,5 km/h (1 Bft) N 9 1 min 0,000 mm 5,4 UV-I 857 W/m 14,4 C 16,8 C 3,2 km/h (1 Bft) 93,33 %
25.05.2016 14:04 16,9 C 83 % 1013,2 hPa 0,0 l/m 5,9 km/h (2 Bft) NO 36 1 min 0,000 mm 5,5 UV-I 921 W/m 14,0 C 16,9 C 9,7 km/h (2 Bft) 100,00 %
25.05.2016 14:05 17,2 C 84 % 1013,1 hPa 0,0 l/m 6,5 km/h (2 Bft) NO 40 1 min 0,000 mm 4,9 UV-I 895 W/m 14,5 C 17,2 C 8,0 km/h (2 Bft) 100,00 %
25.05.2016 14:06 17,2 C 80 % 1013,1 hPa 0,0 l/m 5,9 km/h (2 Bft) NO 43 1 min 0,000 mm 5,3 UV-I 877 W/m 13,7 C 17,2 C 8,0 km/h (2 Bft) 100,00 %
25.05.2016 14:07 17,3 C 83 % 1013,1 hPa 0,0 l/m 8,6 km/h (2 Bft) NO 43 1 min 0,000 mm 5,5 UV-I 861 W/m 14,4 C 16,2 C 12,9 km/h (3 Bft) 96,15 %
25.05.2016 14:08 17,4 C 81 % 1013,1 hPa 0,0 l/m 3,8 km/h (1 Bft) NO 52 1 min 0,000 mm 4,9 UV-I 876 W/m 14,1 C 17,4 C 8,0 km/h (2 Bft) 100,00 %
25.05.2016 14:09 17,6 C 82 % 1013,1 hPa 0,0 l/m 3,6 km/h (1 Bft) NW 305 1 min 0,000 mm 5,3 UV-I 898 W/m 14,5 C 17,6 C 6,4 km/h (2 Bft) 100,00 %
25.05.2016 14:10 17,6 C 77 % 1013,1 hPa 0,0 l/m 4,3 km/h (1 Bft) NW 309 1 min 0,000 mm 5,3 UV-I 851 W/m 13,5 C 17,6 C 6,4 km/h (2 Bft) 100,00 %
25.05.2016 14:11 17,5 C 76 % 1013,1 hPa 0,0 l/m 3,5 km/h (1 Bft) W-NW 303 1 min 0,000 mm 5,1 UV-I 833 W/m 13,2 C 17,5 C 6,4 km/h (2 Bft) 100,00 %
25.05.2016 14:12 17,4 C 77 % 1013,1 hPa 0,0 l/m 1,0 km/h (0 Bft) NW 314 1 min 0,000 mm 5,3 UV-I 851 W/m 13,3 C 17,4 C 1,6 km/h (1 Bft) 100,00 %
25.05.2016 14:13 17,3 C 74 % 1013,1 hPa 0,0 l/m 1,5 km/h (1 Bft) NW 314 1 min 0,000 mm 5,4 UV-I 874 W/m 12,6 C 17,3 C 3,2 km/h (1 Bft) 95,65 %
25.05.2016 14:14 17,2 C 76 % 1013,1 hPa 0,0 l/m 1,5 km/h (1 Bft) N-NW 336 1 min 0,000 mm 5,2 UV-I 813 W/m 12,9 C 17,2 C 3,2 km/h (1 Bft) 100,00 %
25.05.2016 14:15 17,2 C 81 % 1013,1 hPa 0,0 l/m 4,0 km/h (1 Bft) N-NO 12 1 min 0,000 mm 5,2 UV-I 759 W/m 13,9 C 17,2 C 8,0 km/h (2 Bft) 100,00 %
25.05.2016 14:16 17,3 C 81 % 1013,1 hPa 0,0 l/m 5,3 km/h (1 Bft) N-NO 19 1 min 0,000 mm 5,4 UV-I 778 W/m 14,0 C 17,3 C 8,0 km/h (2 Bft) 94,44 %
25.05.2016 14:17 17,4 C 80 % 1013,0 hPa 0,0 l/m 1,6 km/h (1 Bft) N 11 1 min 0,000 mm 5,2 UV-I 834 W/m 13,9 C 17,4 C 3,2 km/h (1 Bft) 100,00 %
25.05.2016 14:18 17,4 C 79 % 1013,0 hPa 0,0 l/m 2,0 km/h (1 Bft) N 11 1 min 0,000 mm 5,1 UV-I 884 W/m 13,7 C 17,4 C 3,2 km/h (1 Bft) 100,00 %
25.05.2016 14:19 17,6 C 80 % 1013,1 hPa 0,0 l/m 2,7 km/h (1 Bft) NO 34 1 min 0,000 mm 5,4 UV-I 898 W/m 14,1 C 17,6 C 6,4 km/h (2 Bft) 100,00 %
25.05.2016 14:20 17,6 C 78 % 1013,0 hPa 0,0 l/m 4,1 km/h (1 Bft) N-NO 13 1 min 0,000 mm 5,4 UV-I 898 W/m 13,7 C 17,6 C 4,8 km/h (1 Bft) 100,00 %
25.05.2016 14:21 17,6 C 76 % 1013,0 hPa 0,0 l/m 2,5 km/h (1 Bft) N-NO 14 1 min 0,000 mm 5,4 UV-I 898 W/m 13,3 C 17,6 C 4,8 km/h (1 Bft) 100,00 %
25.05.2016 14:22 17,6 C 77 % 1013,0 hPa 0,0 l/m 3,9 km/h (1 Bft) N 9 1 min 0,000 mm 5,3 UV-I 882 W/m 13,5 C 17,6 C 6,4 km/h (2 Bft) 92,31 %
25.05.2016 14:23 17,5 C 76 % 1013,1 hPa 0,0 l/m 4,2 km/h (1 Bft) W-NW 289 1 min 0,000 mm 4,4 UV-I 847 W/m 13,2 C 17,5 C 6,4 km/h (2 Bft) 95,83 %
25.05.2016 14:24 17,4 C 77 % 1013,0 hPa 0,0 l/m 9,1 km/h (2 Bft) W 273 1 min 0,000 mm 3,6 UV-I 572 W/m 13,3 C 16,1 C 11,3 km/h (2 Bft) 95,65 %
25.05.2016 14:25 17,3 C 74 % 1013,0 hPa 0,0 l/m 5,5 km/h (1 Bft) W 267 0 min 0,000 mm 3,4 UV-I 296 W/m 12,6 C 17,3 C 9,7 km/h (2 Bft) 96,30 %
25.05.2016 14:26 17,1 C 75 % 1013,0 hPa 0,0 l/m 4,3 km/h (1 Bft) W 263 0 min 0,000 mm 3,4 UV-I 289 W/m 12,6 C 17,1 C 6,4 km/h (2 Bft) 100,00 %
25.05.2016 14:27 16,9 C 75 % 1013,0 hPa 0,0 l/m 5,0 km/h (1 Bft) W-NW 301 0 min 0,000 mm 3,4 UV-I 314 W/m 12,4 C 16,9 C 6,4 km/h (2 Bft) 95,65 %
25.05.2016 14:28 16,8 C 74 % 1013,0 hPa 0,0 l/m 1,4 km/h (1 Bft) W-NW 301 0 min 0,000 mm 3,8 UV-I 345 W/m 12,1 C 16,8 C 3,2 km/h (1 Bft) 100,00 %
25.05.2016 14:29 16,8 C 76 % 1013,0 hPa 0,0 l/m 1,0 km/h (0 Bft) S-SO 168 0 min 0,000 mm 4,8 UV-I 345 W/m 12,5 C 16,8 C 3,2 km/h (1 Bft) 95,83 %
25.05.2016 14:30 16,8 C 74 % 1013,0 hPa 0,0 l/m 1,7 km/h (1 Bft) S-SO 168 1 min 0,000 mm 4,9 UV-I 688 W/m 12,1 C 16,8 C 3,2 km/h (1 Bft) 100,00 %
25.05.2016 14:31 16,8 C 76 % 1013,0 hPa 0,0 l/m 1,6 km/h (1 Bft) W 277 1 min 0,000 mm 4,9 UV-I 947 W/m 12,5 C 16,8 C 3,2 km/h (1 Bft) 83,33 %
25.05.2016 14:32 16,9 C 78 % 1013,0 hPa 0,0 l/m 2,3 km/h (1 Bft) W-SW 256 1 min 0,000 mm 4,9 UV-I 967 W/m 13,0 C 16,9 C 4,8 km/h (1 Bft) 100,00 %
25.05.2016 14:33 17,2 C 78 % 1013,0 hPa 0,0 l/m 5,5 km/h (1 Bft) W 270 1 min 0,000 mm 4,2 UV-I 969 W/m 13,3 C 17,2 C 9,7 km/h (2 Bft) 97,56 %
25.05.2016 14:34 17,3 C 75 % 1013,0 hPa 0,0 l/m 5,6 km/h (1 Bft) W 279 1 min 0,000 mm 4,1 UV-I 969 W/m 12,8 C 17,3 C 9,7 km/h (2 Bft) 100,00 %
25.05.2016 14:35 17,3 C 77 % 1013,0 hPa 0,0 l/m 2,7 km/h (1 Bft) NW 319 1 min 0,000 mm 3,3 UV-I 969 W/m 13,2 C 17,3 C 4,8 km/h (1 Bft) 93,33 %
25.05.2016 14:36 17,3 C 79 % 1013,0 hPa 0,0 l/m 1,1 km/h (1 Bft) NW 319 1 min 0,000 mm 3,0 UV-I 511 W/m 13,6 C 17,3 C 3,2 km/h (1 Bft) 96,15 %
25.05.2016 14:37 17,3 C 76 % 1013,0 hPa 0,0 l/m 2,8 km/h (1 Bft) N 350 0 min 0,000 mm 2,9 UV-I 319 W/m 13,0 C 17,3 C 3,2 km/h (1 Bft) 100,00 %
25.05.2016 14:38 17,3 C 77 % 1013,0 hPa 0,0 l/m 1,3 km/h (1 Bft) W-NW 297 0 min 0,000 mm 3,0 UV-I 327 W/m 13,2 C 17,3 C 3,2 km/h (1 Bft) 93,10 %
25.05.2016 14:39 17,3 C 78 % 1013,0 hPa 0,0 l/m 3,5 km/h (1 Bft) NW 320 0 min 0,000 mm 3,0 UV-I 349 W/m 13,4 C 17,3 C 4,8 km/h (1 Bft) 100,00 %
25.05.2016 14:40 17,2 C 76 % 1013,0 hPa 0,0 l/m 3,1 km/h (1 Bft) N-NW 327 0 min 0,000 mm 3,1 UV-I 367 W/m 12,9 C 17,2 C 4,8 km/h (1 Bft) 95,65 %
25.05.2016 14:41 17,1 C 73 % 1013,0 hPa 0,0 l/m 2,4 km/h (1 Bft) N-NW 327 0 min 0,000 mm 3,5 UV-I 374 W/m 12,2 C 17,1 C 3,2 km/h (1 Bft) 100,00 %
25.05.2016 14:42 17,1 C 77 % 1013,0 hPa 0,0 l/m 1,7 km/h (1 Bft) N-NW 327 0 min 0,000 mm 3,7 UV-I 374 W/m 13,0 C 17,1 C 3,2 km/h (1 Bft) 96,15 %
25.05.2016 14:43 17,2 C 76 % 1013,0 hPa 0,0 l/m 1,9 km/h (1 Bft) NW 315 0 min 0,000 mm 3,8 UV-I 374 W/m 12,9 C 17,2 C 3,2 km/h (1 Bft) 95,83 %
25.05.2016 14:44 17,2 C 75 % 1012,9 hPa 0,0 l/m 1,5 km/h (1 Bft) NW 315 1 min 0,000 mm 4,1 UV-I 675 W/m 12,7 C 17,2 C 3,2 km/h (1 Bft) 100,00 %
25.05.2016 14:45 17,3 C 77 % 1012,9 hPa 0,0 l/m 1,9 km/h (1 Bft) NW 315 1 min 0,000 mm 4,1 UV-I 649 W/m 13,2 C 17,3 C 3,2 km/h (1 Bft) 97,37 %
25.05.2016 14:46 17,3 C 74 % 1012,9 hPa 0,0 l/m 0,4 km/h (0 Bft) NW 315 0 min 0,000 mm 3,4 UV-I 426 W/m 12,6 C 17,3 C 1,6 km/h (1 Bft) 100,00 %
25.05.2016 14:47 17,4 C 75 % 1012,9 hPa 0,0 l/m 3,9 km/h (1 Bft) NO 34 0 min 0,000 mm 3,8 UV-I 425 W/m 12,9 C 17,4 C 6,4 km/h (2 Bft) 95,65 %
25.05.2016 14:48 17,6 C 79 % 1012,9 hPa 0,0 l/m 1,9 km/h (1 Bft) N-NO 13 0 min 0,000 mm 3,8 UV-I 425 W/m 13,9 C 17,6 C 3,2 km/h (1 Bft) 100,00 %
25.05.2016 14:49 17,6 C 79 % 1012,9 hPa 0,0 l/m 3,6 km/h (1 Bft) N-NO 32 0 min 0,000 mm 3,9 UV-I 425 W/m 13,9 C 17,6 C 9,7 km/h (2 Bft) 95,65 %
25.05.2016 14:50 17,7 C 78 % 1012,9 hPa 0,0 l/m 11,8 km/h (2 Bft) N-NO 26 1 min 0,000 mm 4,3 UV-I 733 W/m 13,8 C 15,4 C 16,1 km/h (3 Bft) 100,00 %
25.05.2016 14:51 17,7 C 79 % 1012,9 hPa 0,0 l/m 8,6 km/h (2 Bft) N 5 1 min 0,000 mm 3,9 UV-I 696 W/m 14,0 C 16,7 C 14,5 km/h (3 Bft) 96,15 %
25.05.2016 14:52 17,7 C 78 % 1012,8 hPa 0,0 l/m 5,4 km/h (1 Bft) N-NO 12 1 min 0,000 mm 3,7 UV-I 696 W/m 13,8 C 17,7 C 8,0 km/h (2 Bft) 100,00 %
25.05.2016 14:53 17,6 C 77 % 1012,9 hPa 0,0 l/m 5,0 km/h (1 Bft) N 355 1 min 0,000 mm 3,5 UV-I 554 W/m 13,5 C 17,6 C 12,9 km/h (3 Bft) 96,30 %
25.05.2016 14:54 17,6 C 77 % 1012,9 hPa 0,0 l/m 2,4 km/h (1 Bft) N-NW 346 0 min 0,000 mm 3,2 UV-I 380 W/m 13,5 C 17,6 C 4,8 km/h (1 Bft) 95,83 %
25.05.2016 14:55 17,4 C 75 % 1012,9 hPa 0,0 l/m 2,1 km/h (1 Bft) W-NW 301 0 min 0,000 mm 3,2 UV-I 374 W/m 12,9 C 17,4 C 3,2 km/h (1 Bft) 100,00 %
25.05.2016 14:56 17,3 C 77 % 1012,9 hPa 0,0 l/m 2,4 km/h (1 Bft) NW 313 0 min 0,000 mm 3,5 UV-I 380 W/m 13,2 C 17,3 C 4,8 km/h (1 Bft) 100,00 %
25.05.2016 14:57 17,4 C 76 % 1012,9 hPa 0,0 l/m 0,6 km/h (0 Bft) NW 311 0 min 0,000 mm 3,2 UV-I 384 W/m 13,1 C 17,4 C 3,2 km/h (1 Bft) 98,58 %
25.05.2016 14:58 17,4 C 78 % 1012,9 hPa 0,0 l/m 1,7 km/h (1 Bft) NW 316 0 min 0,000 mm 3,3 UV-I 415 W/m 13,5 C 17,4 C 3,2 km/h (1 Bft) 95,12 %
25.05.2016 14:59 17,5 C 78 % 1012,9 hPa 0,0 l/m 2,1 km/h (1 Bft) N-NO 24 0 min 0,000 mm 3,2 UV-I 380 W/m 13,6 C 17,5 C 3,2 km/h (1 Bft) 95,65 %
25.05.2016 15:00 17,6 C 77 % 1012,9 hPa 0,0 l/m 2,7 km/h (1 Bft) NW 313 0 min 0,000 mm 3,1 UV-I 343 W/m 13,5 C 17,6 C 4,8 km/h (1 Bft) 100,00 %
25.05.2016 15:02 17,6 C 74 % 1012,9 hPa 0,0 l/m 1,3 km/h (1 Bft) NW 325 0 min 0,355 mm 3,2 UV-I 352 W/m 12,9 C 17,6 C 3,2 km/h (1 Bft) 98,00 %
25.05.2016 15:03 17,5 C 77 % 1012,9 hPa 0,0 l/m 2,3 km/h (1 Bft) NW 313 0 min 0,000 mm 2,9 UV-I 356 W/m 13,4 C 17,5 C 4,8 km/h (1 Bft) 100,00 %
25.05.2016 15:04 17,4 C 76 % 1012,9 hPa 0,0 l/m 3,1 km/h (1 Bft) NW 317 0 min 0,000 mm 2,8 UV-I 338 W/m 13,1 C 17,4 C 4,8 km/h (1 Bft) 100,00 %
25.05.2016 15:05 17,4 C 79 % 1012,9 hPa 0,0 l/m 3,8 km/h (1 Bft) N 355 0 min 0,000 mm 2,6 UV-I 326 W/m 13,7 C 17,4 C 6,4 km/h (2 Bft) 100,00 %
25.05.2016 15:06 17,5 C 77 % 1012,9 hPa 0,0 l/m 3,9 km/h (1 Bft) W-NW 291 0 min 0,000 mm 2,5 UV-I 314 W/m 13,4 C 17,5 C 6,4 km/h (2 Bft) 96,15 %
25.05.2016 15:07 17,4 C 79 % 1012,9 hPa 0,0 l/m 4,2 km/h (1 Bft) NW 319 0 min 0,000 mm 2,3 UV-I 305 W/m 13,7 C 17,4 C 6,4 km/h (2 Bft) 91,67 %
25.05.2016 15:08 17,3 C 77 % 1012,9 hPa 0,0 l/m 1,2 km/h (1 Bft) NW 321 0 min 0,000 mm 2,3 UV-I 307 W/m 13,2 C 17,3 C 1,6 km/h (1 Bft) 100,00 %
25.05.2016 15:09 17,2 C 79 % 1012,9 hPa 0,0 l/m 1,3 km/h (1 Bft) NW 321 0 min 0,000 mm 2,3 UV-I 319 W/m 13,5 C 17,2 C 3,2 km/h (1 Bft) 100,00 %
25.05.2016 15:10 17,1 C 77 % 1012,9 hPa 0,0 l/m 1,2 km/h (1 Bft) NW 323 0 min 0,000 mm 2,3 UV-I 320 W/m 13,0 C 17,1 C 1,6 km/h (1 Bft) 100,00 %
25.05.2016 15:11 17,1 C 79 % 1012,9 hPa 0,0 l/m 2,4 km/h (1 Bft) N-NW 340 0 min 0,000 mm 2,1 UV-I 310 W/m 13,4 C 17,1 C 4,8 km/h (1 Bft) 100,00 %
25.05.2016 15:12 17,0 C 80 % 1012,9 hPa 0,0 l/m 2,5 km/h (1 Bft) N-NW 338 0 min 0,000 mm 2,0 UV-I 294 W/m 13,5 C 17,0 C 4,8 km/h (1 Bft) 98,58 %
25.05.2016 15:13 17,0 C 79 % 1012,9 hPa 0,0 l/m 2,6 km/h (1 Bft) N 10 0 min 0,000 mm 2,0 UV-I 274 W/m 13,3 C 17,0 C 4,8 km/h (1 Bft) 100,00 %
25.05.2016 15:14 17,0 C 80 % 1012,9 hPa 0,0 l/m 2,2 km/h (1 Bft) N-NW 329 0 min 0,000 mm 1,9 UV-I 265 W/m 13,5 C 17,0 C 4,8 km/h (1 Bft) 100,00 %
25.05.2016 15:15 16,9 C 81 % 1012,9 hPa 0,0 l/m 2,4 km/h (1 Bft) N 11 0 min 0,000 mm 1,9 UV-I 268 W/m 13,6 C 16,9 C 3,2 km/h (1 Bft) 100,00 %
25.05.2016 15:16 16,9 C 80 % 1012,9 hPa 0,0 l/m 4,2 km/h (1 Bft) N 355 0 min 0,000 mm 1,9 UV-I 279 W/m 13,4 C 16,9 C 8,0 km/h (2 Bft) 100,00 %
25.05.2016 15:17 16,9 C 79 % 1012,9 hPa 0,0 l/m 2,5 km/h (1 Bft) N-NW 344 0 min 0,000 mm 2,1 UV-I 296 W/m 13,2 C 16,9 C 3,2 km/h (1 Bft) 100,00 %
25.05.2016 15:18 16,9 C 79 % 1012,9 hPa 0,0 l/m 1,4 km/h (1 Bft) NW 323 0 min 0,000 mm 2,1 UV-I 316 W/m 13,2 C 16,9 C 1,6 km/h (1 Bft) 100,00 %
25.05.2016 15:19 16,9 C 80 % 1012,9 hPa 0,0 l/m 0,9 km/h (0 Bft) N-NW 328 0 min 0,000 mm 2,2 UV-I 338 W/m 13,4 C 16,9 C 1,6 km/h (1 Bft) 100,00 %
25.05.2016 15:20 16,9 C 81 % 1012,9 hPa 0,0 l/m 1,9 km/h (1 Bft) N 349 0 min 0,000 mm 2,2 UV-I 345 W/m 13,6 C 16,9 C 4,8 km/h (1 Bft) 100,00 %
25.05.2016 15:21 16,9 C 78 % 1012,9 hPa 0,0 l/m 1,1 km/h (1 Bft) N 349 0 min 0,000 mm 2,2 UV-I 346 W/m 13,0 C 16,9 C 3,2 km/h (1 Bft) 100,00 %
25.05.2016 15:22 16,9 C 78 % 1012,9 hPa 0,0 l/m 0,5 km/h (0 Bft) N 349 0 min 0,000 mm 2,2 UV-I 345 W/m 13,0 C 16,9 C 1,6 km/h (1 Bft) 100,00 %
25.05.2016 15:23 16,9 C 77 % 1012,9 hPa 0,0 l/m 0,6 km/h (0 Bft) N 349 0 min 0,000 mm 2,2 UV-I 331 W/m 12,8 C 16,9 C 1,6 km/h (1 Bft) 96,15 %
25.05.2016 15:24 17,0 C 78 % 1012,9 hPa 0,0 l/m 1,3 km/h (1 Bft) N 349 0 min 0,000 mm 2,2 UV-I 341 W/m 13,1 C 17,0 C 1,6 km/h (1 Bft) 100,00 %
25.05.2016 15:25 17,1 C 77 % 1012,9 hPa 0,0 l/m 1,4 km/h (1 Bft) N-NW 348 0 min 0,000 mm 2,2 UV-I 348 W/m 13,0 C 17,1 C 1,6 km/h (1 Bft) 100,00 %
25.05.2016 15:26 17,1 C 78 % 1012,9 hPa 0,0 l/m 2,8 km/h (1 Bft) NW 321 0 min 0,000 mm 2,2 UV-I 353 W/m 13,2 C 17,1 C 4,8 km/h (1 Bft) 100,00 %
25.05.2016 15:27 17,2 C 80 % 1012,9 hPa 0,0 l/m 1,9 km/h (1 Bft) NW 325 0 min 0,000 mm 2,2 UV-I 355 W/m 13,7 C 17,2 C 4,8 km/h (1 Bft) 100,00 %
25.05.2016 15:28 17,2 C 80 % 1012,9 hPa 0,0 l/m 1,7 km/h (1 Bft) N-NO 22 0 min 0,000 mm 2,2 UV-I 353 W/m 13,7 C 17,2 C 4,8 km/h (1 Bft) 96,30 %
25.05.2016 15:29 17,3 C 81 % 1012,9 hPa 0,0 l/m 2,1 km/h (1 Bft) NW 306 0 min 0,000 mm 2,1 UV-I 351 W/m 14,0 C 17,3 C 3,2 km/h (1 Bft) 100,00 %
25.05.2016 15:30 17,3 C 80 % 1012,9 hPa 0,0 l/m 1,2 km/h (1 Bft) NW 315 0 min 0,000 mm 2,1 UV-I 347 W/m 13,8 C 17,3 C 1,6 km/h (1 Bft) 96,30 %
25.05.2016 15:31 17,3 C 81 % 1012,9 hPa 0,0 l/m 2,9 km/h (1 Bft) W 275 0 min 0,000 mm 2,1 UV-I 343 W/m 14,0 C 17,3 C 6,4 km/h (2 Bft) 100,00 %
25.05.2016 15:32 17,3 C 78 % 1013,0 hPa 0,0 l/m 4,3 km/h (1 Bft) NW 311 0 min 0,000 mm 2,1 UV-I 342 W/m 13,4 C 17,3 C 6,4 km/h (2 Bft) 100,00 %
25.05.2016 15:33 17,3 C 78 % 1012,9 hPa 0,0 l/m 3,6 km/h (1 Bft) NW 309 0 min 0,000 mm 2,2 UV-I 345 W/m 13,4 C 17,3 C 6,4 km/h (2 Bft) 100,00 %
25.05.2016 15:34 17,3 C 78 % 1012,9 hPa 0,0 l/m 1,7 km/h (1 Bft) NW 309 0 min 0,000 mm 2,4 UV-I 377 W/m 13,4 C 17,3 C 3,2 km/h (1 Bft) 100,00 %
25.05.2016 15:35 17,3 C 78 % 1013,0 hPa 0,0 l/m 3,0 km/h (1 Bft) W-NW 301 0 min 0,000 mm 2,0 UV-I 370 W/m 13,4 C 17,3 C 4,8 km/h (1 Bft) 100,00 %
25.05.2016 15:36 17,3 C 77 % 1013,0 hPa 0,0 l/m 3,4 km/h (1 Bft) N-NW 336 0 min 0,000 mm 1,9 UV-I 328 W/m 13,2 C 17,3 C 4,8 km/h (1 Bft) 100,00 %
25.05.2016 15:37 17,3 C 77 % 1012,9 hPa 0,0 l/m 3,9 km/h (1 Bft) N-NW 331 0 min 0,000 mm 1,9 UV-I 321 W/m 13,2 C 17,3 C 6,4 km/h (2 Bft) 96,15 %
25.05.2016 15:38 17,3 C 76 % 1013,0 hPa 0,0 l/m 4,2 km/h (1 Bft) N 349 0 min 0,000 mm 1,8 UV-I 315 W/m 13,0 C 17,3 C 8,0 km/h (2 Bft) 100,00 %
25.05.2016 15:39 17,3 C 76 % 1013,0 hPa 0,0 l/m 2,7 km/h (1 Bft) NW 319 0 min 0,000 mm 1,8 UV-I 312 W/m 13,0 C 17,3 C 4,8 km/h (1 Bft) 100,00 %
25.05.2016 15:40 17,3 C 77 % 1012,9 hPa 0,0 l/m 4,3 km/h (1 Bft) NW 318 0 min 0,000 mm 1,8 UV-I 310 W/m 13,2 C 17,3 C 6,4 km/h (2 Bft) 96,15 %
25.05.2016 15:41 17,3 C 77 % 1013,0 hPa 0,0 l/m 2,4 km/h (1 Bft) W-NW 302 0 min 0,000 mm 1,8 UV-I 307 W/m 13,2 C 17,3 C 6,4 km/h (2 Bft) 100,00 %
25.05.2016 15:42 17,3 C 78 % 1013,0 hPa 0,0 l/m 0,8 km/h (0 Bft) N-NW 336 0 min 0,000 mm 1,6 UV-I 303 W/m 13,4 C 17,3 C 1,6 km/h (1 Bft) 100,00 %
25.05.2016 15:43 17,2 C 77 % 1013,0 hPa 0,0 l/m 0,9 km/h (0 Bft) N-NW 336 0 min 0,000 mm 1,6 UV-I 299 W/m 13,1 C 17,2 C 3,2 km/h (1 Bft) 100,00 %
25.05.2016 15:44 17,2 C 78 % 1013,0 hPa 0,0 l/m 1,4 km/h (1 Bft) N-NW 336 0 min 0,000 mm 1,7 UV-I 300 W/m 13,3 C 17,2 C 1,6 km/h (1 Bft) 100,00 %
25.05.2016 15:45 17,2 C 76 % 1013,0 hPa 0,0 l/m 1,5 km/h (1 Bft) NW 313 0 min 0,000 mm 1,7 UV-I 301 W/m 12,9 C 17,2 C 3,2 km/h (1 Bft) 100,00 %
25.05.2016 15:46 17,2 C 78 % 1013,0 hPa 0,0 l/m 1,8 km/h (1 Bft) NW 313 0 min 0,000 mm 1,7 UV-I 303 W/m 13,3 C 17,2 C 3,2 km/h (1 Bft) 100,00 %
25.05.2016 15:47 17,3 C 77 % 1012,9 hPa 0,0 l/m 2,1 km/h (1 Bft) NW 315 0 min 0,000 mm 1,7 UV-I 306 W/m 13,2 C 17,3 C 3,2 km/h (1 Bft) 100,00 %
25.05.2016 15:48 17,3 C 77 % 1013,0 hPa 0,0 l/m 2,4 km/h (1 Bft) NW 315 0 min 0,000 mm 1,7 UV-I 308 W/m 13,2 C 17,3 C 6,4 km/h (2 Bft) 95,65 %
25.05.2016 15:49 17,3 C 79 % 1012,9 hPa 0,0 l/m 3,0 km/h (1 Bft) NW 309 0 min 0,000 mm 1,7 UV-I 301 W/m 13,6 C 17,3 C 4,8 km/h (1 Bft) 100,00 %
25.05.2016 15:50 17,3 C 78 % 1012,9 hPa 0,0 l/m 3,9 km/h (1 Bft) N 349 0 min 0,000 mm 1,7 UV-I 293 W/m 13,4 C 17,3 C 6,4 km/h (2 Bft) 100,00 %
25.05.2016 15:51 17,3 C 76 % 1012,9 hPa 0,0 l/m 2,0 km/h (1 Bft) N-NW 344 0 min 0,000 mm 1,6 UV-I 285 W/m 13,0 C 17,3 C 4,8 km/h (1 Bft) 100,00 %
25.05.2016 15:52 17,3 C 76 % 1013,0 hPa 0,0 l/m 2,7 km/h (1 Bft) W-NW 295 0 min 0,000 mm 1,6 UV-I 280 W/m 13,0 C 17,3 C 4,8 km/h (1 Bft) 100,00 %
25.05.2016 15:53 17,3 C 78 % 1012,9 hPa 0,0 l/m 3,4 km/h (1 Bft) W-NW 293 0 min 0,000 mm 1,5 UV-I 275 W/m 13,4 C 17,3 C 6,4 km/h (2 Bft) 100,00 %
25.05.2016 15:54 17,3 C 78 % 1012,9 hPa 0,0 l/m 2,7 km/h (1 Bft) W-NW 294 0 min 0,000 mm 1,5 UV-I 272 W/m 13,4 C 17,3 C 4,8 km/h (1 Bft) 100,00 %
25.05.2016 15:55 17,3 C 77 % 1013,0 hPa 0,0 l/m 2,1 km/h (1 Bft) W-NW 294 0 min 0,000 mm 1,5 UV-I 272 W/m 13,2 C 17,3 C 4,8 km/h (1 Bft) 100,00 %
25.05.2016 15:56 17,3 C 79 % 1013,0 hPa 0,0 l/m 1,5 km/h (1 Bft) W-NW 294 0 min 0,000 mm 1,5 UV-I 271 W/m 13,6 C 17,3 C 3,2 km/h (1 Bft) 100,00 %
25.05.2016 15:57 17,3 C 77 % 1013,0 hPa 0,0 l/m 1,1 km/h (1 Bft) W-NW 294 0 min 0,000 mm 1,5 UV-I 267 W/m 13,2 C 17,3 C 3,2 km/h (1 Bft) 100,00 %
25.05.2016 15:58 17,3 C 77 % 1013,0 hPa 0,0 l/m 0,6 km/h (0 Bft) W-NW 294 0 min 0,000 mm 1,4 UV-I 262 W/m 13,2 C 17,3 C 1,6 km/h (1 Bft) 95,65 %
25.05.2016 15:59 17,3 C 77 % 1012,9 hPa 0,0 l/m 2,2 km/h (1 Bft) W-NW 301 0 min 0,000 mm 1,4 UV-I 258 W/m 13,2 C 17,3 C 4,8 km/h (1 Bft) 100,00 %
25.05.2016 16:00 17,2 C 75 % 1012,9 hPa 0,0 l/m 2,6 km/h (1 Bft) W-NW 302 0 min 0,000 mm 1,4 UV-I 253 W/m 12,7 C 17,2 C 4,8 km/h (1 Bft) 100,00 %
25.05.2016 16:02 17,2 C 76 % 1013,0 hPa 0,0 l/m 1,4 km/h (1 Bft) W-NW 302 0 min 0,178 mm 1,3 UV-I 250 W/m 12,9 C 17,2 C 4,8 km/h (1 Bft) 98,18 %
25.05.2016 16:03 17,2 C 78 % 1012,9 hPa 0,0 l/m 1,5 km/h (1 Bft) W-NW 302 0 min 0,000 mm 1,3 UV-I 248 W/m 13,3 C 17,2 C 1,6 km/h (1 Bft) 96,30 %
25.05.2016 16:04 17,2 C 78 % 1012,9 hPa 0,0 l/m 1,3 km/h (1 Bft) W-NW 302 0 min 0,000 mm 1,3 UV-I 249 W/m 13,3 C 17,2 C 3,2 km/h (1 Bft) 91,67 %
25.05.2016 16:05 17,3 C 79 % 1012,9 hPa 0,0 l/m 2,3 km/h (1 Bft) NW 323 0 min 0,000 mm 1,3 UV-I 250 W/m 13,6 C 17,3 C 4,8 km/h (1 Bft) 93,33 %
25.05.2016 16:06 17,3 C 76 % 1012,9 hPa 0,0 l/m 2,6 km/h (1 Bft) W-NW 291 0 min 0,000 mm 1,2 UV-I 250 W/m 13,0 C 17,3 C 4,8 km/h (1 Bft) 100,00 %
25.05.2016 16:07 17,3 C 78 % 1012,9 hPa 0,0 l/m 0,5 km/h (0 Bft) W-NW 291 0 min 0,000 mm 1,2 UV-I 250 W/m 13,4 C 17,3 C 1,6 km/h (1 Bft) 100,00 %
25.05.2016 16:08 17,3 C 79 % 1012,9 hPa 0,0 l/m 2,2 km/h (1 Bft) W-NW 295 0 min 0,000 mm 1,3 UV-I 247 W/m 13,6 C 17,3 C 4,8 km/h (1 Bft) 100,00 %
25.05.2016 16:09 17,3 C 75 % 1012,9 hPa 0,0 l/m 0,7 km/h (0 Bft) W-NW 295 0 min 0,000 mm 1,3 UV-I 245 W/m 12,8 C 17,3 C 3,2 km/h (1 Bft) 100,00 %
25.05.2016 16:10 17,3 C 76 % 1012,9 hPa 0,0 l/m 3,4 km/h (1 Bft) W 281 0 min 0,000 mm 1,3 UV-I 243 W/m 13,0 C 17,3 C 4,8 km/h (1 Bft) 100,00 %
25.05.2016 16:11 17,3 C 77 % 1012,9 hPa 0,0 l/m 2,6 km/h (1 Bft) W-NW 288 0 min 0,000 mm 1,3 UV-I 238 W/m 13,2 C 17,3 C 3,2 km/h (1 Bft) 96,15 %
25.05.2016 16:12 17,3 C 75 % 1012,9 hPa 0,0 l/m 2,4 km/h (1 Bft) W-NW 300 0 min 0,000 mm 1,3 UV-I 234 W/m 12,8 C 17,3 C 3,2 km/h (1 Bft) 100,00 %
25.05.2016 16:13 17,3 C 76 % 1012,8 hPa 0,0 l/m 1,4 km/h (1 Bft) N-NW 333 0 min 0,000 mm 1,3 UV-I 227 W/m 13,0 C 17,3 C 1,6 km/h (1 Bft) 100,00 %
25.05.2016 16:14 17,3 C 76 % 1012,9 hPa 0,0 l/m 1,2 km/h (1 Bft) N-NW 333 0 min 0,000 mm 1,2 UV-I 220 W/m 13,0 C 17,3 C 3,2 km/h (1 Bft) 100,00 %
25.05.2016 16:15 17,3 C 78 % 1012,9 hPa 0,0 l/m 2,7 km/h (1 Bft) NW 308 0 min 0,000 mm 1,2 UV-I 211 W/m 13,4 C 17,3 C 3,2 km/h (1 Bft) 100,00 %
25.05.2016 16:16 17,3 C 76 % 1012,9 hPa 0,0 l/m 3,0 km/h (1 Bft) W-NW 285 0 min 0,000 mm 1,1 UV-I 204 W/m 13,0 C 17,3 C 4,8 km/h (1 Bft) 93,33 %
25.05.2016 16:17 17,3 C 77 % 1012,9 hPa 0,0 l/m 5,6 km/h (1 Bft) W 269 0 min 0,000 mm 1,0 UV-I 195 W/m 13,2 C 17,3 C 6,4 km/h (2 Bft) 100,00 %
25.05.2016 16:18 17,3 C 77 % 1012,9 hPa 0,0 l/m 2,7 km/h (1 Bft) W 273 0 min 0,000 mm 1,0 UV-I 184 W/m 13,2 C 17,3 C 4,8 km/h (1 Bft) 100,00 %
25.05.2016 16:19 17,3 C 77 % 1012,9 hPa 0,0 l/m 2,4 km/h (1 Bft) W 262 0 min 0,000 mm 0,9 UV-I 175 W/m 13,2 C 17,3 C 3,2 km/h (1 Bft) 95,65 %
25.05.2016 16:20 17,3 C 78 % 1012,9 hPa 0,0 l/m 3,4 km/h (1 Bft) W 275 0 min 0,000 mm 0,9 UV-I 169 W/m 13,4 C 17,3 C 4,8 km/h (1 Bft) 100,00 %
25.05.2016 16:21 17,3 C 78 % 1012,9 hPa 0,0 l/m 4,9 km/h (1 Bft) W-SW 249 0 min 0,000 mm 0,9 UV-I 167 W/m 13,4 C 17,3 C 6,4 km/h (2 Bft) 100,00 %
25.05.2016 16:22 17,3 C 77 % 1012,9 hPa 0,0 l/m 5,0 km/h (1 Bft) W 267 0 min 0,000 mm 0,9 UV-I 167 W/m 13,2 C 17,3 C 6,4 km/h (2 Bft) 100,00 %
25.05.2016 16:23 17,3 C 77 % 1012,9 hPa 0,0 l/m 5,5 km/h (1 Bft) W 270 0 min 0,000 mm 0,9 UV-I 171 W/m 13,2 C 17,3 C 11,3 km/h (2 Bft) 100,00 %
25.05.2016 16:24 17,3 C 76 % 1012,9 hPa 0,0 l/m 5,5 km/h (1 Bft) W-SW 238 0 min 0,000 mm 0,9 UV-I 172 W/m 13,0 C 17,3 C 9,7 km/h (2 Bft) 100,00 %
25.05.2016 16:25 17,3 C 77 % 1012,9 hPa 0,0 l/m 5,0 km/h (1 Bft) W-SW 253 0 min 0,000 mm 0,9 UV-I 175 W/m 13,2 C 17,3 C 8,0 km/h (2 Bft) 100,00 %
25.05.2016 16:26 17,3 C 78 % 1012,9 hPa 0,0 l/m 2,7 km/h (1 Bft) W-SW 254 0 min 0,000 mm 0,9 UV-I 177 W/m 13,4 C 17,3 C 4,8 km/h (1 Bft) 95,65 %
25.05.2016 16:27 17,3 C 78 % 1012,9 hPa 0,0 l/m 1,6 km/h (1 Bft) W-SW 254 0 min 0,000 mm 0,9 UV-I 180 W/m 13,4 C 17,3 C 3,2 km/h (1 Bft) 96,67 %
25.05.2016 16:28 17,3 C 79 % 1012,9 hPa 0,0 l/m 1,4 km/h (1 Bft) W-SW 254 0 min 0,000 mm 0,9 UV-I 184 W/m 13,6 C 17,3 C 1,6 km/h (1 Bft) 100,00 %
25.05.2016 16:29 17,2 C 77 % 1012,8 hPa 0,0 l/m 4,1 km/h (1 Bft) W 279 0 min 0,000 mm 0,9 UV-I 190 W/m 13,1 C 17,2 C 4,8 km/h (1 Bft) 96,30 %
25.05.2016 16:30 17,2 C 76 % 1012,9 hPa 0,0 l/m 3,3 km/h (1 Bft) W 270 0 min 0,000 mm 1,0 UV-I 195 W/m 12,9 C 17,2 C 4,8 km/h (1 Bft) 100,00 %
25.05.2016 16:31 17,2 C 76 % 1012,9 hPa 0,0 l/m 3,7 km/h (1 Bft) W 270 0 min 0,000 mm 1,0 UV-I 200 W/m 12,9 C 17,2 C 4,8 km/h (1 Bft) 93,33 %
25.05.2016 16:32 17,2 C 75 % 1012,9 hPa 0,0 l/m 2,7 km/h (1 Bft) W 270 0 min 0,000 mm 1,0 UV-I 203 W/m 12,7 C 17,2 C 4,8 km/h (1 Bft) 100,00 %
25.05.2016 16:33 17,2 C 77 % 1012,9 hPa 0,0 l/m 3,3 km/h (1 Bft) W-NW 290 0 min 0,000 mm 1,0 UV-I 203 W/m 13,1 C 17,2 C 6,4 km/h (2 Bft) 96,67 %
25.05.2016 16:34 17,2 C 76 % 1012,9 hPa 0,0 l/m 5,6 km/h (1 Bft) W 278 0 min 0,000 mm 1,0 UV-I 201 W/m 12,9 C 17,2 C 9,7 km/h (2 Bft) 100,00 %
25.05.2016 16:35 17,2 C 74 % 1012,9 hPa 0,0 l/m 4,0 km/h (1 Bft) NW 304 0 min 0,000 mm 1,0 UV-I 199 W/m 12,5 C 17,2 C 4,8 km/h (1 Bft) 96,15 %
25.05.2016 16:36 17,2 C 75 % 1012,9 hPa 0,0 l/m 5,1 km/h (1 Bft) W-SW 245 0 min 0,000 mm 1,0 UV-I 197 W/m 12,7 C 17,2 C 6,4 km/h (2 Bft) 96,15 %
25.05.2016 16:37 17,2 C 75 % 1012,9 hPa 0,0 l/m 3,4 km/h (1 Bft) W 265 0 min 0,000 mm 0,9 UV-I 194 W/m 12,7 C 17,2 C 4,8 km/h (1 Bft) 95,83 %
25.05.2016 16:38 17,2 C 76 % 1012,9 hPa 0,0 l/m 2,1 km/h (1 Bft) W 261 0 min 0,000 mm 0,9 UV-I 193 W/m 12,9 C 17,2 C 3,2 km/h (1 Bft) 95,83 %
25.05.2016 16:39 17,2 C 76 % 1012,9 hPa 0,0 l/m 3,1 km/h (1 Bft) W 261 0 min 0,000 mm 0,9 UV-I 194 W/m 12,9 C 17,2 C 4,8 km/h (1 Bft) 100,00 %
25.05.2016 16:40 17,3 C 75 % 1012,9 hPa 0,0 l/m 3,5 km/h (1 Bft) NW 304 0 min 0,000 mm 1,0 UV-I 197 W/m 12,8 C 17,3 C 4,8 km/h (1 Bft) 95,83 %
25.05.2016 16:41 17,2 C 75 % 1012,9 hPa 0,0 l/m 2,9 km/h (1 Bft) W 266 0 min 0,000 mm 1,0 UV-I 200 W/m 12,7 C 17,2 C 4,8 km/h (1 Bft) 100,00 %
25.05.2016 16:42 17,2 C 74 % 1012,9 hPa 0,0 l/m 6,8 km/h (2 Bft) SW 229 0 min 0,000 mm 1,0 UV-I 202 W/m 12,5 C 17,0 C 8,0 km/h (2 Bft) 95,83 %
25.05.2016 16:43 17,2 C 74 % 1012,8 hPa 0,0 l/m 3,2 km/h (1 Bft) W-SW 238 0 min 0,000 mm 1,0 UV-I 203 W/m 12,5 C 17,2 C 4,8 km/h (1 Bft) 93,10 %
25.05.2016 16:44 17,2 C 74 % 1012,8 hPa 0,0 l/m 2,5 km/h (1 Bft) W-SW 258 0 min 0,000 mm 1,0 UV-I 203 W/m 12,5 C 17,2 C 4,8 km/h (1 Bft) 100,00 %
25.05.2016 16:45 17,2 C 75 % 1012,9 hPa 0,0 l/m 1,1 km/h (1 Bft) W-SW 258 0 min 0,000 mm 1,0 UV-I 202 W/m 12,7 C 17,2 C 3,2 km/h (1 Bft) 100,00 %
25.05.2016 16:46 17,2 C 77 % 1012,9 hPa 0,0 l/m 1,4 km/h (1 Bft) W-SW 258 0 min 0,000 mm 0,9 UV-I 200 W/m 13,1 C 17,2 C 3,2 km/h (1 Bft) 96,30 %
25.05.2016 16:47 17,3 C 75 % 1012,9 hPa 0,0 l/m 1,9 km/h (1 Bft) W-SW 258 0 min 0,000 mm 0,9 UV-I 199 W/m 12,8 C 17,3 C 3,2 km/h (1 Bft) 94,12 %
25.05.2016 16:48 17,2 C 74 % 1012,9 hPa 0,0 l/m 0,8 km/h (0 Bft) W-SW 258 0 min 0,000 mm 0,9 UV-I 196 W/m 12,5 C 17,2 C 1,6 km/h (1 Bft) 100,00 %
25.05.2016 16:49 17,2 C 75 % 1012,9 hPa 0,0 l/m 0,5 km/h (0 Bft) W-SW 258 0 min 0,000 mm 0,9 UV-I 195 W/m 12,7 C 17,2 C 3,2 km/h (1 Bft) 96,15 %
25.05.2016 16:50 17,3 C 77 % 1012,9 hPa 0,0 l/m 2,9 km/h (1 Bft) W 275 0 min 0,000 mm 0,9 UV-I 196 W/m 13,2 C 17,3 C 3,2 km/h (1 Bft) 100,00 %
25.05.2016 16:51 17,3 C 76 % 1012,9 hPa 0,0 l/m 2,7 km/h (1 Bft) W-SW 248 0 min 0,000 mm 0,9 UV-I 198 W/m 13,0 C 17,3 C 4,8 km/h (1 Bft) 95,65 %
25.05.2016 16:52 17,3 C 75 % 1012,9 hPa 0,0 l/m 6,0 km/h (2 Bft) S-SW 195 0 min 0,000 mm 0,9 UV-I 200 W/m 12,8 C 17,3 C 8,0 km/h (2 Bft) 100,00 %
25.05.2016 16:53 17,3 C 76 % 1012,9 hPa 0,0 l/m 5,5 km/h (1 Bft) W 263 0 min 0,000 mm 0,9 UV-I 202 W/m 13,0 C 17,3 C 9,7 km/h (2 Bft) 95,65 %
25.05.2016 16:54 17,3 C 74 % 1012,9 hPa 0,0 l/m 6,0 km/h (2 Bft) W 260 0 min 0,000 mm 0,9 UV-I 207 W/m 12,6 C 17,3 C 9,7 km/h (2 Bft) 96,30 %
25.05.2016 16:55 17,3 C 76 % 1012,9 hPa 0,0 l/m 4,3 km/h (1 Bft) W-NW 284 0 min 0,000 mm 0,9 UV-I 213 W/m 13,0 C 17,3 C 6,4 km/h (2 Bft) 98,58 %
25.05.2016 16:56 17,3 C 76 % 1012,8 hPa 0,0 l/m 4,4 km/h (1 Bft) W-SW 257 0 min 0,000 mm 1,0 UV-I 218 W/m 13,0 C 17,3 C 8,0 km/h (2 Bft) 97,37 %
25.05.2016 16:57 17,4 C 75 % 1012,8 hPa 0,0 l/m 6,4 km/h (2 Bft) W 259 0 min 0,000 mm 1,0 UV-I 236 W/m 12,9 C 17,4 C 9,7 km/h (2 Bft) 100,00 %
25.05.2016 16:58 17,4 C 75 % 1012,8 hPa 0,0 l/m 4,3 km/h (1 Bft) W 279 0 min 0,000 mm 1,1 UV-I 250 W/m 12,9 C 17,4 C 6,4 km/h (2 Bft) 95,65 %
25.05.2016 16:59 17,4 C 75 % 1012,8 hPa 0,0 l/m 3,6 km/h (1 Bft) W 278 0 min 0,000 mm 1,1 UV-I 258 W/m 12,9 C 17,4 C 4,8 km/h (1 Bft) 100,00 %
25.05.2016 17:00 17,4 C 75 % 1012,9 hPa 0,0 l/m 3,1 km/h (1 Bft) W 278 0 min 0,000 mm 1,1 UV-I 261 W/m 12,9 C 17,4 C 4,8 km/h (1 Bft) 95,65 %
25.05.2016 17:02 17,4 C 74 % 1012,8 hPa 0,0 l/m 4,0 km/h (1 Bft) W 272 0 min 0,127 mm 1,1 UV-I 253 W/m 12,7 C 17,4 C 6,4 km/h (2 Bft) 100,00 %
25.05.2016 17:03 17,4 C 74 % 1012,8 hPa 0,0 l/m 4,4 km/h (1 Bft) W-SW 240 0 min 0,000 mm 1,1 UV-I 239 W/m 12,7 C 17,4 C 6,4 km/h (2 Bft) 96,30 %
25.05.2016 17:04 17,4 C 73 % 1012,8 hPa 0,0 l/m 3,8 km/h (1 Bft) W 262 0 min 0,000 mm 1,0 UV-I 230 W/m 12,5 C 17,4 C 4,8 km/h (1 Bft) 88,46 %
25.05.2016 17:05 17,4 C 74 % 1012,8 hPa 0,0 l/m 5,6 km/h (1 Bft) W 267 0 min 0,000 mm 1,0 UV-I 220 W/m 12,7 C 17,4 C 9,7 km/h (2 Bft) 100,00 %
25.05.2016 17:06 17,4 C 73 % 1012,8 hPa 0,0 l/m 4,0 km/h (1 Bft) SW 225 0 min 0,000 mm 0,9 UV-I 217 W/m 12,5 C 17,4 C 6,4 km/h (2 Bft) 100,00 %
25.05.2016 17:07 17,5 C 74 % 1012,8 hPa 0,0 l/m 4,1 km/h (1 Bft) SW 232 0 min 0,000 mm 0,9 UV-I 215 W/m 12,8 C 17,5 C 6,4 km/h (2 Bft) 100,00 %
25.05.2016 17:08 17,5 C 75 % 1012,8 hPa 0,0 l/m 5,8 km/h (2 Bft) W 277 0 min 0,000 mm 0,9 UV-I 217 W/m 13,0 C 17,5 C 9,7 km/h (2 Bft) 100,00 %
25.05.2016 17:09 17,6 C 73 % 1012,8 hPa 0,0 l/m 3,5 km/h (1 Bft) W 277 0 min 0,000 mm 0,9 UV-I 223 W/m 12,7 C 17,6 C 4,8 km/h (1 Bft) 100,00 %
25.05.2016 17:10 17,6 C 75 % 1012,8 hPa 0,0 l/m 4,3 km/h (1 Bft) S-SW 208 0 min 0,000 mm 0,9 UV-I 229 W/m 13,1 C 17,6 C 6,4 km/h (2 Bft) 96,55 %
25.05.2016 17:11 17,6 C 75 % 1012,8 hPa 0,0 l/m 5,9 km/h (2 Bft) W-SW 255 0 min 0,000 mm 1,0 UV-I 240 W/m 13,1 C 17,6 C 8,0 km/h (2 Bft) 100,00 %
25.05.2016 17:12 17,6 C 75 % 1012,8 hPa 0,0 l/m 6,4 km/h (2 Bft) SW 224 0 min 0,000 mm 1,0 UV-I 251 W/m 13,1 C 17,6 C 8,0 km/h (2 Bft) 96,15 %
25.05.2016 17:13 17,7 C 75 % 1012,8 hPa 0,0 l/m 4,1 km/h (1 Bft) W-SW 248 0 min 0,000 mm 1,0 UV-I 261 W/m 13,2 C 17,7 C 8,0 km/h (2 Bft) 98,57 %
25.05.2016 17:14 17,7 C 74 % 1012,8 hPa 0,0 l/m 6,2 km/h (2 Bft) S-SW 213 0 min 0,000 mm 1,0 UV-I 267 W/m 13,0 C 17,7 C 8,0 km/h (2 Bft) 97,37 %
25.05.2016 17:15 17,7 C 73 % 1012,8 hPa 0,0 l/m 5,5 km/h (1 Bft) SW 223 0 min 0,000 mm 1,0 UV-I 274 W/m 12,8 C 17,7 C 8,0 km/h (2 Bft) 100,00 %
25.05.2016 17:16 17,6 C 74 % 1012,7 hPa 0,0 l/m 4,6 km/h (1 Bft) SW 215 0 min 0,000 mm 1,1 UV-I 287 W/m 12,9 C 17,6 C 6,4 km/h (2 Bft) 96,15 %
25.05.2016 17:17 17,7 C 75 % 1012,7 hPa 0,0 l/m 3,7 km/h (1 Bft) SW 226 1 min 0,000 mm 1,1 UV-I 313 W/m 13,2 C 17,7 C 4,8 km/h (1 Bft) 100,00 %
25.05.2016 17:18 17,7 C 75 % 1012,7 hPa 0,0 l/m 3,5 km/h (1 Bft) W-SW 250 1 min 0,000 mm 1,2 UV-I 336 W/m 13,2 C 17,7 C 4,8 km/h (1 Bft) 100,00 %
25.05.2016 17:19 17,8 C 75 % 1012,7 hPa 0,0 l/m 4,0 km/h (1 Bft) S 175 1 min 0,000 mm 1,3 UV-I 372 W/m 13,3 C 17,8 C 4,8 km/h (1 Bft) 100,00 %
25.05.2016 17:20 17,9 C 75 % 1012,7 hPa 0,0 l/m 7,0 km/h (2 Bft) S-SW 196 1 min 0,000 mm 1,3 UV-I 420 W/m 13,4 C 17,6 C 9,7 km/h (2 Bft) 100,00 %
25.05.2016 17:21 18,1 C 73 % 1012,7 hPa 0,0 l/m 4,6 km/h (1 Bft) S 186 1 min 0,000 mm 1,4 UV-I 453 W/m 13,2 C 18,1 C 8,0 km/h (2 Bft) 100,00 %
25.05.2016 17:22 18,1 C 72 % 1012,7 hPa 0,0 l/m 5,8 km/h (2 Bft) S-SW 192 1 min 0,000 mm 1,5 UV-I 462 W/m 13,0 C 18,1 C 8,0 km/h (2 Bft) 100,00 %
25.05.2016 17:23 18,2 C 73 % 1012,7 hPa 0,0 l/m 3,8 km/h (1 Bft) S-SW 202 1 min 0,000 mm 1,6 UV-I 668 W/m 13,3 C 18,2 C 8,0 km/h (2 Bft) 100,00 %
25.05.2016 17:24 18,2 C 70 % 1012,7 hPa 0,0 l/m 2,5 km/h (1 Bft) S 171 1 min 0,000 mm 1,6 UV-I 631 W/m 12,6 C 18,2 C 6,4 km/h (2 Bft) 100,00 %
25.05.2016 17:25 18,2 C 72 % 1012,7 hPa 0,0 l/m 4,6 km/h (1 Bft) SW 218 1 min 0,000 mm 1,6 UV-I 580 W/m 13,1 C 18,2 C 8,0 km/h (2 Bft) 100,00 %
25.05.2016 17:26 18,3 C 73 % 1012,7 hPa 0,0 l/m 2,5 km/h (1 Bft) SW 235 1 min 0,000 mm 1,6 UV-I 533 W/m 13,4 C 18,3 C 6,4 km/h (2 Bft) 100,00 %
25.05.2016 17:27 18,3 C 72 % 1012,7 hPa 0,0 l/m 2,1 km/h (1 Bft) SW 236 1 min 0,000 mm 1,5 UV-I 510 W/m 13,2 C 18,3 C 3,2 km/h (1 Bft) 100,00 %
25.05.2016 17:28 18,4 C 73 % 1012,6 hPa 0,0 l/m 1,9 km/h (1 Bft) SW 236 1 min 0,000 mm 1,5 UV-I 493 W/m 13,5 C 18,4 C 3,2 km/h (1 Bft) 100,00 %
25.05.2016 17:29 18,6 C 74 % 1012,6 hPa 0,0 l/m 1,1 km/h (1 Bft) SW 236 1 min 0,000 mm 1,5 UV-I 491 W/m 13,9 C 18,6 C 1,6 km/h (1 Bft) 100,00 %
25.05.2016 17:30 18,7 C 72 % 1012,6 hPa 0,0 l/m 3,0 km/h (1 Bft) S-SW 203 1 min 0,000 mm 1,5 UV-I 485 W/m 13,5 C 18,7 C 4,8 km/h (1 Bft) 91,67 %
25.05.2016 17:31 18,7 C 70 % 1012,6 hPa 0,0 l/m 0,3 km/h (0 Bft) S-SW 203 1 min 0,000 mm 1,5 UV-I 479 W/m 13,1 C 18,7 C 1,6 km/h (1 Bft) 100,00 %
25.05.2016 17:32 18,7 C 73 % 1012,5 hPa 0,0 l/m 1,1 km/h (1 Bft) SO 131 1 min 0,000 mm 1,4 UV-I 494 W/m 13,8 C 18,7 C 3,2 km/h (1 Bft) 100,00 %
25.05.2016 17:33 18,8 C 72 % 1012,6 hPa 0,0 l/m 3,9 km/h (1 Bft) NO 46 1 min 0,000 mm 1,3 UV-I 299 W/m 13,6 C 18,8 C 8,0 km/h (2 Bft) 98,59 %
25.05.2016 17:34 18,7 C 72 % 1012,5 hPa 0,0 l/m 4,1 km/h (1 Bft) N-NO 17 1 min 0,000 mm 1,3 UV-I 326 W/m 13,5 C 18,7 C 8,0 km/h (2 Bft) 100,00 %
25.05.2016 17:35 18,7 C 71 % 1012,6 hPa 0,0 l/m 1,0 km/h (0 Bft) N-NO 17 1 min 0,000 mm 1,2 UV-I 308 W/m 13,3 C 18,7 C 3,2 km/h (1 Bft) 100,00 %
25.05.2016 17:36 18,6 C 74 % 1012,5 hPa 0,0 l/m 2,2 km/h (1 Bft) W-NW 302 1 min 0,000 mm 1,2 UV-I 299 W/m 13,9 C 18,6 C 6,4 km/h (2 Bft) 100,00 %
25.05.2016 17:37 18,6 C 73 % 1012,5 hPa 0,0 l/m 4,3 km/h (1 Bft) W-NW 298 1 min 0,000 mm 1,2 UV-I 280 W/m 13,7 C 18,6 C 6,4 km/h (2 Bft) 100,00 %
25.05.2016 17:38 18,5 C 72 % 1012,5 hPa 0,0 l/m 1,4 km/h (1 Bft) N 350 1 min 0,000 mm 1,1 UV-I 281 W/m 13,4 C 18,5 C 3,2 km/h (1 Bft) 100,00 %
25.05.2016 17:39 18,4 C 73 % 1012,5 hPa 0,0 l/m 1,8 km/h (1 Bft) N-NW 329 1 min 0,000 mm 1,1 UV-I 285 W/m 13,5 C 18,4 C 3,2 km/h (1 Bft) 100,00 %
25.05.2016 17:40 18,4 C 74 % 1012,5 hPa 0,0 l/m 3,4 km/h (1 Bft) N-NW 327 1 min 0,000 mm 1,2 UV-I 318 W/m 13,7 C 18,4 C 4,8 km/h (1 Bft) 100,00 %
25.05.2016 17:41 18,3 C 71 % 1012,4 hPa 0,0 l/m 2,2 km/h (1 Bft) N-NW 330 1 min 0,000 mm 1,2 UV-I 355 W/m 12,9 C 18,3 C 3,2 km/h (1 Bft) 100,00 %
25.05.2016 17:42 18,3 C 74 % 1012,4 hPa 0,0 l/m 2,1 km/h (1 Bft) N-NW 340 1 min 0,000 mm 1,2 UV-I 358 W/m 13,6 C 18,3 C 3,2 km/h (1 Bft) 96,15 %
25.05.2016 17:43 18,3 C 74 % 1012,4 hPa 0,0 l/m 3,4 km/h (1 Bft) N-NO 15 1 min 0,000 mm 1,2 UV-I 404 W/m 13,6 C 18,3 C 4,8 km/h (1 Bft) 100,00 %
25.05.2016 17:44 18,4 C 77 % 1012,4 hPa 0,0 l/m 1,5 km/h (1 Bft) N 11 1 min 0,000 mm 1,2 UV-I 409 W/m 14,3 C 18,4 C 3,2 km/h (1 Bft) 100,00 %
25.05.2016 17:45 18,4 C 72 % 1012,5 hPa 0,0 l/m 0,8 km/h (0 Bft) N 5 1 min 0,000 mm 1,2 UV-I 447 W/m 13,3 C 18,4 C 1,6 km/h (1 Bft) 100,00 %
25.05.2016 17:46 18,5 C 74 % 1012,4 hPa 0,0 l/m 0,1 km/h (0 Bft) N 5 1 min 0,000 mm 1,2 UV-I 492 W/m 13,8 C 18,5 C 1,6 km/h (1 Bft) 100,00 %
25.05.2016 17:47 18,6 C 75 % 1012,4 hPa 0,0 l/m 1,9 km/h (1 Bft) N-NO 14 1 min 0,000 mm 1,2 UV-I 472 W/m 14,1 C 18,6 C 4,8 km/h (1 Bft) 100,00 %
25.05.2016 17:48 18,6 C 76 % 1012,4 hPa 0,0 l/m 2,7 km/h (1 Bft) N-NW 336 1 min 0,000 mm 1,2 UV-I 440 W/m 14,3 C 18,6 C 4,8 km/h (1 Bft) 100,00 %
25.05.2016 17:49 18,7 C 73 % 1012,4 hPa 0,0 l/m 1,7 km/h (1 Bft) N 355 1 min 0,000 mm 1,2 UV-I 422 W/m 13,8 C 18,7 C 3,2 km/h (1 Bft) 100,00 %
25.05.2016 17:50 18,6 C 69 % 1012,4 hPa 0,0 l/m 1,6 km/h (1 Bft) N-NW 334 1 min 0,000 mm 1,1 UV-I 403 W/m 12,8 C 18,6 C 3,2 km/h (1 Bft) 100,00 %
25.05.2016 17:51 18,6 C 71 % 1012,4 hPa 0,0 l/m 1,7 km/h (1 Bft) N-NW 334 1 min 0,000 mm 1,1 UV-I 371 W/m 13,2 C 18,6 C 3,2 km/h (1 Bft) 100,00 %
25.05.2016 17:52 18,5 C 71 % 1012,4 hPa 0,0 l/m 3,3 km/h (1 Bft) NW 304 1 min 0,000 mm 1,1 UV-I 380 W/m 13,1 C 18,5 C 6,4 km/h (2 Bft) 100,00 %
25.05.2016 17:53 18,6 C 71 % 1012,4 hPa 0,0 l/m 4,5 km/h (1 Bft) W 265 1 min 0,000 mm 1,1 UV-I 393 W/m 13,2 C 18,6 C 9,7 km/h (2 Bft) 100,00 %
25.05.2016 17:54 18,6 C 70 % 1012,4 hPa 0,0 l/m 3,1 km/h (1 Bft) NW 313 1 min 0,000 mm 1,1 UV-I 395 W/m 13,0 C 18,6 C 4,8 km/h (1 Bft) 100,00 %
25.05.2016 17:55 18,6 C 70 % 1012,4 hPa 0,0 l/m 2,5 km/h (1 Bft) W-NW 298 1 min 0,000 mm 1,1 UV-I 372 W/m 13,0 C 18,6 C 4,8 km/h (1 Bft) 100,00 %
25.05.2016 17:56 18,5 C 70 % 1012,4 hPa 0,0 l/m 2,2 km/h (1 Bft) W-NW 298 1 min 0,000 mm 1,0 UV-I 352 W/m 12,9 C 18,5 C 4,8 km/h (1 Bft) 100,00 %
25.05.2016 17:57 18,5 C 72 % 1012,4 hPa 0,0 l/m 2,6 km/h (1 Bft) W-NW 302 1 min 0,000 mm 1,0 UV-I 360 W/m 13,4 C 18,5 C 4,8 km/h (1 Bft) 100,00 %
25.05.2016 17:58 18,5 C 70 % 1012,4 hPa 0,0 l/m 3,1 km/h (1 Bft) NW 313 1 min 0,000 mm 1,0 UV-I 366 W/m 12,9 C 18,5 C 4,8 km/h (1 Bft) 100,00 %
25.05.2016 17:59 18,4 C 69 % 1012,4 hPa 0,0 l/m 0,9 km/h (0 Bft) N-NW 342 1 min 0,000 mm 1,0 UV-I 365 W/m 12,6 C 18,4 C 3,2 km/h (1 Bft) 100,00 %
25.05.2016 18:00 18,4 C 71 % 1012,4 hPa 0,0 l/m 2,3 km/h (1 Bft) N-NW 341 1 min 0,000 mm 1,0 UV-I 370 W/m 13,0 C 18,4 C 3,2 km/h (1 Bft) 96,15 %
25.05.2016 18:02 18,5 C 70 % 1012,4 hPa 0,0 l/m 1,9 km/h (1 Bft) N-NO 13 2 min 0,229 mm 0,9 UV-I 370 W/m 12,9 C 18,5 C 4,8 km/h (1 Bft) 100,00 %
25.05.2016 18:03 18,4 C 70 % 1012,4 hPa 0,0 l/m 2,1 km/h (1 Bft) N-NO 13 1 min 0,000 mm 0,8 UV-I 353 W/m 12,8 C 18,4 C 3,2 km/h (1 Bft) 96,55 %
25.05.2016 18:04 18,4 C 73 % 1012,4 hPa 0,0 l/m 0,2 km/h (0 Bft) N-NO 13 0 min 0,000 mm 0,8 UV-I 102 W/m 13,5 C 18,4 C 1,6 km/h (1 Bft) 100,00 %
25.05.2016 18:05 18,3 C 72 % 1012,4 hPa 0,0 l/m 0,1 km/h (0 Bft) N-NO 13 0 min 0,000 mm 0,8 UV-I 105 W/m 13,2 C 18,3 C 1,6 km/h (1 Bft) 100,00 %
25.05.2016 18:06 18,3 C 72 % 1012,4 hPa 0,0 l/m 0,5 km/h (0 Bft) N-NW 346 0 min 0,000 mm 0,8 UV-I 124 W/m 13,2 C 18,3 C 3,2 km/h (1 Bft) 100,00 %
25.05.2016 18:07 18,2 C 72 % 1012,4 hPa 0,0 l/m 4,0 km/h (1 Bft) W-NW 301 0 min 0,000 mm 0,8 UV-I 147 W/m 13,1 C 18,2 C 6,4 km/h (2 Bft) 100,00 %
25.05.2016 18:08 18,2 C 72 % 1012,4 hPa 0,0 l/m 3,6 km/h (1 Bft) W 267 0 min 0,000 mm 0,8 UV-I 151 W/m 13,1 C 18,2 C 6,4 km/h (2 Bft) 100,00 %
25.05.2016 18:09 18,2 C 72 % 1012,4 hPa 0,0 l/m 2,3 km/h (1 Bft) W 269 1 min 0,000 mm 0,8 UV-I 325 W/m 13,1 C 18,2 C 4,8 km/h (1 Bft) 95,65 %
25.05.2016 18:10 18,2 C 71 % 1012,4 hPa 0,0 l/m 0,5 km/h (0 Bft) W 269 1 min 0,000 mm 0,8 UV-I 301 W/m 12,9 C 18,2 C 1,6 km/h (1 Bft) 100,00 %
25.05.2016 18:11 18,2 C 72 % 1012,4 hPa 0,0 l/m 2,8 km/h (1 Bft) W 269 1 min 0,000 mm 0,7 UV-I 248 W/m 13,1 C 18,2 C 3,2 km/h (1 Bft) 100,00 %
25.05.2016 18:12 18,2 C 72 % 1012,5 hPa 0,0 l/m 1,9 km/h (1 Bft) W 269 0 min 0,000 mm 0,7 UV-I 132 W/m 13,1 C 18,2 C 3,2 km/h (1 Bft) 100,00 %
25.05.2016 18:13 18,2 C 72 % 1012,4 hPa 0,0 l/m 1,1 km/h (1 Bft) W 269 1 min 0,000 mm 0,8 UV-I 274 W/m 13,1 C 18,2 C 3,2 km/h (1 Bft) 100,00 %
25.05.2016 18:14 18,2 C 72 % 1012,5 hPa 0,0 l/m 1,0 km/h (0 Bft) W 269 1 min 0,000 mm 0,8 UV-I 340 W/m 13,1 C 18,2 C 1,6 km/h (1 Bft) 100,00 %
25.05.2016 18:15 18,2 C 73 % 1012,4 hPa 0,0 l/m 1,6 km/h (1 Bft) W 269 1 min 0,000 mm 0,7 UV-I 321 W/m 13,3 C 18,2 C 4,8 km/h (1 Bft) 100,00 %
25.05.2016 18:16 18,3 C 73 % 1012,5 hPa 0,0 l/m 3,2 km/h (1 Bft) N-NW 328 1 min 0,000 mm 0,7 UV-I 303 W/m 13,4 C 18,3 C 4,8 km/h (1 Bft) 100,00 %
25.05.2016 18:17 18,4 C 73 % 1012,4 hPa 0,0 l/m 1,1 km/h (1 Bft) NW 324 1 min 0,000 mm 0,7 UV-I 322 W/m 13,5 C 18,4 C 3,2 km/h (1 Bft) 100,00 %
25.05.2016 18:18 18,4 C 73 % 1012,5 hPa 0,0 l/m 2,6 km/h (1 Bft) NW 322 1 min 0,000 mm 0,7 UV-I 324 W/m 13,5 C 18,4 C 4,8 km/h (1 Bft) 100,00 %
25.05.2016 18:19 18,4 C 72 % 1012,5 hPa 0,0 l/m 0,8 km/h (0 Bft) NW 312 1 min 0,000 mm 0,7 UV-I 321 W/m 13,3 C 18,4 C 3,2 km/h (1 Bft) 100,00 %
25.05.2016 18:20 18,4 C 71 % 1012,5 hPa 0,0 l/m 1,2 km/h (1 Bft) NW 312 1 min 0,000 mm 0,6 UV-I 286 W/m 13,0 C 18,4 C 3,2 km/h (1 Bft) 100,00 %
25.05.2016 18:21 18,4 C 72 % 1012,5 hPa 0,0 l/m 0,2 km/h (0 Bft) NW 312 1 min 0,000 mm 0,6 UV-I 276 W/m 13,3 C 18,4 C 1,6 km/h (1 Bft) 100,00 %
25.05.2016 18:22 18,4 C 71 % 1012,5 hPa 0,0 l/m 1,4 km/h (1 Bft) NW 313 0 min 0,000 mm 0,6 UV-I 102 W/m 13,0 C 18,4 C 3,2 km/h (1 Bft) 100,00 %
25.05.2016 18:23 18,3 C 72 % 1012,6 hPa 0,0 l/m 0,5 km/h (0 Bft) NW 313 0 min 0,000 mm 0,6 UV-I 100 W/m 13,2 C 18,3 C 1,6 km/h (1 Bft) 100,00 %
25.05.2016 18:24 18,3 C 72 % 1012,6 hPa 0,0 l/m 1,1 km/h (1 Bft) NW 313 0 min 0,000 mm 0,6 UV-I 101 W/m 13,2 C 18,3 C 3,2 km/h (1 Bft) 100,00 %
25.05.2016 18:25 18,2 C 72 % 1012,6 hPa 0,0 l/m 1,1 km/h (1 Bft) NW 313 0 min 0,000 mm 0,5 UV-I 104 W/m 13,1 C 18,2 C 3,2 km/h (1 Bft) 100,00 %
25.05.2016 18:26 18,2 C 73 % 1012,6 hPa 0,0 l/m 0,8 km/h (0 Bft) NW 313 0 min 0,000 mm 0,5 UV-I 108 W/m 13,3 C 18,2 C 3,2 km/h (1 Bft) 100,00 %
25.05.2016 18:27 18,1 C 74 % 1012,6 hPa 0,0 l/m 0,6 km/h (0 Bft) NW 313 0 min 0,000 mm 0,5 UV-I 115 W/m 13,4 C 18,1 C 1,6 km/h (1 Bft) 95,83 %
25.05.2016 18:28 18,1 C 74 % 1012,6 hPa 0,0 l/m 1,1 km/h (1 Bft) NW 313 0 min 0,000 mm 0,4 UV-I 122 W/m 13,4 C 18,1 C 1,6 km/h (1 Bft) 96,15 %
25.05.2016 18:29 18,0 C 75 % 1012,6 hPa 0,0 l/m 2,1 km/h (1 Bft) NW 313 0 min 0,000 mm 0,0 UV-I 130 W/m 13,5 C 18,0 C 3,2 km/h (1 Bft) 100,00 %
25.05.2016 18:30 17,9 C 75 % 1012,6 hPa 0,0 l/m 2,9 km/h (1 Bft) NW 306 0 min 0,000 mm 0,0 UV-I 140 W/m 13,4 C 17,9 C 4,8 km/h (1 Bft) 96,15 %
25.05.2016 18:31 17,9 C 74 % 1012,6 hPa 0,0 l/m 1,5 km/h (1 Bft) NW 306 0 min 0,000 mm 0,0 UV-I 144 W/m 13,2 C 17,9 C 1,6 km/h (1 Bft) 96,30 %
25.05.2016 18:32 18,0 C 75 % 1012,7 hPa 0,0 l/m 1,7 km/h (1 Bft) NW 306 1 min 0,000 mm 0,0 UV-I 286 W/m 13,5 C 18,0 C 3,2 km/h (1 Bft) 100,00 %
25.05.2016 18:33 18,1 C 75 % 1012,6 hPa 0,0 l/m 1,3 km/h (1 Bft) NW 306 1 min 0,000 mm 0,0 UV-I 295 W/m 13,6 C 18,1 C 3,2 km/h (1 Bft) 91,67 %
25.05.2016 18:34 18,1 C 73 % 1012,7 hPa 0,0 l/m 0,7 km/h (0 Bft) NW 306 1 min 0,000 mm 0,0 UV-I 216 W/m 13,2 C 18,1 C 1,6 km/h (1 Bft) 98,63 %
25.05.2016 18:35 18,1 C 74 % 1012,6 hPa 0,0 l/m 1,2 km/h (1 Bft) NW 306 1 min 0,000 mm 0,0 UV-I 197 W/m 13,4 C 18,1 C 3,2 km/h (1 Bft) 97,56 %
25.05.2016 18:36 18,2 C 73 % 1012,6 hPa 0,0 l/m 1,7 km/h (1 Bft) NW 306 1 min 0,000 mm 0,0 UV-I 195 W/m 13,3 C 18,2 C 3,2 km/h (1 Bft) 95,83 %
25.05.2016 18:37 18,2 C 74 % 1012,6 hPa 0,0 l/m 0,9 km/h (0 Bft) NW 306 1 min 0,000 mm 0,0 UV-I 219 W/m 13,5 C 18,2 C 3,2 km/h (1 Bft) 95,65 %
25.05.2016 18:38 18,3 C 74 % 1012,6 hPa 0,0 l/m 1,1 km/h (1 Bft) NW 306 1 min 0,000 mm 0,0 UV-I 194 W/m 13,6 C 18,3 C 3,2 km/h (1 Bft) 100,00 %
25.05.2016 18:39 18,3 C 73 % 1012,6 hPa 0,0 l/m 3,2 km/h (1 Bft) W-NW 286 1 min 0,000 mm 0,0 UV-I 186 W/m 13,4 C 18,3 C 4,8 km/h (1 Bft) 97,37 %
25.05.2016 18:40 18,3 C 72 % 1012,6 hPa 0,0 l/m 3,4 km/h (1 Bft) W 271 1 min 0,000 mm 0,0 UV-I 191 W/m 13,2 C 18,3 C 6,4 km/h (2 Bft) 100,00 %
25.05.2016 18:41 18,3 C 72 % 1012,6 hPa 0,0 l/m 2,0 km/h (1 Bft) W 271 1 min 0,000 mm 0,0 UV-I 187 W/m 13,2 C 18,3 C 4,8 km/h (1 Bft) 97,37 %
25.05.2016 18:42 18,3 C 72 % 1012,6 hPa 0,0 l/m 2,4 km/h (1 Bft) W 271 0 min 0,000 mm 0,0 UV-I 165 W/m 13,2 C 18,3 C 3,2 km/h (1 Bft) 91,67 %
25.05.2016 18:43 18,3 C 72 % 1012,6 hPa 0,0 l/m 0,6 km/h (0 Bft) W 271 0 min 0,000 mm 0,0 UV-I 150 W/m 13,2 C 18,3 C 1,6 km/h (1 Bft) 100,00 %
25.05.2016 18:44 18,3 C 73 % 1012,7 hPa 0,0 l/m 1,6 km/h (1 Bft) W-SW 241 0 min 0,000 mm 0,0 UV-I 140 W/m 13,4 C 18,3 C 4,8 km/h (1 Bft) 96,30 %
25.05.2016 18:45 18,3 C 72 % 1012,6 hPa 0,0 l/m 2,8 km/h (1 Bft) W-SW 258 0 min 0,000 mm 0,0 UV-I 160 W/m 13,2 C 18,3 C 4,8 km/h (1 Bft) 98,62 %
25.05.2016 18:46 18,2 C 74 % 1012,7 hPa 0,0 l/m 2,4 km/h (1 Bft) W-NW 294 0 min 0,000 mm 0,0 UV-I 154 W/m 13,5 C 18,2 C 6,4 km/h (2 Bft) 97,56 %
25.05.2016 18:47 18,2 C 73 % 1012,7 hPa 0,0 l/m 2,7 km/h (1 Bft) W-NW 284 0 min 0,000 mm 0,0 UV-I 145 W/m 13,3 C 18,2 C 4,8 km/h (1 Bft) 96,55 %
25.05.2016 18:48 18,2 C 73 % 1012,7 hPa 0,0 l/m 1,8 km/h (1 Bft) W-NW 291 0 min 0,000 mm 0,0 UV-I 140 W/m 13,3 C 18,2 C 3,2 km/h (1 Bft) 100,00 %
25.05.2016 18:49 18,2 C 74 % 1012,7 hPa 0,0 l/m 2,0 km/h (1 Bft) W-NW 292 0 min 0,000 mm 0,0 UV-I 137 W/m 13,5 C 18,2 C 3,2 km/h (1 Bft) 95,65 %
25.05.2016 18:50 18,1 C 74 % 1012,7 hPa 0,0 l/m 1,1 km/h (1 Bft) W-NW 292 0 min 0,000 mm 0,0 UV-I 135 W/m 13,4 C 18,1 C 3,2 km/h (1 Bft) 100,00 %
25.05.2016 18:51 18,1 C 73 % 1012,7 hPa 0,0 l/m 0,4 km/h (0 Bft) W-NW 292 0 min 0,000 mm 0,0 UV-I 133 W/m 13,2 C 18,1 C 1,6 km/h (1 Bft) 91,67 %
25.05.2016 18:52 18,1 C 74 % 1012,7 hPa 0,0 l/m 2,2 km/h (1 Bft) W-NW 290 0 min 0,000 mm 0,0 UV-I 137 W/m 13,4 C 18,1 C 3,2 km/h (1 Bft) 100,00 %
25.05.2016 18:53 18,1 C 73 % 1012,7 hPa 0,0 l/m 1,5 km/h (1 Bft) W-NW 290 1 min 0,000 mm 0,0 UV-I 159 W/m 13,2 C 18,1 C 3,2 km/h (1 Bft) 96,15 %
25.05.2016 18:54 18,1 C 73 % 1012,7 hPa 0,0 l/m 0,1 km/h (0 Bft) W-NW 290 0 min 0,000 mm 0,0 UV-I 142 W/m 13,2 C 18,1 C 1,6 km/h (1 Bft) 100,00 %
25.05.2016 18:55 18,1 C 74 % 1012,7 hPa 0,0 l/m 0,1 km/h (0 Bft) W-NW 290 1 min 0,000 mm 0,0 UV-I 174 W/m 13,4 C 18,1 C 1,6 km/h (1 Bft) 91,30 %
25.05.2016 18:56 18,1 C 75 % 1012,7 hPa 0,0 l/m 0,0 km/h (0 Bft) W-NW 290 1 min 0,000 mm 0,0 UV-I 233 W/m 13,6 C 18,1 C 0,0 km/h (0 Bft) 95,83 %
25.05.2016 18:57 18,2 C 76 % 1012,7 hPa 0,0 l/m 0,2 km/h (0 Bft) W-NW 290 1 min 0,000 mm 0,0 UV-I 247 W/m 13,9 C 18,2 C 1,6 km/h (1 Bft) 100,00 %
25.05.2016 18:58 18,2 C 75 % 1012,8 hPa 0,0 l/m 1,5 km/h (1 Bft) N-NW 346 1 min 0,000 mm 0,0 UV-I 257 W/m 13,7 C 18,2 C 4,8 km/h (1 Bft) 96,15 %
25.05.2016 18:59 18,3 C 74 % 1012,8 hPa 0,0 l/m 1,0 km/h (0 Bft) N-NW 346 1 min 0,000 mm 0,0 UV-I 268 W/m 13,6 C 18,3 C 1,6 km/h (1 Bft) 95,83 %
25.05.2016 19:00 18,3 C 74 % 1012,7 hPa 0,0 l/m 1,7 km/h (1 Bft) W-NW 298 1 min 0,000 mm 0,0 UV-I 270 W/m 13,6 C 18,3 C 3,2 km/h (1 Bft) 95,65 %
25.05.2016 19:02 18,4 C 74 % 1012,7 hPa 0,0 l/m 3,5 km/h (1 Bft) W-SW 258 2 min 0,127 mm 0,0 UV-I 260 W/m 13,7 C 18,4 C 6,4 km/h (2 Bft) 96,23 %
25.05.2016 19:03 18,4 C 73 % 1012,7 hPa 0,0 l/m 1,4 km/h (1 Bft) W-SW 258 1 min 0,000 mm 0,0 UV-I 244 W/m 13,5 C 18,4 C 3,2 km/h (1 Bft) 96,30 %
25.05.2016 19:04 18,5 C 75 % 1012,7 hPa 0,0 l/m 2,7 km/h (1 Bft) W-SW 258 1 min 0,000 mm 0,0 UV-I 217 W/m 14,0 C 18,5 C 4,8 km/h (1 Bft) 100,00 %
25.05.2016 19:05 18,5 C 72 % 1012,7 hPa 0,0 l/m 2,2 km/h (1 Bft) W 268 1 min 0,000 mm 0,0 UV-I 152 W/m 13,4 C 18,5 C 4,8 km/h (1 Bft) 95,83 %
25.05.2016 19:06 18,5 C 72 % 1012,7 hPa 0,0 l/m 0,7 km/h (0 Bft) W 268 0 min 0,000 mm 0,0 UV-I 116 W/m 13,4 C 18,5 C 1,6 km/h (1 Bft) 100,00 %
25.05.2016 19:07 18,5 C 73 % 1012,7 hPa 0,0 l/m 1,5 km/h (1 Bft) W 270 0 min 0,000 mm 0,0 UV-I 90 W/m 13,6 C 18,5 C 3,2 km/h (1 Bft) 100,00 %
25.05.2016 19:08 18,4 C 73 % 1012,7 hPa 0,0 l/m 3,9 km/h (1 Bft) W-SW 250 0 min 0,000 mm 0,0 UV-I 97 W/m 13,5 C 18,4 C 6,4 km/h (2 Bft) 100,00 %
25.05.2016 19:09 18,4 C 74 % 1012,7 hPa 0,0 l/m 1,1 km/h (1 Bft) W-SW 250 0 min 0,000 mm 0,0 UV-I 92 W/m 13,7 C 18,4 C 3,2 km/h (1 Bft) 95,83 %
25.05.2016 19:10 18,3 C 73 % 1012,7 hPa 0,0 l/m 1,6 km/h (1 Bft) W-SW 250 0 min 0,000 mm 0,0 UV-I 87 W/m 13,4 C 18,3 C 3,2 km/h (1 Bft) 100,00 %
25.05.2016 19:11 18,3 C 73 % 1012,7 hPa 0,0 l/m 1,9 km/h (1 Bft) W-SW 256 0 min 0,000 mm 0,0 UV-I 84 W/m 13,4 C 18,3 C 3,2 km/h (1 Bft) 100,00 %
25.05.2016 19:12 18,2 C 72 % 1012,7 hPa 0,0 l/m 1,6 km/h (1 Bft) W-SW 256 0 min 0,000 mm 0,0 UV-I 80 W/m 13,1 C 18,2 C 3,2 km/h (1 Bft) 100,00 %
25.05.2016 19:13 18,1 C 73 % 1012,7 hPa 0,0 l/m 1,5 km/h (1 Bft) W-SW 256 0 min 0,000 mm 0,0 UV-I 77 W/m 13,2 C 18,1 C 3,2 km/h (1 Bft) 100,00 %
25.05.2016 19:14 18,1 C 74 % 1012,7 hPa 0,0 l/m 1,7 km/h (1 Bft) W-SW 256 0 min 0,000 mm 0,0 UV-I 76 W/m 13,4 C 18,1 C 3,2 km/h (1 Bft) 100,00 %
25.05.2016 19:15 17,9 C 75 % 1012,7 hPa 0,0 l/m 1,9 km/h (1 Bft) W-SW 257 0 min 0,000 mm 0,0 UV-I 75 W/m 13,4 C 17,9 C 3,2 km/h (1 Bft) 100,00 %
25.05.2016 19:16 17,9 C 74 % 1012,7 hPa 0,0 l/m 1,0 km/h (0 Bft) W-SW 257 0 min 0,000 mm 0,0 UV-I 73 W/m 13,2 C 17,9 C 3,2 km/h (1 Bft) 100,00 %
25.05.2016 19:17 17,8 C 75 % 1012,8 hPa 0,0 l/m 0,2 km/h (0 Bft) W-SW 257 0 min 0,000 mm 0,0 UV-I 72 W/m 13,3 C 17,8 C 1,6 km/h (1 Bft) 100,00 %
25.05.2016 19:18 17,8 C 75 % 1012,7 hPa 0,0 l/m 0,2 km/h (0 Bft) W-SW 257 0 min 0,000 mm 0,0 UV-I 72 W/m 13,3 C 17,8 C 1,6 km/h (1 Bft) 100,00 %
25.05.2016 19:19 17,8 C 74 % 1012,7 hPa 0,0 l/m 0,4 km/h (0 Bft) W-SW 257 0 min 0,000 mm 0,0 UV-I 108 W/m 13,1 C 17,8 C 1,6 km/h (1 Bft) 100,00 %
25.05.2016 19:20 17,8 C 75 % 1012,7 hPa 0,0 l/m 0,1 km/h (0 Bft) W-SW 257 1 min 0,000 mm 0,0 UV-I 142 W/m 13,3 C 17,8 C 1,6 km/h (1 Bft) 100,00 %
25.05.2016 19:21 17,8 C 75 % 1012,7 hPa 0,0 l/m 0,0 km/h (0 Bft) W-SW 257 1 min 0,000 mm 0,0 UV-I 143 W/m 13,3 C 17,8 C 0,0 km/h (0 Bft) 100,00 %
25.05.2016 19:22 17,7 C 76 % 1012,7 hPa 0,0 l/m 0,0 km/h (0 Bft) W-SW 257 1 min 0,000 mm 0,0 UV-I 140 W/m 13,4 C 17,7 C 0,0 km/h (0 Bft) 100,00 %
25.05.2016 19:23 17,7 C 76 % 1012,7 hPa 0,0 l/m 0,0 km/h (0 Bft) W-SW 257 1 min 0,000 mm 0,0 UV-I 137 W/m 13,4 C 17,7 C 0,0 km/h (0 Bft) 95,65 %
25.05.2016 19:24 17,8 C 76 % 1012,7 hPa 0,0 l/m 0,1 km/h (0 Bft) W-SW 257 1 min 0,000 mm 0,0 UV-I 133 W/m 13,5 C 17,8 C 1,6 km/h (1 Bft) 100,00 %
25.05.2016 19:25 17,8 C 76 % 1012,7 hPa 0,0 l/m 0,5 km/h (0 Bft) W-SW 257 1 min 0,000 mm 0,0 UV-I 130 W/m 13,5 C 17,8 C 1,6 km/h (1 Bft) 100,00 %
25.05.2016 19:26 17,8 C 77 % 1012,7 hPa 0,0 l/m 0,9 km/h (0 Bft) W-SW 257 1 min 0,000 mm 0,0 UV-I 126 W/m 13,7 C 17,8 C 1,6 km/h (1 Bft) 100,00 %
25.05.2016 19:27 17,8 C 77 % 1012,6 hPa 0,0 l/m 0,2 km/h (0 Bft) W-SW 257 1 min 0,000 mm 0,0 UV-I 121 W/m 13,7 C 17,8 C 1,6 km/h (1 Bft) 100,00 %
25.05.2016 19:28 17,8 C 77 % 1012,6 hPa 0,0 l/m 0,3 km/h (0 Bft) W-SW 257 1 min 0,000 mm 0,0 UV-I 116 W/m 13,7 C 17,8 C 1,6 km/h (1 Bft) 93,33 %
25.05.2016 19:29 17,8 C 76 % 1012,6 hPa 0,0 l/m 0,7 km/h (0 Bft) W-SW 257 1 min 0,000 mm 0,0 UV-I 112 W/m 13,5 C 17,8 C 1,6 km/h (1 Bft) 100,00 %
25.05.2016 19:30 17,8 C 77 % 1012,6 hPa 0,0 l/m 0,2 km/h (0 Bft) W-SW 257 1 min 0,000 mm 0,0 UV-I 109 W/m 13,7 C 17,8 C 1,6 km/h (1 Bft) 100,00 %
25.05.2016 19:31 17,8 C 77 % 1012,6 hPa 0,0 l/m 1,0 km/h (0 Bft) W-SW 257 1 min 0,000 mm 0,0 UV-I 105 W/m 13,7 C 17,8 C 1,6 km/h (1 Bft) 100,00 %
25.05.2016 19:32 17,8 C 76 % 1012,6 hPa 0,0 l/m 0,1 km/h (0 Bft) W-SW 257 1 min 0,000 mm 0,0 UV-I 104 W/m 13,5 C 17,8 C 1,6 km/h (1 Bft) 100,00 %
25.05.2016 19:33 17,9 C 74 % 1012,7 hPa 0,0 l/m 0,1 km/h (0 Bft) W-SW 257 1 min 0,000 mm 0,0 UV-I 101 W/m 13,2 C 17,9 C 1,6 km/h (1 Bft) 100,00 %
25.05.2016 19:34 17,9 C 74 % 1012,7 hPa 0,0 l/m 0,1 km/h (0 Bft) W-SW 257 1 min 0,000 mm 0,0 UV-I 98 W/m 13,2 C 17,9 C 1,6 km/h (1 Bft) 100,00 %
25.05.2016 19:35 17,9 C 74 % 1012,7 hPa 0,0 l/m 0,7 km/h (0 Bft) W-SW 257 0 min 0,000 mm 0,0 UV-I 94 W/m 13,2 C 17,9 C 1,6 km/h (1 Bft) 100,00 %
25.05.2016 19:36 17,9 C 74 % 1012,6 hPa 0,0 l/m 0,2 km/h (0 Bft) W-SW 257 0 min 0,000 mm 0,0 UV-I 92 W/m 13,2 C 17,9 C 1,6 km/h (1 Bft) 100,00 %
25.05.2016 19:37 17,9 C 74 % 1012,7 hPa 0,0 l/m 2,1 km/h (1 Bft) W-SW 257 0 min 0,000 mm 0,0 UV-I 90 W/m 13,2 C 17,9 C 3,2 km/h (1 Bft) 100,00 %
25.05.2016 19:38 17,9 C 73 % 1012,6 hPa 0,0 l/m 1,4 km/h (1 Bft) W-SW 257 0 min 0,000 mm 0,0 UV-I 90 W/m 13,0 C 17,9 C 3,2 km/h (1 Bft) 100,00 %
25.05.2016 19:39 17,9 C 74 % 1012,7 hPa 0,0 l/m 0,1 km/h (0 Bft) W-SW 257 0 min 0,000 mm 0,0 UV-I 87 W/m 13,2 C 17,9 C 1,6 km/h (1 Bft) 100,00 %
25.05.2016 19:40 17,9 C 74 % 1012,7 hPa 0,0 l/m 1,2 km/h (1 Bft) W-SW 257 0 min 0,000 mm 0,0 UV-I 85 W/m 13,2 C 17,9 C 1,6 km/h (1 Bft) 100,00 %
25.05.2016 19:41 17,9 C 73 % 1012,7 hPa 0,0 l/m 1,3 km/h (1 Bft) W-SW 257 0 min 0,000 mm 0,0 UV-I 83 W/m 13,0 C 17,9 C 1,6 km/h (1 Bft) 100,00 %
25.05.2016 19:42 17,9 C 73 % 1012,7 hPa 0,0 l/m 1,2 km/h (1 Bft) W-SW 257 0 min 0,000 mm 0,0 UV-I 83 W/m 13,0 C 17,9 C 1,6 km/h (1 Bft) 90,91 %
25.05.2016 19:43 17,9 C 73 % 1012,7 hPa 0,0 l/m 1,3 km/h (1 Bft) W-SW 257 0 min 0,000 mm 0,0 UV-I 79 W/m 13,0 C 17,9 C 1,6 km/h (1 Bft) 96,67 %
25.05.2016 19:44 17,9 C 73 % 1012,7 hPa 0,0 l/m 0,9 km/h (0 Bft) W-SW 257 0 min 0,000 mm 0,0 UV-I 77 W/m 13,0 C 17,9 C 1,6 km/h (1 Bft) 100,00 %
25.05.2016 19:45 18,0 C 73 % 1012,6 hPa 0,0 l/m 1,5 km/h (1 Bft) W-SW 257 0 min 0,000 mm 0,0 UV-I 74 W/m 13,1 C 18,0 C 3,2 km/h (1 Bft) 100,00 %
25.05.2016 19:46 17,9 C 73 % 1012,6 hPa 0,0 l/m 1,0 km/h (0 Bft) W-SW 257 0 min 0,000 mm 0,0 UV-I 71 W/m 13,0 C 17,9 C 3,2 km/h (1 Bft) 100,00 %
25.05.2016 19:47 17,9 C 72 % 1012,6 hPa 0,0 l/m 0,0 km/h (0 Bft) W-SW 257 0 min 0,000 mm 0,0 UV-I 69 W/m 12,8 C 17,9 C 0,0 km/h (0 Bft) 100,00 %
25.05.2016 19:48 17,9 C 73 % 1012,6 hPa 0,0 l/m 0,6 km/h (0 Bft) W-SW 257 0 min 0,000 mm 0,0 UV-I 69 W/m 13,0 C 17,9 C 1,6 km/h (1 Bft) 100,00 %
25.05.2016 19:49 17,8 C 73 % 1012,7 hPa 0,0 l/m 2,6 km/h (1 Bft) W-SW 257 0 min 0,000 mm 0,0 UV-I 67 W/m 12,9 C 17,8 C 4,8 km/h (1 Bft) 100,00 %
25.05.2016 19:50 17,8 C 72 % 1012,6 hPa 0,0 l/m 1,5 km/h (1 Bft) W-SW 257 0 min 0,000 mm 0,0 UV-I 64 W/m 12,7 C 17,8 C 3,2 km/h (1 Bft) 100,00 %
25.05.2016 19:51 17,8 C 72 % 1012,6 hPa 0,0 l/m 2,6 km/h (1 Bft) W-SW 257 0 min 0,000 mm 0,0 UV-I 63 W/m 12,7 C 17,8 C 3,2 km/h (1 Bft) 96,30 %
25.05.2016 19:52 17,8 C 72 % 1012,6 hPa 0,0 l/m 1,9 km/h (1 Bft) W-SW 257 0 min 0,000 mm 0,0 UV-I 62 W/m 12,7 C 17,8 C 3,2 km/h (1 Bft) 100,00 %
25.05.2016 19:53 17,8 C 72 % 1012,6 hPa 0,0 l/m 1,6 km/h (1 Bft) W-SW 257 0 min 0,000 mm 0,0 UV-I 62 W/m 12,7 C 17,8 C 3,2 km/h (1 Bft) 95,83 %
25.05.2016 19:54 17,8 C 72 % 1012,6 hPa 0,0 l/m 2,1 km/h (1 Bft) W-SW 257 0 min 0,000 mm 0,0 UV-I 60 W/m 12,7 C 17,8 C 3,2 km/h (1 Bft) 95,65 %
25.05.2016 19:55 17,8 C 72 % 1012,6 hPa 0,0 l/m 1,3 km/h (1 Bft) W-SW 257 0 min 0,000 mm 0,0 UV-I 58 W/m 12,7 C 17,8 C 1,6 km/h (1 Bft) 100,00 %
25.05.2016 19:56 17,8 C 73 % 1012,6 hPa 0,0 l/m 1,4 km/h (1 Bft) W-SW 257 0 min 0,000 mm 0,0 UV-I 57 W/m 12,9 C 17,8 C 1,6 km/h (1 Bft) 100,00 %
25.05.2016 19:57 17,7 C 74 % 1012,6 hPa 0,0 l/m 1,4 km/h (1 Bft) W-SW 257 0 min 0,000 mm 0,0 UV-I 55 W/m 13,0 C 17,7 C 3,2 km/h (1 Bft) 100,00 %
25.05.2016 19:58 17,7 C 73 % 1012,6 hPa 0,0 l/m 0,4 km/h (0 Bft) W-SW 257 0 min 0,000 mm 0,0 UV-I 53 W/m 12,8 C 17,7 C 1,6 km/h (1 Bft) 100,00 %
25.05.2016 19:59 17,7 C 74 % 1012,6 hPa 0,0 l/m 0,3 km/h (0 Bft) W-SW 257 0 min 0,000 mm 0,0 UV-I 50 W/m 13,0 C 17,7 C 1,6 km/h (1 Bft) 100,00 %
25.05.2016 20:00 17,7 C 76 % 1012,6 hPa 0,0 l/m 0,1 km/h (0 Bft) W-SW 257 0 min 0,000 mm 0,0 UV-I 47 W/m 13,4 C 17,7 C 1,6 km/h (1 Bft) 100,00 %
25.05.2016 20:02 17,6 C 77 % 1012,6 hPa 0,0 l/m 0,3 km/h (0 Bft) W-SW 257 0 min 0,051 mm 0,0 UV-I 46 W/m 13,5 C 17,6 C 1,6 km/h (1 Bft) 97,87 %
25.05.2016 20:03 17,5 C 78 % 1012,6 hPa 0,0 l/m 0,0 km/h (0 Bft) W-SW 257 0 min 0,000 mm 0,0 UV-I 43 W/m 13,6 C 17,5 C 0,0 km/h (0 Bft) 100,00 %
25.05.2016 20:04 17,4 C 79 % 1012,6 hPa 0,0 l/m 0,0 km/h (0 Bft) W-SW 257 0 min 0,000 mm 0,0 UV-I 40 W/m 13,7 C 17,4 C 0,0 km/h (0 Bft) 100,00 %
25.05.2016 20:05 17,3 C 80 % 1012,6 hPa 0,0 l/m 0,0 km/h (0 Bft) W-SW 257 0 min 0,000 mm 0,0 UV-I 36 W/m 13,8 C 17,3 C 0,0 km/h (0 Bft) 95,65 %
25.05.2016 20:06 17,2 C 80 % 1012,5 hPa 0,0 l/m 0,3 km/h (0 Bft) W-SW 257 0 min 0,000 mm 0,0 UV-I 32 W/m 13,7 C 17,2 C 1,6 km/h (1 Bft) 100,00 %
25.05.2016 20:07 17,2 C 80 % 1012,6 hPa 0,0 l/m 0,8 km/h (0 Bft) W-SW 257 0 min 0,000 mm 0,0 UV-I 32 W/m 13,7 C 17,2 C 1,6 km/h (1 Bft) 100,00 %
25.05.2016 20:08 17,1 C 80 % 1012,6 hPa 0,0 l/m 0,6 km/h (0 Bft) W-SW 257 0 min 0,000 mm 0,0 UV-I 32 W/m 13,6 C 17,1 C 1,6 km/h (1 Bft) 100,00 %
25.05.2016 20:09 16,9 C 80 % 1012,6 hPa 0,0 l/m 1,1 km/h (1 Bft) W-SW 257 0 min 0,000 mm 0,0 UV-I 32 W/m 13,4 C 16,9 C 1,6 km/h (1 Bft) 100,00 %
25.05.2016 20:10 16,8 C 81 % 1012,6 hPa 0,0 l/m 0,7 km/h (0 Bft) W-SW 257 0 min 0,000 mm 0,0 UV-I 31 W/m 13,5 C 16,8 C 1,6 km/h (1 Bft) 100,00 %
25.05.2016 20:11 16,8 C 81 % 1012,6 hPa 0,0 l/m 0,0 km/h (0 Bft) W-SW 257 0 min 0,000 mm 0,0 UV-I 30 W/m 13,5 C 16,8 C 0,0 km/h (0 Bft) 100,00 %
25.05.2016 20:12 16,7 C 82 % 1012,6 hPa 0,0 l/m 0,0 km/h (0 Bft) W-SW 257 0 min 0,000 mm 0,0 UV-I 30 W/m 13,6 C 16,7 C 0,0 km/h (0 Bft) 100,00 %
25.05.2016 20:13 16,6 C 82 % 1012,6 hPa 0,0 l/m 0,0 km/h (0 Bft) W-SW 257 0 min 0,000 mm 0,0 UV-I 27 W/m 13,5 C 16,6 C 0,0 km/h (0 Bft) 98,63 %
25.05.2016 20:14 16,5 C 83 % 1012,6 hPa 0,0 l/m 0,0 km/h (0 Bft) W-SW 257 0 min 0,000 mm 0,0 UV-I 26 W/m 13,6 C 16,5 C 0,0 km/h (0 Bft) 100,00 %
25.05.2016 20:15 16,4 C 82 % 1012,6 hPa 0,0 l/m 0,0 km/h (0 Bft) W-SW 257 0 min 0,000 mm 0,0 UV-I 25 W/m 13,3 C 16,4 C 0,0 km/h (0 Bft) 100,00 %
25.05.2016 20:16 16,3 C 83 % 1012,6 hPa 0,0 l/m 0,0 km/h (0 Bft) W-SW 257 0 min 0,000 mm 0,0 UV-I 24 W/m 13,4 C 16,3 C 0,0 km/h (0 Bft) 96,15 %
25.05.2016 20:17 16,2 C 84 % 1012,7 hPa 0,0 l/m 0,0 km/h (0 Bft) W-SW 257 0 min 0,000 mm 0,0 UV-I 23 W/m 13,5 C 16,2 C 0,0 km/h (0 Bft) 100,00 %
25.05.2016 20:18 16,2 C 83 % 1012,6 hPa 0,0 l/m 0,1 km/h (0 Bft) W-SW 257 0 min 0,000 mm 0,0 UV-I 23 W/m 13,3 C 16,2 C 1,6 km/h (1 Bft) 100,00 %
25.05.2016 20:19 16,1 C 83 % 1012,7 hPa 0,0 l/m 1,7 km/h (1 Bft) W-SW 257 0 min 0,000 mm 0,0 UV-I 21 W/m 13,2 C 16,1 C 3,2 km/h (1 Bft) 100,00 %
25.05.2016 20:20 16,1 C 84 % 1012,6 hPa 0,0 l/m 1,8 km/h (1 Bft) W-SW 257 0 min 0,000 mm 0,0 UV-I 20 W/m 13,4 C 16,1 C 3,2 km/h (1 Bft) 100,00 %
25.05.2016 20:21 16,0 C 85 % 1012,7 hPa 0,0 l/m 2,5 km/h (1 Bft) W-SW 257 0 min 0,000 mm 0,0 UV-I 19 W/m 13,5 C 16,0 C 3,2 km/h (1 Bft) 100,00 %
25.05.2016 20:22 15,9 C 86 % 1012,6 hPa 0,0 l/m 2,3 km/h (1 Bft) W-SW 257 0 min 0,000 mm 0,0 UV-I 19 W/m 13,6 C 15,9 C 3,2 km/h (1 Bft) 100,00 %
25.05.2016 20:23 15,8 C 87 % 1012,6 hPa 0,0 l/m 2,3 km/h (1 Bft) W-SW 257 0 min 0,000 mm 0,0 UV-I 19 W/m 13,6 C 15,8 C 3,2 km/h (1 Bft) 100,00 %
25.05.2016 20:24 15,7 C 87 % 1012,6 hPa 0,0 l/m 2,2 km/h (1 Bft) W-SW 257 0 min 0,000 mm 0,0 UV-I 18 W/m 13,5 C 15,7 C 3,2 km/h (1 Bft) 100,00 %
25.05.2016 20:25 15,6 C 87 % 1012,6 hPa 0,0 l/m 1,8 km/h (1 Bft) W-SW 257 0 min 0,000 mm 0,0 UV-I 17 W/m 13,4 C 15,6 C 3,2 km/h (1 Bft) 100,00 %
25.05.2016 20:26 15,5 C 87 % 1012,7 hPa 0,0 l/m 1,2 km/h (1 Bft) W-SW 257 0 min 0,000 mm 0,0 UV-I 16 W/m 13,3 C 15,5 C 1,6 km/h (1 Bft) 100,00 %
25.05.2016 20:27 15,4 C 88 % 1012,7 hPa 0,0 l/m 0,9 km/h (0 Bft) W-SW 257 0 min 0,000 mm 0,0 UV-I 15 W/m 13,4 C 15,4 C 1,6 km/h (1 Bft) 100,00 %
25.05.2016 20:28 15,4 C 88 % 1012,7 hPa 0,0 l/m 0,0 km/h (0 Bft) W-SW 257 0 min 0,000 mm 0,0 UV-I 14 W/m 13,4 C 15,4 C 0,0 km/h (0 Bft) 100,00 %
25.05.2016 20:29 15,3 C 88 % 1012,8 hPa 0,0 l/m 0,0 km/h (0 Bft) W-SW 257 0 min 0,000 mm 0,0 UV-I 12 W/m 13,3 C 15,3 C 0,0 km/h (0 Bft) 100,00 %
25.05.2016 20:30 15,3 C 89 % 1012,7 hPa 0,0 l/m 0,0 km/h (0 Bft) W-SW 257 0 min 0,000 mm 0,0 UV-I 12 W/m 13,5 C 15,3 C 0,0 km/h (0 Bft) 96,15 %
25.05.2016 20:31 15,3 C 89 % 1012,8 hPa 0,0 l/m 0,0 km/h (0 Bft) W-SW 257 0 min 0,000 mm 0,0 UV-I 12 W/m 13,5 C 15,3 C 0,0 km/h (0 Bft) 100,00 %
25.05.2016 20:32 15,3 C 89 % 1012,8 hPa 0,0 l/m 0,0 km/h (0 Bft) W-SW 257 0 min 0,000 mm 0,0 UV-I 12 W/m 13,5 C 15,3 C 0,0 km/h (0 Bft) 100,00 %
25.05.2016 20:33 15,3 C 90 % 1012,8 hPa 0,0 l/m 0,0 km/h (0 Bft) W-SW 257 0 min 0,000 mm 0,0 UV-I 11 W/m 13,7 C 15,3 C 0,0 km/h (0 Bft) 95,83 %
25.05.2016 20:34 15,3 C 89 % 1012,8 hPa 0,0 l/m 0,0 km/h (0 Bft) W-SW 257 0 min 0,000 mm 0,0 UV-I 11 W/m 13,5 C 15,3 C 0,0 km/h (0 Bft) 100,00 %
25.05.2016 20:35 15,3 C 89 % 1012,8 hPa 0,0 l/m 0,0 km/h (0 Bft) W-SW 257 1 min 0,000 mm 0,0 UV-I 11 W/m 13,5 C 15,3 C 0,0 km/h (0 Bft) 95,83 %
25.05.2016 20:36 15,3 C 89 % 1012,8 hPa 0,0 l/m 0,0 km/h (0 Bft) W-SW 257 1 min 0,000 mm 0,0 UV-I 11 W/m 13,5 C 15,3 C 0,0 km/h (0 Bft) 100,00 %
25.05.2016 20:37 15,3 C 89 % 1012,8 hPa 0,0 l/m 0,5 km/h (0 Bft) W-SW 257 0 min 0,000 mm 0,0 UV-I 9 W/m 13,5 C 15,3 C 1,6 km/h (1 Bft) 96,55 %
25.05.2016 20:38 15,3 C 89 % 1012,8 hPa 0,0 l/m 1,3 km/h (1 Bft) W-SW 257 0 min 0,000 mm 0,0 UV-I 8 W/m 13,5 C 15,3 C 3,2 km/h (1 Bft) 100,00 %
25.05.2016 20:39 15,4 C 89 % 1012,8 hPa 0,0 l/m 1,4 km/h (1 Bft) W-SW 257 0 min 0,000 mm 0,0 UV-I 7 W/m 13,6 C 15,4 C 3,2 km/h (1 Bft) 96,15 %
25.05.2016 20:40 15,4 C 89 % 1012,9 hPa 0,0 l/m 1,9 km/h (1 Bft) W-SW 257 0 min 0,000 mm 0,0 UV-I 7 W/m 13,6 C 15,4 C 3,2 km/h (1 Bft) 100,00 %
25.05.2016 20:41 15,4 C 89 % 1012,8 hPa 0,0 l/m 2,7 km/h (1 Bft) W-SW 257 0 min 0,000 mm 0,0 UV-I 7 W/m 13,6 C 15,4 C 3,2 km/h (1 Bft) 93,10 %
25.05.2016 20:42 15,3 C 89 % 1012,8 hPa 0,0 l/m 2,7 km/h (1 Bft) W-SW 257 0 min 0,000 mm 0,0 UV-I 7 W/m 13,5 C 15,3 C 3,2 km/h (1 Bft) 96,67 %
25.05.2016 20:43 15,3 C 89 % 1012,9 hPa 0,0 l/m 2,2 km/h (1 Bft) W-SW 257 0 min 0,000 mm 0,0 UV-I 5 W/m 13,5 C 15,3 C 3,2 km/h (1 Bft) 100,00 %
25.05.2016 20:44 15,3 C 89 % 1012,9 hPa 0,0 l/m 2,0 km/h (1 Bft) W-SW 257 0 min 0,000 mm 0,0 UV-I 5 W/m 13,5 C 15,3 C 3,2 km/h (1 Bft) 92,59 %
25.05.2016 20:45 15,3 C 89 % 1012,9 hPa 0,0 l/m 2,8 km/h (1 Bft) W-SW 257 0 min 0,000 mm 0,0 UV-I 5 W/m 13,5 C 15,3 C 3,2 km/h (1 Bft) 100,00 %
25.05.2016 20:46 15,3 C 89 % 1012,9 hPa 0,0 l/m 2,3 km/h (1 Bft) W-SW 257 0 min 0,000 mm 0,0 UV-I 5 W/m 13,5 C 15,3 C 3,2 km/h (1 Bft) 95,83 %
25.05.2016 20:47 15,3 C 89 % 1012,9 hPa 0,0 l/m 1,3 km/h (1 Bft) W-SW 257 0 min 0,000 mm 0,0 UV-I 5 W/m 13,5 C 15,3 C 3,2 km/h (1 Bft) 95,65 %
25.05.2016 20:48 15,2 C 89 % 1012,9 hPa 0,0 l/m 1,4 km/h (1 Bft) W-SW 257 0 min 0,000 mm 0,0 UV-I 4 W/m 13,4 C 15,2 C 1,6 km/h (1 Bft) 100,00 %
25.05.2016 20:49 15,2 C 89 % 1012,9 hPa 0,0 l/m 0,4 km/h (0 Bft) W-SW 257 0 min 0,000 mm 0,0 UV-I 0 W/m 13,4 C 15,2 C 1,6 km/h (1 Bft) 95,65 %
25.05.2016 20:50 15,2 C 89 % 1012,9 hPa 0,0 l/m 0,8 km/h (0 Bft) W-SW 257 0 min 0,000 mm 0,0 UV-I 0 W/m 13,4 C 15,2 C 1,6 km/h (1 Bft) 100,00 %
25.05.2016 20:51 15,1 C 89 % 1012,9 hPa 0,0 l/m 0,4 km/h (0 Bft) W-SW 257 0 min 0,000 mm 0,0 UV-I 0 W/m 13,3 C 15,1 C 1,6 km/h (1 Bft) 98,62 %
25.05.2016 20:52 15,1 C 89 % 1013,0 hPa 0,0 l/m 1,5 km/h (1 Bft) W-SW 257 0 min 0,000 mm 0,0 UV-I 0 W/m 13,3 C 15,1 C 3,2 km/h (1 Bft) 97,37 %
25.05.2016 20:53 15,0 C 89 % 1013,0 hPa 0,0 l/m 2,2 km/h (1 Bft) W-SW 257 0 min 0,000 mm 0,0 UV-I 0 W/m 13,2 C 15,0 C 3,2 km/h (1 Bft) 91,67 %
25.05.2016 20:54 14,9 C 89 % 1013,0 hPa 0,0 l/m 1,9 km/h (1 Bft) W-SW 257 0 min 0,000 mm 0,0 UV-I 0 W/m 13,1 C 14,9 C 3,2 km/h (1 Bft) 100,00 %
25.05.2016 20:55 14,8 C 89 % 1013,0 hPa 0,0 l/m 2,9 km/h (1 Bft) W-SW 257 0 min 0,000 mm 0,0 UV-I 0 W/m 13,0 C 14,8 C 3,2 km/h (1 Bft) 96,30 %
25.05.2016 20:56 14,8 C 89 % 1013,0 hPa 0,0 l/m 2,1 km/h (1 Bft) W-SW 257 0 min 0,000 mm 0,0 UV-I 0 W/m 13,0 C 14,8 C 3,2 km/h (1 Bft) 96,15 %
25.05.2016 20:57 14,8 C 89 % 1013,0 hPa 0,0 l/m 2,0 km/h (1 Bft) W-SW 257 0 min 0,000 mm 0,0 UV-I 0 W/m 13,0 C 14,8 C 3,2 km/h (1 Bft) 100,00 %
25.05.2016 20:58 14,7 C 89 % 1013,0 hPa 0,0 l/m 1,7 km/h (1 Bft) W-SW 257 0 min 0,000 mm 0,0 UV-I 0 W/m 12,9 C 14,7 C 3,2 km/h (1 Bft) 96,15 %
25.05.2016 20:59 14,7 C 89 % 1013,0 hPa 0,0 l/m 1,9 km/h (1 Bft) W-SW 257 0 min 0,000 mm 0,0 UV-I 0 W/m 12,9 C 14,7 C 3,2 km/h (1 Bft) 100,00 %
25.05.2016 21:00 14,6 C 89 % 1013,0 hPa 0,0 l/m 0,5 km/h (0 Bft) W-SW 257 0 min 0,000 mm 0,0 UV-I 0 W/m 12,8 C 14,6 C 1,6 km/h (1 Bft) 96,15 %
25.05.2016 21:02 14,4 C 89 % 1013,0 hPa 0,0 l/m 0,6 km/h (0 Bft) W-SW 257 0 min 0,025 mm 0,0 UV-I 0 W/m 12,6 C 14,4 C 1,6 km/h (1 Bft) 98,11 %
25.05.2016 21:03 14,3 C 90 % 1013,0 hPa 0,0 l/m 1,0 km/h (0 Bft) W-SW 257 0 min 0,000 mm 0,0 UV-I 0 W/m 12,7 C 14,3 C 3,2 km/h (1 Bft) 100,00 %
25.05.2016 21:04 14,3 C 89 % 1013,0 hPa 0,0 l/m 0,9 km/h (0 Bft) W-SW 257 0 min 0,000 mm 0,0 UV-I 0 W/m 12,5 C 14,3 C 1,6 km/h (1 Bft) 96,55 %
25.05.2016 21:05 14,2 C 89 % 1013,0 hPa 0,0 l/m 0,8 km/h (0 Bft) W-SW 257 0 min 0,000 mm 0,0 UV-I 0 W/m 12,4 C 14,2 C 1,6 km/h (1 Bft) 95,83 %
25.05.2016 21:06 14,2 C 90 % 1013,1 hPa 0,0 l/m 1,1 km/h (1 Bft) W-SW 257 0 min 0,000 mm 0,0 UV-I 0 W/m 12,6 C 14,2 C 1,6 km/h (1 Bft) 100,00 %
25.05.2016 21:07 14,2 C 90 % 1013,0 hPa 0,0 l/m 0,5 km/h (0 Bft) W-SW 257 0 min 0,000 mm 0,0 UV-I 0 W/m 12,6 C 14,2 C 1,6 km/h (1 Bft) 96,30 %
25.05.2016 21:08 14,2 C 90 % 1013,0 hPa 0,0 l/m 0,5 km/h (0 Bft) W-SW 257 0 min 0,000 mm 0,0 UV-I 0 W/m 12,6 C 14,2 C 1,6 km/h (1 Bft) 100,00 %
25.05.2016 21:09 14,2 C 90 % 1013,1 hPa 0,0 l/m 1,2 km/h (1 Bft) W-SW 257 0 min 0,000 mm 0,0 UV-I 0 W/m 12,6 C 14,2 C 1,6 km/h (1 Bft) 96,55 %
25.05.2016 21:10 14,2 C 90 % 1013,1 hPa 0,0 l/m 0,5 km/h (0 Bft) W-SW 257 0 min 0,000 mm 0,0 UV-I 0 W/m 12,6 C 14,2 C 1,6 km/h (1 Bft) 100,00 %
25.05.2016 21:11 14,3 C 90 % 1013,1 hPa 0,0 l/m 0,2 km/h (0 Bft) W-SW 257 0 min 0,000 mm 0,0 UV-I 0 W/m 12,7 C 14,3 C 1,6 km/h (1 Bft) 95,83 %
25.05.2016 21:12 14,3 C 90 % 1013,1 hPa 0,0 l/m 0,6 km/h (0 Bft) W-SW 257 0 min 0,000 mm 0,0 UV-I 0 W/m 12,7 C 14,3 C 1,6 km/h (1 Bft) 100,00 %
25.05.2016 21:13 14,3 C 90 % 1013,1 hPa 0,0 l/m 0,2 km/h (0 Bft) W-SW 257 0 min 0,000 mm 0,0 UV-I 0 W/m 12,7 C 14,3 C 1,6 km/h (1 Bft) 100,00 %
25.05.2016 21:14 14,3 C 90 % 1013,2 hPa 0,0 l/m 0,5 km/h (0 Bft) W-SW 257 0 min 0,000 mm 0,0 UV-I 0 W/m 12,7 C 14,3 C 1,6 km/h (1 Bft) 95,65 %
25.05.2016 21:15 14,3 C 90 % 1013,1 hPa 0,0 l/m 0,2 km/h (0 Bft) W-SW 257 0 min 0,000 mm 0,0 UV-I 0 W/m 12,7 C 14,3 C 1,6 km/h (1 Bft) 100,00 %
25.05.2016 21:16 14,3 C 90 % 1013,2 hPa 0,0 l/m 0,3 km/h (0 Bft) W-SW 257 0 min 0,000 mm 0,0 UV-I 0 W/m 12,7 C 14,3 C 1,6 km/h (1 Bft) 100,00 %
25.05.2016 21:17 14,3 C 90 % 1013,2 hPa 0,0 l/m 0,8 km/h (0 Bft) W-SW 257 0 min 0,000 mm 0,0 UV-I 0 W/m 12,7 C 14,3 C 1,6 km/h (1 Bft) 100,00 %
25.05.2016 21:18 14,3 C 90 % 1013,2 hPa 0,0 l/m 0,1 km/h (0 Bft) W-SW 257 0 min 0,000 mm 0,0 UV-I 0 W/m 12,7 C 14,3 C 1,6 km/h (1 Bft) 100,00 %
25.05.2016 21:19 14,3 C 90 % 1013,2 hPa 0,0 l/m 0,3 km/h (0 Bft) W-SW 257 0 min 0,000 mm 0,0 UV-I 0 W/m 12,7 C 14,3 C 1,6 km/h (1 Bft) 100,00 %
25.05.2016 21:20 14,3 C 90 % 1013,2 hPa 0,0 l/m 0,5 km/h (0 Bft) W-SW 257 0 min 0,000 mm 0,0 UV-I 0 W/m 12,7 C 14,3 C 1,6 km/h (1 Bft) 100,00 %
25.05.2016 21:21 14,2 C 90 % 1013,2 hPa 0,0 l/m 0,0 km/h (0 Bft) W-SW 257 0 min 0,000 mm 0,0 UV-I 0 W/m 12,6 C 14,2 C 0,0 km/h (0 Bft) 100,00 %
25.05.2016 21:22 14,2 C 90 % 1013,2 hPa 0,0 l/m 0,1 km/h (0 Bft) W-SW 257 0 min 0,000 mm 0,0 UV-I 0 W/m 12,6 C 14,2 C 1,6 km/h (1 Bft) 100,00 %
25.05.2016 21:23 14,2 C 90 % 1013,2 hPa 0,0 l/m 0,1 km/h (0 Bft) W-SW 257 0 min 0,000 mm 0,0 UV-I 0 W/m 12,6 C 14,2 C 1,6 km/h (1 Bft) 96,15 %
25.05.2016 21:24 14,2 C 90 % 1013,3 hPa 0,0 l/m 0,5 km/h (0 Bft) W-SW 257 0 min 0,000 mm 0,0 UV-I 0 W/m 12,6 C 14,2 C 1,6 km/h (1 Bft) 100,00 %
25.05.2016 21:25 14,1 C 90 % 1013,3 hPa 0,0 l/m 0,5 km/h (0 Bft) W-SW 257 0 min 0,000 mm 0,0 UV-I 0 W/m 12,5 C 14,1 C 1,6 km/h (1 Bft) 100,00 %
25.05.2016 21:26 14,1 C 90 % 1013,2 hPa 0,0 l/m 0,5 km/h (0 Bft) W-SW 257 0 min 0,000 mm 0,0 UV-I 0 W/m 12,5 C 14,1 C 1,6 km/h (1 Bft) 100,00 %
25.05.2016 21:27 13,9 C 90 % 1013,3 hPa 0,0 l/m 0,5 km/h (0 Bft) W-SW 257 0 min 0,000 mm 0,0 UV-I 0 W/m 12,3 C 13,9 C 1,6 km/h (1 Bft) 100,00 %
25.05.2016 21:28 13,9 C 90 % 1013,3 hPa 0,0 l/m 0,3 km/h (0 Bft) W-SW 257 0 min 0,000 mm 0,0 UV-I 0 W/m 12,3 C 13,9 C 1,6 km/h (1 Bft) 100,00 %
25.05.2016 21:29 13,8 C 90 % 1013,3 hPa 0,0 l/m 0,1 km/h (0 Bft) W-SW 257 0 min 0,000 mm 0,0 UV-I 0 W/m 12,2 C 13,8 C 1,6 km/h (1 Bft) 100,00 %
25.05.2016 21:30 13,7 C 91 % 1013,3 hPa 0,0 l/m 0,4 km/h (0 Bft) W-SW 257 0 min 0,000 mm 0,0 UV-I 0 W/m 12,3 C 13,7 C 1,6 km/h (1 Bft) 100,00 %
25.05.2016 21:31 13,7 C 91 % 1013,3 hPa 0,0 l/m 0,6 km/h (0 Bft) W-SW 257 0 min 0,000 mm 0,0 UV-I 0 W/m 12,3 C 13,7 C 1,6 km/h (1 Bft) 100,00 %
25.05.2016 21:32 13,6 C 91 % 1013,3 hPa 0,0 l/m 1,1 km/h (1 Bft) W-SW 257 0 min 0,000 mm 0,0 UV-I 0 W/m 12,2 C 13,6 C 1,6 km/h (1 Bft) 100,00 %
25.05.2016 21:33 13,6 C 91 % 1013,3 hPa 0,0 l/m 0,6 km/h (0 Bft) W-SW 257 0 min 0,000 mm 0,0 UV-I 0 W/m 12,2 C 13,6 C 1,6 km/h (1 Bft) 100,00 %
25.05.2016 21:34 13,5 C 91 % 1013,3 hPa 0,0 l/m 0,7 km/h (0 Bft) W-SW 257 0 min 0,000 mm 0,0 UV-I 0 W/m 12,1 C 13,5 C 1,6 km/h (1 Bft) 100,00 %
25.05.2016 21:35 13,4 C 91 % 1013,3 hPa 0,0 l/m 0,9 km/h (0 Bft) W-SW 257 0 min 0,000 mm 0,0 UV-I 0 W/m 12,0 C 13,4 C 1,6 km/h (1 Bft) 100,00 %
25.05.2016 21:36 13,4 C 91 % 1013,3 hPa 0,0 l/m 0,0 km/h (0 Bft) W-SW 257 0 min 0,000 mm 0,0 UV-I 0 W/m 12,0 C 13,4 C 0,0 km/h (0 Bft) 100,00 %
25.05.2016 21:37 13,4 C 92 % 1013,3 hPa 0,0 l/m 0,0 km/h (0 Bft) W-SW 257 0 min 0,000 mm 0,0 UV-I 0 W/m 12,1 C 13,4 C 0,0 km/h (0 Bft) 100,00 %
25.05.2016 21:38 13,3 C 92 % 1013,3 hPa 0,0 l/m 0,0 km/h (0 Bft) W-SW 257 0 min 0,000 mm 0,0 UV-I 0 W/m 12,0 C 13,3 C 0,0 km/h (0 Bft) 100,00 %
25.05.2016 21:39 13,4 C 92 % 1013,3 hPa 0,0 l/m 0,0 km/h (0 Bft) W-SW 257 0 min 0,000 mm 0,0 UV-I 0 W/m 12,1 C 13,4 C 0,0 km/h (0 Bft) 100,00 %
25.05.2016 21:40 13,4 C 92 % 1013,3 hPa 0,0 l/m 0,0 km/h (0 Bft) W-SW 257 0 min 0,000 mm 0,0 UV-I 0 W/m 12,1 C 13,4 C 0,0 km/h (0 Bft) 100,00 %
25.05.2016 21:41 13,4 C 92 % 1013,3 hPa 0,0 l/m 0,0 km/h (0 Bft) W-SW 257 0 min 0,000 mm 0,0 UV-I 0 W/m 12,1 C 13,4 C 0,0 km/h (0 Bft) 100,00 %
25.05.2016 21:42 13,4 C 92 % 1013,3 hPa 0,0 l/m 0,0 km/h (0 Bft) W-SW 257 0 min 0,000 mm 0,0 UV-I 0 W/m 12,1 C 13,4 C 0,0 km/h (0 Bft) 100,00 %
25.05.2016 21:43 13,4 C 91 % 1013,4 hPa 0,0 l/m 0,0 km/h (0 Bft) W-SW 257 0 min 0,000 mm 0,0 UV-I 0 W/m 12,0 C 13,4 C 0,0 km/h (0 Bft) 96,30 %
25.05.2016 21:44 13,4 C 91 % 1013,4 hPa 0,0 l/m 0,0 km/h (0 Bft) W-SW 257 0 min 0,000 mm 0,0 UV-I 0 W/m 12,0 C 13,4 C 0,0 km/h (0 Bft) 100,00 %
25.05.2016 21:45 13,4 C 91 % 1013,4 hPa 0,0 l/m 0,0 km/h (0 Bft) W-SW 257 0 min 0,000 mm 0,0 UV-I 0 W/m 12,0 C 13,4 C 0,0 km/h (0 Bft) 100,00 %
25.05.2016 21:46 13,4 C 92 % 1013,4 hPa 0,0 l/m 0,0 km/h (0 Bft) W-SW 257 0 min 0,000 mm 0,0 UV-I 0 W/m 12,1 C 13,4 C 0,0 km/h (0 Bft) 100,00 %
25.05.2016 21:47 13,4 C 92 % 1013,4 hPa 0,0 l/m 0,1 km/h (0 Bft) W-SW 257 0 min 0,000 mm 0,0 UV-I 0 W/m 12,1 C 13,4 C 1,6 km/h (1 Bft) 100,00 %
25.05.2016 21:48 13,4 C 92 % 1013,4 hPa 0,0 l/m 1,8 km/h (1 Bft) W-SW 257 0 min 0,000 mm 0,0 UV-I 0 W/m 12,1 C 13,4 C 3,2 km/h (1 Bft) 100,00 %
25.05.2016 21:49 13,4 C 92 % 1013,4 hPa 0,0 l/m 2,0 km/h (1 Bft) W-SW 257 0 min 0,000 mm 0,0 UV-I 0 W/m 12,1 C 13,4 C 3,2 km/h (1 Bft) 100,00 %
25.05.2016 21:50 13,3 C 92 % 1013,4 hPa 0,0 l/m 2,0 km/h (1 Bft) W-SW 257 0 min 0,000 mm 0,0 UV-I 0 W/m 12,0 C 13,3 C 3,2 km/h (1 Bft) 100,00 %
25.05.2016 21:51 13,3 C 92 % 1013,4 hPa 0,0 l/m 0,1 km/h (0 Bft) W-SW 257 0 min 0,000 mm 0,0 UV-I 0 W/m 12,0 C 13,3 C 1,6 km/h (1 Bft) 100,00 %
25.05.2016 21:52 13,3 C 92 % 1013,4 hPa 0,0 l/m 0,2 km/h (0 Bft) W-SW 257 0 min 0,000 mm 0,0 UV-I 0 W/m 12,0 C 13,3 C 1,6 km/h (1 Bft) 100,00 %
25.05.2016 21:53 13,2 C 91 % 1013,4 hPa 0,0 l/m 0,2 km/h (0 Bft) W-SW 257 0 min 0,000 mm 0,0 UV-I 0 W/m 11,8 C 13,2 C 1,6 km/h (1 Bft) 100,00 %
25.05.2016 21:54 13,2 C 91 % 1013,4 hPa 0,0 l/m 0,0 km/h (0 Bft) W-SW 257 0 min 0,000 mm 0,0 UV-I 0 W/m 11,8 C 13,2 C 0,0 km/h (0 Bft) 96,30 %
25.05.2016 21:55 13,1 C 91 % 1013,4 hPa 0,0 l/m 0,0 km/h (0 Bft) W-SW 257 0 min 0,000 mm 0,0 UV-I 0 W/m 11,7 C 13,1 C 0,0 km/h (0 Bft) 100,00 %
25.05.2016 21:56 13,1 C 91 % 1013,4 hPa 0,0 l/m 1,4 km/h (1 Bft) W-SW 257 0 min 0,000 mm 0,0 UV-I 0 W/m 11,7 C 13,1 C 3,2 km/h (1 Bft) 100,00 %
25.05.2016 21:57 12,9 C 92 % 1013,4 hPa 0,0 l/m 1,6 km/h (1 Bft) W-SW 257 0 min 0,000 mm 0,0 UV-I 0 W/m 11,6 C 12,9 C 1,6 km/h (1 Bft) 100,00 %
25.05.2016 21:58 12,9 C 92 % 1013,4 hPa 0,0 l/m 2,3 km/h (1 Bft) W-SW 257 0 min 0,000 mm 0,0 UV-I 0 W/m 11,6 C 12,9 C 3,2 km/h (1 Bft) 100,00 %
25.05.2016 21:59 12,9 C 93 % 1013,4 hPa 0,0 l/m 2,3 km/h (1 Bft) W-SW 257 0 min 0,000 mm 0,0 UV-I 0 W/m 11,8 C 12,9 C 3,2 km/h (1 Bft) 100,00 %
25.05.2016 22:00 12,9 C 93 % 1013,4 hPa 0,0 l/m 2,8 km/h (1 Bft) W-SW 257 0 min 0,000 mm 0,0 UV-I 0 W/m 11,8 C 12,9 C 3,2 km/h (1 Bft) 100,00 %
25.05.2016 22:02 12,9 C 93 % 1013,5 hPa 0,0 l/m 1,5 km/h (1 Bft) W-SW 257 0 min 0,000 mm 0,0 UV-I 0 W/m 11,8 C 12,9 C 3,2 km/h (1 Bft) 97,37 %
25.05.2016 22:03 12,9 C 92 % 1013,4 hPa 0,0 l/m 0,9 km/h (0 Bft) W-SW 257 0 min 0,000 mm 0,0 UV-I 0 W/m 11,6 C 12,9 C 1,6 km/h (1 Bft) 96,55 %
25.05.2016 22:04 12,9 C 92 % 1013,5 hPa 0,0 l/m 0,4 km/h (0 Bft) W-SW 257 0 min 0,000 mm 0,0 UV-I 0 W/m 11,6 C 12,9 C 1,6 km/h (1 Bft) 96,30 %
25.05.2016 22:05 12,9 C 93 % 1013,5 hPa 0,0 l/m 0,1 km/h (0 Bft) W-SW 257 0 min 0,000 mm 0,0 UV-I 0 W/m 11,8 C 12,9 C 1,6 km/h (1 Bft) 100,00 %
25.05.2016 22:06 12,9 C 93 % 1013,5 hPa 0,0 l/m 0,8 km/h (0 Bft) W-SW 257 0 min 0,000 mm 0,0 UV-I 0 W/m 11,8 C 12,9 C 1,6 km/h (1 Bft) 100,00 %
25.05.2016 22:07 12,9 C 93 % 1013,5 hPa 0,0 l/m 0,9 km/h (0 Bft) W-SW 257 0 min 0,000 mm 0,0 UV-I 0 W/m 11,8 C 12,9 C 1,6 km/h (1 Bft) 100,00 %
25.05.2016 22:08 12,9 C 92 % 1013,6 hPa 0,0 l/m 1,1 km/h (1 Bft) W-SW 257 0 min 0,000 mm 0,0 UV-I 0 W/m 11,6 C 12,9 C 1,6 km/h (1 Bft) 100,00 %
25.05.2016 22:09 12,8 C 92 % 1013,6 hPa 0,0 l/m 0,3 km/h (0 Bft) W-SW 257 0 min 0,000 mm 0,0 UV-I 0 W/m 11,5 C 12,8 C 1,6 km/h (1 Bft) 100,00 %
25.05.2016 22:10 12,8 C 93 % 1013,6 hPa 0,0 l/m 1,2 km/h (1 Bft) W-SW 257 0 min 0,000 mm 0,0 UV-I 0 W/m 11,7 C 12,8 C 3,2 km/h (1 Bft) 100,00 %
25.05.2016 22:11 12,8 C 93 % 1013,6 hPa 0,0 l/m 1,6 km/h (1 Bft) W-SW 257 0 min 0,000 mm 0,0 UV-I 0 W/m 11,7 C 12,8 C 3,2 km/h (1 Bft) 100,00 %
25.05.2016 22:12 12,8 C 93 % 1013,6 hPa 0,0 l/m 1,2 km/h (1 Bft) W-SW 257 0 min 0,000 mm 0,0 UV-I 0 W/m 11,7 C 12,8 C 1,6 km/h (1 Bft) 100,00 %
25.05.2016 22:13 12,8 C 93 % 1013,6 hPa 0,0 l/m 1,6 km/h (1 Bft) W-SW 257 0 min 0,000 mm 0,0 UV-I 0 W/m 11,7 C 12,8 C 3,2 km/h (1 Bft) 100,00 %
25.05.2016 22:14 12,8 C 93 % 1013,6 hPa 0,0 l/m 1,8 km/h (1 Bft) W-SW 257 0 min 0,000 mm 0,0 UV-I 0 W/m 11,7 C 12,8 C 3,2 km/h (1 Bft) 100,00 %
25.05.2016 22:15 12,8 C 93 % 1013,6 hPa 0,0 l/m 2,0 km/h (1 Bft) W-SW 257 0 min 0,000 mm 0,0 UV-I 0 W/m 11,7 C 12,8 C 3,2 km/h (1 Bft) 100,00 %
25.05.2016 22:16 12,8 C 93 % 1013,6 hPa 0,0 l/m 2,1 km/h (1 Bft) W-SW 257 0 min 0,000 mm 0,0 UV-I 0 W/m 11,7 C 12,8 C 3,2 km/h (1 Bft) 100,00 %
25.05.2016 22:17 12,7 C 93 % 1013,6 hPa 0,0 l/m 3,2 km/h (1 Bft) W-SW 257 0 min 0,000 mm 0,0 UV-I 0 W/m 11,6 C 12,7 C 4,8 km/h (1 Bft) 100,00 %
25.05.2016 22:18 12,7 C 93 % 1013,6 hPa 0,0 l/m 3,5 km/h (1 Bft) W-SW 257 0 min 0,000 mm 0,0 UV-I 0 W/m 11,6 C 12,7 C 4,8 km/h (1 Bft) 100,00 %
25.05.2016 22:19 12,7 C 93 % 1013,6 hPa 0,0 l/m 3,4 km/h (1 Bft) W-SW 257 0 min 0,000 mm 0,0 UV-I 0 W/m 11,6 C 12,7 C 4,8 km/h (1 Bft) 100,00 %
25.05.2016 22:20 12,7 C 93 % 1013,6 hPa 0,0 l/m 3,2 km/h (1 Bft) W-SW 257 0 min 0,000 mm 0,0 UV-I 0 W/m 11,6 C 12,7 C 3,2 km/h (1 Bft) 100,00 %
25.05.2016 22:21 12,7 C 93 % 1013,6 hPa 0,0 l/m 4,0 km/h (1 Bft) W-SW 257 0 min 0,000 mm 0,0 UV-I 0 W/m 11,6 C 12,7 C 4,8 km/h (1 Bft) 100,00 %
25.05.2016 22:22 12,7 C 94 % 1013,6 hPa 0,0 l/m 2,5 km/h (1 Bft) W-SW 257 0 min 0,000 mm 0,0 UV-I 0 W/m 11,8 C 12,7 C 3,2 km/h (1 Bft) 100,00 %
25.05.2016 22:23 12,7 C 94 % 1013,6 hPa 0,0 l/m 3,2 km/h (1 Bft) W-SW 257 0 min 0,000 mm 0,0 UV-I 0 W/m 11,8 C 12,7 C 4,8 km/h (1 Bft) 100,00 %
25.05.2016 22:24 12,7 C 94 % 1013,6 hPa 0,0 l/m 2,5 km/h (1 Bft) W-SW 257 0 min 0,000 mm 0,0 UV-I 0 W/m 11,8 C 12,7 C 3,2 km/h (1 Bft) 100,00 %
25.05.2016 22:25 12,7 C 94 % 1013,7 hPa 0,0 l/m 2,8 km/h (1 Bft) W-SW 257 0 min 0,000 mm 0,0 UV-I 0 W/m 11,8 C 12,7 C 3,2 km/h (1 Bft) 95,83 %
25.05.2016 22:26 12,7 C 94 % 1013,7 hPa 0,0 l/m 2,3 km/h (1 Bft) W-SW 257 0 min 0,000 mm 0,0 UV-I 0 W/m 11,8 C 12,7 C 3,2 km/h (1 Bft) 95,65 %
25.05.2016 22:27 12,7 C 93 % 1013,7 hPa 0,0 l/m 2,8 km/h (1 Bft) W-SW 257 0 min 0,000 mm 0,0 UV-I 0 W/m 11,6 C 12,7 C 3,2 km/h (1 Bft) 100,00 %
25.05.2016 22:28 12,6 C 93 % 1013,6 hPa 0,0 l/m 3,4 km/h (1 Bft) W-SW 257 0 min 0,000 mm 0,0 UV-I 0 W/m 11,5 C 12,6 C 4,8 km/h (1 Bft) 100,00 %
25.05.2016 22:29 12,6 C 93 % 1013,6 hPa 0,0 l/m 3,4 km/h (1 Bft) W-SW 250 0 min 0,000 mm 0,0 UV-I 0 W/m 11,5 C 12,6 C 4,8 km/h (1 Bft) 100,00 %
25.05.2016 22:30 12,6 C 94 % 1013,7 hPa 0,0 l/m 3,6 km/h (1 Bft) W-SW 249 0 min 0,000 mm 0,0 UV-I 0 W/m 11,7 C 12,6 C 4,8 km/h (1 Bft) 100,00 %
25.05.2016 22:31 12,6 C 94 % 1013,7 hPa 0,0 l/m 3,1 km/h (1 Bft) W-SW 249 0 min 0,000 mm 0,0 UV-I 0 W/m 11,7 C 12,6 C 4,8 km/h (1 Bft) 100,00 %
25.05.2016 22:32 12,6 C 93 % 1013,7 hPa 0,0 l/m 3,0 km/h (1 Bft) W-SW 248 0 min 0,000 mm 0,0 UV-I 0 W/m 11,5 C 12,6 C 3,2 km/h (1 Bft) 100,00 %
25.05.2016 22:33 12,6 C 93 % 1013,7 hPa 0,0 l/m 2,3 km/h (1 Bft) W-SW 248 0 min 0,000 mm 0,0 UV-I 0 W/m 11,5 C 12,6 C 3,2 km/h (1 Bft) 100,00 %
25.05.2016 22:34 12,6 C 93 % 1013,7 hPa 0,0 l/m 3,0 km/h (1 Bft) W-SW 248 0 min 0,000 mm 0,0 UV-I 0 W/m 11,5 C 12,6 C 3,2 km/h (1 Bft) 100,00 %
25.05.2016 22:35 12,6 C 93 % 1013,7 hPa 0,0 l/m 2,4 km/h (1 Bft) W-SW 248 0 min 0,000 mm 0,0 UV-I 0 W/m 11,5 C 12,6 C 3,2 km/h (1 Bft) 100,00 %
25.05.2016 22:36 12,6 C 93 % 1013,7 hPa 0,0 l/m 3,1 km/h (1 Bft) W-SW 248 0 min 0,000 mm 0,0 UV-I 0 W/m 11,5 C 12,6 C 3,2 km/h (1 Bft) 100,00 %
25.05.2016 22:37 12,6 C 94 % 1013,7 hPa 0,0 l/m 2,4 km/h (1 Bft) W-SW 248 0 min 0,000 mm 0,0 UV-I 0 W/m 11,7 C 12,6 C 3,2 km/h (1 Bft) 100,00 %
25.05.2016 22:38 12,6 C 94 % 1013,7 hPa 0,0 l/m 2,2 km/h (1 Bft) W-SW 248 0 min 0,000 mm 0,0 UV-I 0 W/m 11,7 C 12,6 C 3,2 km/h (1 Bft) 100,00 %
25.05.2016 22:39 12,6 C 94 % 1013,7 hPa 0,0 l/m 1,7 km/h (1 Bft) W-SW 248 0 min 0,000 mm 0,0 UV-I 0 W/m 11,7 C 12,6 C 3,2 km/h (1 Bft) 100,00 %
25.05.2016 22:40 12,6 C 94 % 1013,7 hPa 0,0 l/m 1,7 km/h (1 Bft) W-SW 248 0 min 0,000 mm 0,0 UV-I 0 W/m 11,7 C 12,6 C 3,2 km/h (1 Bft) 91,67 %
25.05.2016 22:41 12,6 C 94 % 1013,7 hPa 0,0 l/m 2,6 km/h (1 Bft) W-SW 248 0 min 0,000 mm 0,0 UV-I 0 W/m 11,7 C 12,6 C 3,2 km/h (1 Bft) 96,15 %
25.05.2016 22:42 12,6 C 94 % 1013,7 hPa 0,0 l/m 3,0 km/h (1 Bft) W-SW 248 0 min 0,000 mm 0,0 UV-I 0 W/m 11,7 C 12,6 C 3,2 km/h (1 Bft) 96,30 %
25.05.2016 22:43 12,7 C 94 % 1013,7 hPa 0,0 l/m 2,5 km/h (1 Bft) W-SW 248 0 min 0,000 mm 0,0 UV-I 0 W/m 11,8 C 12,7 C 3,2 km/h (1 Bft) 100,00 %
25.05.2016 22:44 12,7 C 94 % 1013,7 hPa 0,0 l/m 2,7 km/h (1 Bft) W-SW 248 0 min 0,000 mm 0,0 UV-I 0 W/m 11,8 C 12,7 C 3,2 km/h (1 Bft) 96,30 %
25.05.2016 22:45 12,7 C 94 % 1013,7 hPa 0,0 l/m 2,7 km/h (1 Bft) W-SW 248 0 min 0,000 mm 0,0 UV-I 0 W/m 11,8 C 12,7 C 3,2 km/h (1 Bft) 100,00 %
25.05.2016 22:46 12,6 C 94 % 1013,7 hPa 0,0 l/m 3,2 km/h (1 Bft) W-SW 248 0 min 0,000 mm 0,0 UV-I 0 W/m 11,7 C 12,6 C 3,2 km/h (1 Bft) 95,83 %
25.05.2016 22:47 12,6 C 93 % 1013,7 hPa 0,0 l/m 2,8 km/h (1 Bft) W-SW 248 0 min 0,000 mm 0,0 UV-I 0 W/m 11,5 C 12,6 C 3,2 km/h (1 Bft) 95,65 %
25.05.2016 22:48 12,6 C 93 % 1013,7 hPa 0,0 l/m 3,3 km/h (1 Bft) W-SW 248 0 min 0,000 mm 0,0 UV-I 0 W/m 11,5 C 12,6 C 4,8 km/h (1 Bft) 91,67 %
25.05.2016 22:49 12,5 C 93 % 1013,7 hPa 0,0 l/m 3,6 km/h (1 Bft) W-SW 248 0 min 0,000 mm 0,0 UV-I 0 W/m 11,4 C 12,5 C 4,8 km/h (1 Bft) 95,65 %
25.05.2016 22:50 12,5 C 93 % 1013,7 hPa 0,0 l/m 3,1 km/h (1 Bft) W-SW 248 0 min 0,000 mm 0,0 UV-I 0 W/m 11,4 C 12,5 C 4,8 km/h (1 Bft) 100,00 %
25.05.2016 22:51 12,4 C 93 % 1013,7 hPa 0,0 l/m 3,1 km/h (1 Bft) W-SW 248 0 min 0,000 mm 0,0 UV-I 0 W/m 11,3 C 12,4 C 4,8 km/h (1 Bft) 100,00 %
25.05.2016 22:52 12,4 C 93 % 1013,7 hPa 0,0 l/m 3,2 km/h (1 Bft) W-SW 248 0 min 0,000 mm 0,0 UV-I 0 W/m 11,3 C 12,4 C 4,8 km/h (1 Bft) 96,15 %
25.05.2016 22:53 12,4 C 93 % 1013,7 hPa 0,0 l/m 3,2 km/h (1 Bft) W-SW 248 0 min 0,000 mm 0,0 UV-I 0 W/m 11,3 C 12,4 C 3,2 km/h (1 Bft) 93,33 %
25.05.2016 22:54 12,4 C 94 % 1013,7 hPa 0,0 l/m 3,2 km/h (1 Bft) W-SW 248 0 min 0,000 mm 0,0 UV-I 0 W/m 11,5 C 12,4 C 4,8 km/h (1 Bft) 100,00 %
25.05.2016 22:55 12,4 C 94 % 1013,7 hPa 0,0 l/m 2,9 km/h (1 Bft) W-SW 248 0 min 0,000 mm 0,0 UV-I 0 W/m 11,5 C 12,4 C 4,8 km/h (1 Bft) 95,83 %
25.05.2016 22:56 12,4 C 94 % 1013,7 hPa 0,0 l/m 3,5 km/h (1 Bft) W-SW 248 0 min 0,000 mm 0,0 UV-I 0 W/m 11,5 C 12,4 C 4,8 km/h (1 Bft) 92,31 %
25.05.2016 22:57 12,4 C 94 % 1013,8 hPa 0,0 l/m 3,5 km/h (1 Bft) W-SW 248 0 min 0,000 mm 0,0 UV-I 0 W/m 11,5 C 12,4 C 4,8 km/h (1 Bft) 100,00 %
25.05.2016 22:58 12,4 C 94 % 1013,7 hPa 0,0 l/m 3,1 km/h (1 Bft) W-SW 248 0 min 0,000 mm 0,0 UV-I 0 W/m 11,5 C 12,4 C 4,8 km/h (1 Bft) 96,15 %
25.05.2016 22:59 12,4 C 94 % 1013,7 hPa 0,0 l/m 3,5 km/h (1 Bft) W-SW 248 0 min 0,000 mm 0,0 UV-I 0 W/m 11,5 C 12,4 C 4,8 km/h (1 Bft) 100,00 %
25.05.2016 23:00 12,4 C 93 % 1013,8 hPa 0,0 l/m 3,8 km/h (1 Bft) W-SW 248 0 min 0,000 mm 0,0 UV-I 0 W/m 11,3 C 12,4 C 4,8 km/h (1 Bft) 95,65 %
25.05.2016 23:02 12,3 C 94 % 1013,8 hPa 0,0 l/m 3,7 km/h (1 Bft) W-SW 246 0 min 0,000 mm 0,0 UV-I 0 W/m 11,4 C 12,3 C 4,8 km/h (1 Bft) 96,00 %
25.05.2016 23:03 12,3 C 94 % 1013,7 hPa 0,0 l/m 3,0 km/h (1 Bft) W-SW 246 0 min 0,000 mm 0,0 UV-I 0 W/m 11,4 C 12,3 C 4,8 km/h (1 Bft) 100,00 %
25.05.2016 23:04 12,3 C 94 % 1013,7 hPa 0,0 l/m 4,0 km/h (1 Bft) W-SW 238 0 min 0,000 mm 0,0 UV-I 0 W/m 11,4 C 12,3 C 4,8 km/h (1 Bft) 94,12 %
25.05.2016 23:05 12,3 C 94 % 1013,8 hPa 0,0 l/m 3,8 km/h (1 Bft) SW 234 0 min 0,000 mm 0,0 UV-I 0 W/m 11,4 C 12,3 C 6,4 km/h (2 Bft) 100,00 %
25.05.2016 23:06 12,3 C 95 % 1013,7 hPa 0,0 l/m 3,4 km/h (1 Bft) SW 234 0 min 0,000 mm 0,0 UV-I 0 W/m 11,5 C 12,3 C 4,8 km/h (1 Bft) 96,15 %
25.05.2016 23:07 12,3 C 94 % 1013,8 hPa 0,0 l/m 2,5 km/h (1 Bft) SW 234 0 min 0,000 mm 0,0 UV-I 0 W/m 11,4 C 12,3 C 3,2 km/h (1 Bft) 96,30 %
25.05.2016 23:08 12,3 C 94 % 1013,8 hPa 0,0 l/m 1,7 km/h (1 Bft) SW 234 0 min 0,000 mm 0,0 UV-I 0 W/m 11,4 C 12,3 C 4,8 km/h (1 Bft) 100,00 %
25.05.2016 23:09 12,3 C 94 % 1013,8 hPa 0,0 l/m 2,0 km/h (1 Bft) SW 234 0 min 0,000 mm 0,0 UV-I 0 W/m 11,4 C 12,3 C 3,2 km/h (1 Bft) 96,15 %
25.05.2016 23:10 12,3 C 94 % 1013,7 hPa 0,0 l/m 2,8 km/h (1 Bft) SW 233 0 min 0,000 mm 0,0 UV-I 0 W/m 11,4 C 12,3 C 3,2 km/h (1 Bft) 100,00 %
25.05.2016 23:11 12,3 C 95 % 1013,8 hPa 0,0 l/m 2,8 km/h (1 Bft) SW 233 0 min 0,000 mm 0,0 UV-I 0 W/m 11,5 C 12,3 C 3,2 km/h (1 Bft) 93,33 %
25.05.2016 23:12 12,4 C 94 % 1013,8 hPa 0,0 l/m 1,6 km/h (1 Bft) SW 233 0 min 0,000 mm 0,0 UV-I 0 W/m 11,5 C 12,4 C 4,8 km/h (1 Bft) 100,00 %
25.05.2016 23:13 12,4 C 95 % 1013,8 hPa 0,0 l/m 1,3 km/h (1 Bft) SW 233 0 min 0,000 mm 0,0 UV-I 0 W/m 11,6 C 12,4 C 3,2 km/h (1 Bft) 95,65 %
25.05.2016 23:14 12,4 C 94 % 1013,8 hPa 0,0 l/m 1,7 km/h (1 Bft) SW 232 0 min 0,000 mm 0,0 UV-I 0 W/m 11,5 C 12,4 C 3,2 km/h (1 Bft) 100,00 %
25.05.2016 23:15 12,4 C 95 % 1013,8 hPa 0,0 l/m 1,7 km/h (1 Bft) SW 232 0 min 0,000 mm 0,0 UV-I 0 W/m 11,6 C 12,4 C 3,2 km/h (1 Bft) 95,65 %
25.05.2016 23:16 12,5 C 95 % 1013,8 hPa 0,0 l/m 1,2 km/h (1 Bft) SW 232 0 min 0,000 mm 0,0 UV-I 0 W/m 11,7 C 12,5 C 3,2 km/h (1 Bft) 100,00 %
25.05.2016 23:17 12,5 C 94 % 1013,9 hPa 0,0 l/m 1,7 km/h (1 Bft) SW 232 0 min 0,000 mm 0,0 UV-I 0 W/m 11,6 C 12,5 C 3,2 km/h (1 Bft) 100,00 %
25.05.2016 23:18 12,5 C 94 % 1013,9 hPa 0,0 l/m 2,3 km/h (1 Bft) SW 232 0 min 0,000 mm 0,0 UV-I 0 W/m 11,6 C 12,5 C 3,2 km/h (1 Bft) 96,30 %
25.05.2016 23:19 12,6 C 94 % 1013,9 hPa 0,0 l/m 2,3 km/h (1 Bft) SW 232 0 min 0,000 mm 0,0 UV-I 0 W/m 11,7 C 12,6 C 3,2 km/h (1 Bft) 100,00 %
25.05.2016 23:20 12,6 C 94 % 1013,9 hPa 0,0 l/m 1,4 km/h (1 Bft) SW 232 0 min 0,000 mm 0,0 UV-I 0 W/m 11,7 C 12,6 C 3,2 km/h (1 Bft) 95,83 %
25.05.2016 23:21 12,6 C 94 % 1013,9 hPa 0,0 l/m 2,1 km/h (1 Bft) SW 232 0 min 0,000 mm 0,0 UV-I 0 W/m 11,7 C 12,6 C 3,2 km/h (1 Bft) 100,00 %
25.05.2016 23:22 12,6 C 94 % 1013,9 hPa 0,0 l/m 1,7 km/h (1 Bft) SW 232 0 min 0,000 mm 0,0 UV-I 0 W/m 11,7 C 12,6 C 3,2 km/h (1 Bft) 100,00 %
25.05.2016 23:23 12,6 C 94 % 1013,9 hPa 0,0 l/m 1,2 km/h (1 Bft) SW 231 0 min 0,000 mm 0,0 UV-I 0 W/m 11,7 C 12,6 C 3,2 km/h (1 Bft) 100,00 %
25.05.2016 23:24 12,6 C 94 % 1013,9 hPa 0,0 l/m 2,2 km/h (1 Bft) SW 231 0 min 0,000 mm 0,0 UV-I 0 W/m 11,7 C 12,6 C 3,2 km/h (1 Bft) 100,00 %
25.05.2016 23:25 12,6 C 94 % 1013,9 hPa 0,0 l/m 2,1 km/h (1 Bft) SW 231 0 min 0,000 mm 0,0 UV-I 0 W/m 11,7 C 12,6 C 3,2 km/h (1 Bft) 100,00 %
25.05.2016 23:26 12,6 C 94 % 1013,9 hPa 0,0 l/m 3,2 km/h (1 Bft) SW 231 0 min 0,000 mm 0,0 UV-I 0 W/m 11,7 C 12,6 C 4,8 km/h (1 Bft) 100,00 %
25.05.2016 23:27 12,6 C 94 % 1013,9 hPa 0,0 l/m 2,6 km/h (1 Bft) SW 231 0 min 0,000 mm 0,0 UV-I 0 W/m 11,7 C 12,6 C 4,8 km/h (1 Bft) 100,00 %
25.05.2016 23:28 12,6 C 94 % 1013,9 hPa 0,0 l/m 3,6 km/h (1 Bft) SW 231 0 min 0,000 mm 0,0 UV-I 0 W/m 11,7 C 12,6 C 4,8 km/h (1 Bft) 100,00 %
25.05.2016 23:29 12,6 C 94 % 1013,9 hPa 0,0 l/m 3,6 km/h (1 Bft) SW 231 0 min 0,000 mm 0,0 UV-I 0 W/m 11,7 C 12,6 C 4,8 km/h (1 Bft) 95,65 %
25.05.2016 23:30 12,6 C 94 % 1013,9 hPa 0,0 l/m 3,4 km/h (1 Bft) SW 231 0 min 0,000 mm 0,0 UV-I 0 W/m 11,7 C 12,6 C 4,8 km/h (1 Bft) 100,00 %
25.05.2016 23:31 12,6 C 94 % 1013,9 hPa 0,0 l/m 4,0 km/h (1 Bft) SW 226 0 min 0,000 mm 0,0 UV-I 0 W/m 11,7 C 12,6 C 6,4 km/h (2 Bft) 95,83 %
25.05.2016 23:32 12,6 C 94 % 1013,9 hPa 0,0 l/m 3,4 km/h (1 Bft) SW 226 0 min 0,000 mm 0,0 UV-I 0 W/m 11,7 C 12,6 C 4,8 km/h (1 Bft) 100,00 %
25.05.2016 23:33 12,6 C 94 % 1013,9 hPa 0,0 l/m 2,5 km/h (1 Bft) SW 226 0 min 0,000 mm 0,0 UV-I 0 W/m 11,7 C 12,6 C 3,2 km/h (1 Bft) 100,00 %
25.05.2016 23:34 12,6 C 94 % 1014,0 hPa 0,0 l/m 2,1 km/h (1 Bft) SW 226 0 min 0,000 mm 0,0 UV-I 0 W/m 11,7 C 12,6 C 3,2 km/h (1 Bft) 100,00 %
25.05.2016 23:35 12,6 C 94 % 1014,0 hPa 0,0 l/m 2,4 km/h (1 Bft) SW 225 0 min 0,000 mm 0,0 UV-I 0 W/m 11,7 C 12,6 C 4,8 km/h (1 Bft) 100,00 %
25.05.2016 23:36 12,5 C 94 % 1014,0 hPa 0,0 l/m 2,3 km/h (1 Bft) SW 225 0 min 0,000 mm 0,0 UV-I 0 W/m 11,6 C 12,5 C 3,2 km/h (1 Bft) 100,00 %
25.05.2016 23:37 12,5 C 94 % 1014,0 hPa 0,0 l/m 2,1 km/h (1 Bft) SW 225 0 min 0,000 mm 0,0 UV-I 0 W/m 11,6 C 12,5 C 4,8 km/h (1 Bft) 100,00 %
25.05.2016 23:38 12,5 C 94 % 1014,0 hPa 0,0 l/m 3,6 km/h (1 Bft) SW 221 0 min 0,000 mm 0,0 UV-I 0 W/m 11,6 C 12,5 C 6,4 km/h (2 Bft) 100,00 %
25.05.2016 23:39 12,5 C 94 % 1014,0 hPa 0,0 l/m 3,6 km/h (1 Bft) SW 219 0 min 0,000 mm 0,0 UV-I 0 W/m 11,6 C 12,5 C 4,8 km/h (1 Bft) 96,30 %
25.05.2016 23:40 12,4 C 94 % 1014,0 hPa 0,0 l/m 3,2 km/h (1 Bft) SW 216 0 min 0,000 mm 0,0 UV-I 0 W/m 11,5 C 12,4 C 4,8 km/h (1 Bft) 100,00 %
25.05.2016 23:41 12,5 C 94 % 1014,1 hPa 0,0 l/m 2,7 km/h (1 Bft) SW 216 0 min 0,000 mm 0,0 UV-I 0 W/m 11,6 C 12,5 C 4,8 km/h (1 Bft) 100,00 %
25.05.2016 23:42 12,5 C 94 % 1014,1 hPa 0,0 l/m 2,9 km/h (1 Bft) SW 216 0 min 0,000 mm 0,0 UV-I 0 W/m 11,6 C 12,5 C 4,8 km/h (1 Bft) 100,00 %
25.05.2016 23:43 12,5 C 94 % 1014,1 hPa 0,0 l/m 4,2 km/h (1 Bft) SW 215 0 min 0,000 mm 0,0 UV-I 0 W/m 11,6 C 12,5 C 6,4 km/h (2 Bft) 100,00 %
25.05.2016 23:44 12,5 C 94 % 1014,1 hPa 0,0 l/m 3,1 km/h (1 Bft) S-SW 212 0 min 0,000 mm 0,0 UV-I 0 W/m 11,6 C 12,5 C 4,8 km/h (1 Bft) 100,00 %
25.05.2016 23:45 12,4 C 94 % 1014,1 hPa 0,0 l/m 2,4 km/h (1 Bft) S-SW 212 0 min 0,000 mm 0,0 UV-I 0 W/m 11,5 C 12,4 C 4,8 km/h (1 Bft) 100,00 %
25.05.2016 23:46 12,4 C 94 % 1014,2 hPa 0,0 l/m 3,4 km/h (1 Bft) S-SW 212 0 min 0,000 mm 0,0 UV-I 0 W/m 11,5 C 12,4 C 4,8 km/h (1 Bft) 100,00 %
25.05.2016 23:47 12,4 C 94 % 1014,1 hPa 0,0 l/m 3,9 km/h (1 Bft) S-SW 202 0 min 0,000 mm 0,0 UV-I 0 W/m 11,5 C 12,4 C 4,8 km/h (1 Bft) 100,00 %
25.05.2016 23:48 12,4 C 94 % 1014,2 hPa 0,0 l/m 3,2 km/h (1 Bft) S-SW 199 0 min 0,000 mm 0,0 UV-I 0 W/m 11,5 C 12,4 C 4,8 km/h (1 Bft) 100,00 %
25.05.2016 23:49 12,4 C 94 % 1014,2 hPa 0,0 l/m 4,4 km/h (1 Bft) S 188 0 min 0,000 mm 0,0 UV-I 0 W/m 11,5 C 12,4 C 6,4 km/h (2 Bft) 100,00 %
25.05.2016 23:50 12,4 C 94 % 1014,2 hPa 0,0 l/m 3,4 km/h (1 Bft) S 187 0 min 0,000 mm 0,0 UV-I 0 W/m 11,5 C 12,4 C 4,8 km/h (1 Bft) 100,00 %
25.05.2016 23:51 12,3 C 94 % 1014,2 hPa 0,0 l/m 4,3 km/h (1 Bft) S 186 0 min 0,000 mm 0,0 UV-I 0 W/m 11,4 C 12,3 C 4,8 km/h (1 Bft) 100,00 %
25.05.2016 23:52 12,3 C 94 % 1014,3 hPa 0,0 l/m 3,9 km/h (1 Bft) S 186 0 min 0,000 mm 0,0 UV-I 0 W/m 11,4 C 12,3 C 4,8 km/h (1 Bft) 100,00 %
25.05.2016 23:53 12,3 C 94 % 1014,2 hPa 0,0 l/m 3,8 km/h (1 Bft) S 186 0 min 0,000 mm 0,0 UV-I 0 W/m 11,4 C 12,3 C 4,8 km/h (1 Bft) 100,00 %
25.05.2016 23:54 12,3 C 94 % 1014,2 hPa 0,0 l/m 3,4 km/h (1 Bft) S 186 0 min 0,000 mm 0,0 UV-I 0 W/m 11,4 C 12,3 C 4,8 km/h (1 Bft) 95,83 %
25.05.2016 23:55 12,3 C 94 % 1014,3 hPa 0,0 l/m 3,4 km/h (1 Bft) S 186 0 min 0,000 mm 0,0 UV-I 0 W/m 11,4 C 12,3 C 4,8 km/h (1 Bft) 100,00 %
25.05.2016 23:56 12,3 C 94 % 1014,2 hPa 0,0 l/m 2,5 km/h (1 Bft) S 186 0 min 0,000 mm 0,0 UV-I 0 W/m 11,4 C 12,3 C 3,2 km/h (1 Bft) 100,00 %
25.05.2016 23:57 12,3 C 94 % 1014,2 hPa 0,0 l/m 2,6 km/h (1 Bft) S 186 0 min 0,000 mm 0,0 UV-I 0 W/m 11,4 C 12,3 C 3,2 km/h (1 Bft) 100,00 %
25.05.2016 23:58 12,3 C 94 % 1014,2 hPa 0,0 l/m 2,5 km/h (1 Bft) S 186 0 min 0,000 mm 0,0 UV-I 0 W/m 11,4 C 12,3 C 3,2 km/h (1 Bft) 100,00 %
25.05.2016 23:59 12,3 C 94 % 1014,2 hPa 0,0 l/m 2,2 km/h (1 Bft) S 186 0 min 0,000 mm 0,0 UV-I 0 W/m 11,4 C 12,3 C 3,2 km/h (1 Bft) 100,00 %
_ Min-Zeit 03:38 17:50 17:41 - 18:56 - - - - - - 00:17 01:55 18:56 14:31
Minimum _ 10,1 C 69 % 1012,4 hPa - 0,0 km/h (0 Bft) - - - - - - 9,1 C 2,1 C 0,0 km/h (0 Bft) 83,33 %
_ Max-Zeit 17:33 06:52 09:48 00:02 01:55 - - 11:02 14:02 13:24 13:27 14:09 17:33 01:48 00:00
Maximum _ 18,8 C 96 % 1014,5 hPa 0,2 l/m 25,1 km/h
W (4 Bft)
- - 2 min 0,356 mm 5,9 UV-I 1090 W/m 14,5 C 18,8 C 32,2 km/h
W-SW (5 Bft)
100,00 %
Durchschnitt _ 13,4 C 88 % 1013,3 hPa #1,8 l/m 5,7 km/h (1 Bft) W-SW - #4:07 h #2,286 mm 2,4 UV-I 272 W/m 11,3 C 12,4 C 8,5 km/h (2 Bft) 98,60 %